<?xml version="1.0" encoding="UTF-8" standalone="no" ?>
<gpx xmlns="http://www.topografix.com/GPX/1/1" xmlns:xsi="http://www.w3.org/2001/XMLSchema-instance" xsi:schemaLocation="http://www.topografix.com/GPX/1/1 http://www.topografix.com/GPX/1/1/gpx.xsd" version="1.1" creator="VisuGPX - https://www.visugpx.com">
  <metadata>
    <name>9345407-peyrelade  meyruels lanuejols</name>
  </metadata>
  <trk>
    <name><![CDATA[9345407-peyrelade  meyruels lanuejols]]></name>
    <trkseg>
      <trkpt lat="44.19097" lon="3.1565">
        <ele>397</ele>
        <time>2019-05-22T20:09:59Z</time>
      </trkpt>
      <trkpt lat="44.19108" lon="3.15652">
        <ele>397</ele>
        <time>2019-05-22T20:10:01Z</time>
      </trkpt>
      <trkpt lat="44.19148" lon="3.15648">
        <ele>400</ele>
        <time>2019-05-22T20:10:08Z</time>
      </trkpt>
      <trkpt lat="44.19203" lon="3.15638">
        <ele>404</ele>
        <time>2019-05-22T20:10:18Z</time>
      </trkpt>
      <trkpt lat="44.19239" lon="3.15628">
        <ele>406</ele>
        <time>2019-05-22T20:10:25Z</time>
      </trkpt>
      <trkpt lat="44.19289" lon="3.15607">
        <ele>405</ele>
        <time>2019-05-22T20:10:34Z</time>
      </trkpt>
      <trkpt lat="44.19314" lon="3.15598">
        <ele>403</ele>
        <time>2019-05-22T20:10:38Z</time>
      </trkpt>
      <trkpt lat="44.19326" lon="3.15588">
        <ele>403</ele>
        <time>2019-05-22T20:10:41Z</time>
      </trkpt>
      <trkpt lat="44.19467" lon="3.15431">
        <ele>409</ele>
        <time>2019-05-22T20:11:13Z</time>
      </trkpt>
      <trkpt lat="44.19484" lon="3.15416">
        <ele>407</ele>
        <time>2019-05-22T20:11:17Z</time>
      </trkpt>
      <trkpt lat="44.19507" lon="3.15401">
        <ele>405</ele>
        <time>2019-05-22T20:11:21Z</time>
      </trkpt>
      <trkpt lat="44.19528" lon="3.1539">
        <ele>405</ele>
        <time>2019-05-22T20:11:25Z</time>
      </trkpt>
      <trkpt lat="44.19588" lon="3.15371">
        <ele>400</ele>
        <time>2019-05-22T20:11:36Z</time>
      </trkpt>
      <trkpt lat="44.19627" lon="3.15366">
        <ele>401</ele>
        <time>2019-05-22T20:11:43Z</time>
      </trkpt>
      <trkpt lat="44.19722" lon="3.15379">
        <ele>397</ele>
        <time>2019-05-22T20:12:00Z</time>
      </trkpt>
      <trkpt lat="44.19771" lon="3.15378">
        <ele>395</ele>
        <time>2019-05-22T20:12:09Z</time>
      </trkpt>
      <trkpt lat="44.19847" lon="3.15367">
        <ele>393</ele>
        <time>2019-05-22T20:12:22Z</time>
      </trkpt>
      <trkpt lat="44.19877" lon="3.15364">
        <ele>395</ele>
        <time>2019-05-22T20:12:28Z</time>
      </trkpt>
      <trkpt lat="44.19903" lon="3.15366">
        <ele>395</ele>
        <time>2019-05-22T20:12:32Z</time>
      </trkpt>
      <trkpt lat="44.19933" lon="3.15372">
        <ele>397</ele>
        <time>2019-05-22T20:12:38Z</time>
      </trkpt>
      <trkpt lat="44.19965" lon="3.15385">
        <ele>399</ele>
        <time>2019-05-22T20:12:44Z</time>
      </trkpt>
      <trkpt lat="44.20003" lon="3.15415">
        <ele>400</ele>
        <time>2019-05-22T20:12:51Z</time>
      </trkpt>
      <trkpt lat="44.20029" lon="3.15448">
        <ele>400</ele>
        <time>2019-05-22T20:12:58Z</time>
      </trkpt>
      <trkpt lat="44.20052" lon="3.15486">
        <ele>400</ele>
        <time>2019-05-22T20:13:04Z</time>
      </trkpt>
      <trkpt lat="44.20066" lon="3.15516">
        <ele>399</ele>
        <time>2019-05-22T20:13:09Z</time>
      </trkpt>
      <trkpt lat="44.20075" lon="3.15542">
        <ele>398</ele>
        <time>2019-05-22T20:13:12Z</time>
      </trkpt>
      <trkpt lat="44.20098" lon="3.15619">
        <ele>394</ele>
        <time>2019-05-22T20:13:23Z</time>
      </trkpt>
      <trkpt lat="44.20109" lon="3.15648">
        <ele>393</ele>
        <time>2019-05-22T20:13:27Z</time>
      </trkpt>
      <trkpt lat="44.20119" lon="3.15667">
        <ele>392</ele>
        <time>2019-05-22T20:13:30Z</time>
      </trkpt>
      <trkpt lat="44.2013" lon="3.15681">
        <ele>392</ele>
        <time>2019-05-22T20:13:33Z</time>
      </trkpt>
      <trkpt lat="44.2014" lon="3.15689">
        <ele>392</ele>
        <time>2019-05-22T20:13:35Z</time>
      </trkpt>
      <trkpt lat="44.20154" lon="3.15698">
        <ele>392</ele>
        <time>2019-05-22T20:13:37Z</time>
      </trkpt>
      <trkpt lat="44.20173" lon="3.15703">
        <ele>393</ele>
        <time>2019-05-22T20:13:41Z</time>
      </trkpt>
      <trkpt lat="44.20271" lon="3.15705">
        <ele>392</ele>
        <time>2019-05-22T20:13:58Z</time>
      </trkpt>
      <trkpt lat="44.2029" lon="3.15707">
        <ele>392</ele>
        <time>2019-05-22T20:14:02Z</time>
      </trkpt>
      <trkpt lat="44.20302" lon="3.15711">
        <ele>391</ele>
        <time>2019-05-22T20:14:04Z</time>
      </trkpt>
      <trkpt lat="44.20316" lon="3.1572">
        <ele>391</ele>
        <time>2019-05-22T20:14:07Z</time>
      </trkpt>
      <trkpt lat="44.20328" lon="3.15732">
        <ele>390</ele>
        <time>2019-05-22T20:14:09Z</time>
      </trkpt>
      <trkpt lat="44.20336" lon="3.15744">
        <ele>389</ele>
        <time>2019-05-22T20:14:11Z</time>
      </trkpt>
      <trkpt lat="44.20344" lon="3.15769">
        <ele>388</ele>
        <time>2019-05-22T20:14:15Z</time>
      </trkpt>
      <trkpt lat="44.20363" lon="3.15874">
        <ele>389</ele>
        <time>2019-05-22T20:14:29Z</time>
      </trkpt>
      <trkpt lat="44.20363" lon="3.15885">
        <ele>390</ele>
        <time>2019-05-22T20:14:30Z</time>
      </trkpt>
      <trkpt lat="44.20361" lon="3.15894">
        <ele>390</ele>
        <time>2019-05-22T20:14:31Z</time>
      </trkpt>
      <trkpt lat="44.20355" lon="3.15904">
        <ele>390</ele>
        <time>2019-05-22T20:14:33Z</time>
      </trkpt>
      <trkpt lat="44.20349" lon="3.15912">
        <ele>390</ele>
        <time>2019-05-22T20:14:34Z</time>
      </trkpt>
      <trkpt lat="44.20145" lon="3.16001">
        <ele>389</ele>
        <time>2019-05-22T20:15:12Z</time>
      </trkpt>
      <trkpt lat="44.20127" lon="3.16014">
        <ele>389</ele>
        <time>2019-05-22T20:15:16Z</time>
      </trkpt>
      <trkpt lat="44.20111" lon="3.16042">
        <ele>391</ele>
        <time>2019-05-22T20:15:21Z</time>
      </trkpt>
      <trkpt lat="44.201" lon="3.16086">
        <ele>393</ele>
        <time>2019-05-22T20:15:27Z</time>
      </trkpt>
      <trkpt lat="44.20096" lon="3.16117">
        <ele>396</ele>
        <time>2019-05-22T20:15:31Z</time>
      </trkpt>
      <trkpt lat="44.20096" lon="3.16144">
        <ele>399</ele>
        <time>2019-05-22T20:15:34Z</time>
      </trkpt>
      <trkpt lat="44.20102" lon="3.16255">
        <ele>403</ele>
        <time>2019-05-22T20:15:48Z</time>
      </trkpt>
      <trkpt lat="44.20102" lon="3.16255">
        <ele>403</ele>
        <time>2019-05-22T20:15:48Z</time>
      </trkpt>
      <trkpt lat="44.20105" lon="3.16359">
        <ele>397</ele>
        <time>2019-05-22T20:16:02Z</time>
      </trkpt>
      <trkpt lat="44.20109" lon="3.1645">
        <ele>397</ele>
        <time>2019-05-22T20:16:13Z</time>
      </trkpt>
      <trkpt lat="44.20124" lon="3.16576">
        <ele>401</ele>
        <time>2019-05-22T20:16:29Z</time>
      </trkpt>
      <trkpt lat="44.20124" lon="3.16627">
        <ele>400</ele>
        <time>2019-05-22T20:16:36Z</time>
      </trkpt>
      <trkpt lat="44.20121" lon="3.16727">
        <ele>396</ele>
        <time>2019-05-22T20:16:49Z</time>
      </trkpt>
      <trkpt lat="44.20124" lon="3.16791">
        <ele>395</ele>
        <time>2019-05-22T20:16:57Z</time>
      </trkpt>
      <trkpt lat="44.2014" lon="3.16934">
        <ele>398</ele>
        <time>2019-05-22T20:17:15Z</time>
      </trkpt>
      <trkpt lat="44.20156" lon="3.17032">
        <ele>395</ele>
        <time>2019-05-22T20:17:28Z</time>
      </trkpt>
      <trkpt lat="44.20161" lon="3.17098">
        <ele>392</ele>
        <time>2019-05-22T20:17:37Z</time>
      </trkpt>
      <trkpt lat="44.20179" lon="3.17203">
        <ele>392</ele>
        <time>2019-05-22T20:17:50Z</time>
      </trkpt>
      <trkpt lat="44.20181" lon="3.17246">
        <ele>389</ele>
        <time>2019-05-22T20:17:56Z</time>
      </trkpt>
      <trkpt lat="44.20178" lon="3.17327">
        <ele>388</ele>
        <time>2019-05-22T20:18:06Z</time>
      </trkpt>
      <trkpt lat="44.20173" lon="3.1735">
        <ele>390</ele>
        <time>2019-05-22T20:18:09Z</time>
      </trkpt>
      <trkpt lat="44.20167" lon="3.17365">
        <ele>390</ele>
        <time>2019-05-22T20:18:12Z</time>
      </trkpt>
      <trkpt lat="44.2015" lon="3.17392">
        <ele>391</ele>
        <time>2019-05-22T20:18:16Z</time>
      </trkpt>
      <trkpt lat="44.20135" lon="3.17426">
        <ele>392</ele>
        <time>2019-05-22T20:18:21Z</time>
      </trkpt>
      <trkpt lat="44.20123" lon="3.17462">
        <ele>392</ele>
        <time>2019-05-22T20:18:26Z</time>
      </trkpt>
      <trkpt lat="44.20112" lon="3.17506">
        <ele>392</ele>
        <time>2019-05-22T20:18:32Z</time>
      </trkpt>
      <trkpt lat="44.20108" lon="3.17527">
        <ele>392</ele>
        <time>2019-05-22T20:18:35Z</time>
      </trkpt>
      <trkpt lat="44.20105" lon="3.17559">
        <ele>393</ele>
        <time>2019-05-22T20:18:39Z</time>
      </trkpt>
      <trkpt lat="44.20104" lon="3.17611">
        <ele>395</ele>
        <time>2019-05-22T20:18:46Z</time>
      </trkpt>
      <trkpt lat="44.20098" lon="3.1766">
        <ele>395</ele>
        <time>2019-05-22T20:18:52Z</time>
      </trkpt>
      <trkpt lat="44.20081" lon="3.17766">
        <ele>395</ele>
        <time>2019-05-22T20:19:06Z</time>
      </trkpt>
      <trkpt lat="44.20068" lon="3.17807">
        <ele>397</ele>
        <time>2019-05-22T20:19:12Z</time>
      </trkpt>
      <trkpt lat="44.20029" lon="3.17897">
        <ele>397</ele>
        <time>2019-05-22T20:19:25Z</time>
      </trkpt>
      <trkpt lat="44.19995" lon="3.17993">
        <ele>397</ele>
        <time>2019-05-22T20:19:39Z</time>
      </trkpt>
      <trkpt lat="44.19982" lon="3.18037">
        <ele>397</ele>
        <time>2019-05-22T20:19:45Z</time>
      </trkpt>
      <trkpt lat="44.19975" lon="3.18077">
        <ele>398</ele>
        <time>2019-05-22T20:19:50Z</time>
      </trkpt>
      <trkpt lat="44.19973" lon="3.18109">
        <ele>398</ele>
        <time>2019-05-22T20:19:54Z</time>
      </trkpt>
      <trkpt lat="44.19973" lon="3.18146">
        <ele>399</ele>
        <time>2019-05-22T20:19:59Z</time>
      </trkpt>
      <trkpt lat="44.19978" lon="3.1821">
        <ele>402</ele>
        <time>2019-05-22T20:20:07Z</time>
      </trkpt>
      <trkpt lat="44.19977" lon="3.18241">
        <ele>403</ele>
        <time>2019-05-22T20:20:11Z</time>
      </trkpt>
      <trkpt lat="44.19972" lon="3.18274">
        <ele>403</ele>
        <time>2019-05-22T20:20:15Z</time>
      </trkpt>
      <trkpt lat="44.19963" lon="3.18309">
        <ele>403</ele>
        <time>2019-05-22T20:20:20Z</time>
      </trkpt>
      <trkpt lat="44.19947" lon="3.18348">
        <ele>402</ele>
        <time>2019-05-22T20:20:26Z</time>
      </trkpt>
      <trkpt lat="44.1993" lon="3.18387">
        <ele>403</ele>
        <time>2019-05-22T20:20:32Z</time>
      </trkpt>
      <trkpt lat="44.19908" lon="3.18424">
        <ele>403</ele>
        <time>2019-05-22T20:20:38Z</time>
      </trkpt>
      <trkpt lat="44.19873" lon="3.18464">
        <ele>403</ele>
        <time>2019-05-22T20:20:46Z</time>
      </trkpt>
      <trkpt lat="44.19697" lon="3.18584">
        <ele>397</ele>
        <time>2019-05-22T20:21:21Z</time>
      </trkpt>
      <trkpt lat="44.19679" lon="3.18603">
        <ele>397</ele>
        <time>2019-05-22T20:21:25Z</time>
      </trkpt>
      <trkpt lat="44.19669" lon="3.18618">
        <ele>398</ele>
        <time>2019-05-22T20:21:27Z</time>
      </trkpt>
      <trkpt lat="44.1965" lon="3.18657">
        <ele>399</ele>
        <time>2019-05-22T20:21:33Z</time>
      </trkpt>
      <trkpt lat="44.19642" lon="3.18686">
        <ele>399</ele>
        <time>2019-05-22T20:21:37Z</time>
      </trkpt>
      <trkpt lat="44.19638" lon="3.18706">
        <ele>398</ele>
        <time>2019-05-22T20:21:40Z</time>
      </trkpt>
      <trkpt lat="44.19637" lon="3.18735">
        <ele>399</ele>
        <time>2019-05-22T20:21:44Z</time>
      </trkpt>
      <trkpt lat="44.19639" lon="3.18769">
        <ele>398</ele>
        <time>2019-05-22T20:21:48Z</time>
      </trkpt>
      <trkpt lat="44.19644" lon="3.18792">
        <ele>397</ele>
        <time>2019-05-22T20:21:51Z</time>
      </trkpt>
      <trkpt lat="44.19656" lon="3.18822">
        <ele>396</ele>
        <time>2019-05-22T20:21:55Z</time>
      </trkpt>
      <trkpt lat="44.1967" lon="3.18843">
        <ele>395</ele>
        <time>2019-05-22T20:21:59Z</time>
      </trkpt>
      <trkpt lat="44.19686" lon="3.18857">
        <ele>395</ele>
        <time>2019-05-22T20:22:02Z</time>
      </trkpt>
      <trkpt lat="44.1974" lon="3.18882">
        <ele>396</ele>
        <time>2019-05-22T20:22:13Z</time>
      </trkpt>
      <trkpt lat="44.19763" lon="3.18897">
        <ele>395</ele>
        <time>2019-05-22T20:22:17Z</time>
      </trkpt>
      <trkpt lat="44.19774" lon="3.18907">
        <ele>395</ele>
        <time>2019-05-22T20:22:19Z</time>
      </trkpt>
      <trkpt lat="44.19792" lon="3.18933">
        <ele>394</ele>
        <time>2019-05-22T20:22:24Z</time>
      </trkpt>
      <trkpt lat="44.19866" lon="3.19079">
        <ele>397</ele>
        <time>2019-05-22T20:22:47Z</time>
      </trkpt>
      <trkpt lat="44.19877" lon="3.19115">
        <ele>397</ele>
        <time>2019-05-22T20:22:52Z</time>
      </trkpt>
      <trkpt lat="44.19879" lon="3.19155">
        <ele>396</ele>
        <time>2019-05-22T20:22:57Z</time>
      </trkpt>
      <trkpt lat="44.19875" lon="3.19228">
        <ele>397</ele>
        <time>2019-05-22T20:23:06Z</time>
      </trkpt>
      <trkpt lat="44.1987" lon="3.19261">
        <ele>397</ele>
        <time>2019-05-22T20:23:11Z</time>
      </trkpt>
      <trkpt lat="44.19859" lon="3.19315">
        <ele>399</ele>
        <time>2019-05-22T20:23:18Z</time>
      </trkpt>
      <trkpt lat="44.19769" lon="3.19545">
        <ele>400</ele>
        <time>2019-05-22T20:23:51Z</time>
      </trkpt>
      <trkpt lat="44.19759" lon="3.19577">
        <ele>399</ele>
        <time>2019-05-22T20:23:56Z</time>
      </trkpt>
      <trkpt lat="44.1972" lon="3.19732">
        <ele>397</ele>
        <time>2019-05-22T20:24:17Z</time>
      </trkpt>
      <trkpt lat="44.19707" lon="3.19773">
        <ele>398</ele>
        <time>2019-05-22T20:24:22Z</time>
      </trkpt>
      <trkpt lat="44.1969" lon="3.19808">
        <ele>399</ele>
        <time>2019-05-22T20:24:28Z</time>
      </trkpt>
      <trkpt lat="44.19559" lon="3.20029">
        <ele>396</ele>
        <time>2019-05-22T20:25:04Z</time>
      </trkpt>
      <trkpt lat="44.19547" lon="3.20065">
        <ele>398</ele>
        <time>2019-05-22T20:25:09Z</time>
      </trkpt>
      <trkpt lat="44.19531" lon="3.20146">
        <ele>400</ele>
        <time>2019-05-22T20:25:20Z</time>
      </trkpt>
      <trkpt lat="44.19508" lon="3.20229">
        <ele>399</ele>
        <time>2019-05-22T20:25:31Z</time>
      </trkpt>
      <trkpt lat="44.19485" lon="3.20368">
        <ele>399</ele>
        <time>2019-05-22T20:25:50Z</time>
      </trkpt>
      <trkpt lat="44.19469" lon="3.20426">
        <ele>398</ele>
        <time>2019-05-22T20:25:58Z</time>
      </trkpt>
      <trkpt lat="44.19451" lon="3.20468">
        <ele>396</ele>
        <time>2019-05-22T20:26:04Z</time>
      </trkpt>
      <trkpt lat="44.19446" lon="3.2049">
        <ele>395</ele>
        <time>2019-05-22T20:26:07Z</time>
      </trkpt>
      <trkpt lat="44.19457" lon="3.20594">
        <ele>397</ele>
        <time>2019-05-22T20:26:20Z</time>
      </trkpt>
      <trkpt lat="44.19456" lon="3.20636">
        <ele>398</ele>
        <time>2019-05-22T20:26:26Z</time>
      </trkpt>
      <trkpt lat="44.19451" lon="3.20673">
        <ele>398</ele>
        <time>2019-05-22T20:26:30Z</time>
      </trkpt>
      <trkpt lat="44.19449" lon="3.20704">
        <ele>399</ele>
        <time>2019-05-22T20:26:34Z</time>
      </trkpt>
      <trkpt lat="44.19455" lon="3.20754">
        <ele>401</ele>
        <time>2019-05-22T20:26:41Z</time>
      </trkpt>
      <trkpt lat="44.19449" lon="3.20772">
        <ele>400</ele>
        <time>2019-05-22T20:26:43Z</time>
      </trkpt>
      <trkpt lat="44.19438" lon="3.20788">
        <ele>397</ele>
        <time>2019-05-22T20:26:46Z</time>
      </trkpt>
      <trkpt lat="44.19424" lon="3.20801">
        <ele>394</ele>
        <time>2019-05-22T20:26:49Z</time>
      </trkpt>
      <trkpt lat="44.19337" lon="3.20845">
        <ele>407</ele>
        <time>2019-05-22T20:27:06Z</time>
      </trkpt>
      <trkpt lat="44.19327" lon="3.20848">
        <ele>410</ele>
        <time>2019-05-22T20:27:07Z</time>
      </trkpt>
      <trkpt lat="44.1932" lon="3.20843">
        <ele>411</ele>
        <time>2019-05-22T20:27:09Z</time>
      </trkpt>
      <trkpt lat="44.19295" lon="3.20793">
        <ele>409</ele>
        <time>2019-05-22T20:27:17Z</time>
      </trkpt>
      <trkpt lat="44.19282" lon="3.20772">
        <ele>408</ele>
        <time>2019-05-22T20:27:20Z</time>
      </trkpt>
      <trkpt lat="44.19236" lon="3.20721">
        <ele>407</ele>
        <time>2019-05-22T20:27:31Z</time>
      </trkpt>
      <trkpt lat="44.19223" lon="3.20699">
        <ele>405</ele>
        <time>2019-05-22T20:27:34Z</time>
      </trkpt>
      <trkpt lat="44.19185" lon="3.20622">
        <ele>401</ele>
        <time>2019-05-22T20:27:46Z</time>
      </trkpt>
      <trkpt lat="44.19178" lon="3.20612">
        <ele>401</ele>
        <time>2019-05-22T20:27:48Z</time>
      </trkpt>
      <trkpt lat="44.19167" lon="3.20605">
        <ele>401</ele>
        <time>2019-05-22T20:27:50Z</time>
      </trkpt>
      <trkpt lat="44.19109" lon="3.20622">
        <ele>400</ele>
        <time>2019-05-22T20:28:01Z</time>
      </trkpt>
      <trkpt lat="44.19089" lon="3.20632">
        <ele>400</ele>
        <time>2019-05-22T20:28:04Z</time>
      </trkpt>
      <trkpt lat="44.1908" lon="3.20649">
        <ele>400</ele>
        <time>2019-05-22T20:28:07Z</time>
      </trkpt>
      <trkpt lat="44.19075" lon="3.20706">
        <ele>400</ele>
        <time>2019-05-22T20:28:14Z</time>
      </trkpt>
      <trkpt lat="44.19069" lon="3.20722">
        <ele>400</ele>
        <time>2019-05-22T20:28:17Z</time>
      </trkpt>
      <trkpt lat="44.19066" lon="3.20751">
        <ele>399</ele>
        <time>2019-05-22T20:28:20Z</time>
      </trkpt>
      <trkpt lat="44.19068" lon="3.2076">
        <ele>400</ele>
        <time>2019-05-22T20:28:22Z</time>
      </trkpt>
      <trkpt lat="44.19066" lon="3.20764">
        <ele>400</ele>
        <time>2019-05-22T20:28:22Z</time>
      </trkpt>
      <trkpt lat="44.19063" lon="3.20781">
        <ele>401</ele>
        <time>2019-05-22T20:28:25Z</time>
      </trkpt>
      <trkpt lat="44.19061" lon="3.20808">
        <ele>402</ele>
        <time>2019-05-22T20:28:28Z</time>
      </trkpt>
      <trkpt lat="44.19055" lon="3.20858">
        <ele>403</ele>
        <time>2019-05-22T20:28:34Z</time>
      </trkpt>
      <trkpt lat="44.19052" lon="3.20903">
        <ele>404</ele>
        <time>2019-05-22T20:28:40Z</time>
      </trkpt>
      <trkpt lat="44.19022" lon="3.21243">
        <ele>414</ele>
        <time>2019-05-22T20:29:24Z</time>
      </trkpt>
      <trkpt lat="44.19014" lon="3.21318">
        <ele>414</ele>
        <time>2019-05-22T20:29:34Z</time>
      </trkpt>
      <trkpt lat="44.19011" lon="3.21402">
        <ele>414</ele>
        <time>2019-05-22T20:29:44Z</time>
      </trkpt>
      <trkpt lat="44.19019" lon="3.21468">
        <ele>414</ele>
        <time>2019-05-22T20:29:53Z</time>
      </trkpt>
      <trkpt lat="44.19029" lon="3.21506">
        <ele>416</ele>
        <time>2019-05-22T20:29:58Z</time>
      </trkpt>
      <trkpt lat="44.19041" lon="3.21543">
        <ele>419</ele>
        <time>2019-05-22T20:30:03Z</time>
      </trkpt>
      <trkpt lat="44.19061" lon="3.21594">
        <ele>422</ele>
        <time>2019-05-22T20:30:11Z</time>
      </trkpt>
      <trkpt lat="44.19077" lon="3.21629">
        <ele>421</ele>
        <time>2019-05-22T20:30:16Z</time>
      </trkpt>
      <trkpt lat="44.19094" lon="3.21673">
        <ele>420</ele>
        <time>2019-05-22T20:30:22Z</time>
      </trkpt>
      <trkpt lat="44.19151" lon="3.21801">
        <ele>431</ele>
        <time>2019-05-22T20:30:42Z</time>
      </trkpt>
      <trkpt lat="44.19156" lon="3.21836">
        <ele>430</ele>
        <time>2019-05-22T20:30:46Z</time>
      </trkpt>
      <trkpt lat="44.19151" lon="3.21959">
        <ele>431</ele>
        <time>2019-05-22T20:31:02Z</time>
      </trkpt>
      <trkpt lat="44.19152" lon="3.22216">
        <ele>425</ele>
        <time>2019-05-22T20:31:35Z</time>
      </trkpt>
      <trkpt lat="44.19155" lon="3.22235">
        <ele>423</ele>
        <time>2019-05-22T20:31:37Z</time>
      </trkpt>
      <trkpt lat="44.19163" lon="3.22246">
        <ele>423</ele>
        <time>2019-05-22T20:31:39Z</time>
      </trkpt>
      <trkpt lat="44.19198" lon="3.22261">
        <ele>436</ele>
        <time>2019-05-22T20:31:46Z</time>
      </trkpt>
      <trkpt lat="44.19206" lon="3.22268">
        <ele>439</ele>
        <time>2019-05-22T20:31:47Z</time>
      </trkpt>
      <trkpt lat="44.19209" lon="3.22281">
        <ele>441</ele>
        <time>2019-05-22T20:31:49Z</time>
      </trkpt>
      <trkpt lat="44.19209" lon="3.22297">
        <ele>441</ele>
        <time>2019-05-22T20:31:51Z</time>
      </trkpt>
      <trkpt lat="44.19197" lon="3.22334">
        <ele>436</ele>
        <time>2019-05-22T20:31:56Z</time>
      </trkpt>
      <trkpt lat="44.19194" lon="3.22377">
        <ele>438</ele>
        <time>2019-05-22T20:32:02Z</time>
      </trkpt>
      <trkpt lat="44.19194" lon="3.22436">
        <ele>442</ele>
        <time>2019-05-22T20:32:09Z</time>
      </trkpt>
      <trkpt lat="44.19197" lon="3.22474">
        <ele>444</ele>
        <time>2019-05-22T20:32:14Z</time>
      </trkpt>
      <trkpt lat="44.19203" lon="3.225">
        <ele>448</ele>
        <time>2019-05-22T20:32:18Z</time>
      </trkpt>
      <trkpt lat="44.19222" lon="3.22546">
        <ele>457</ele>
        <time>2019-05-22T20:32:24Z</time>
      </trkpt>
      <trkpt lat="44.19224" lon="3.2256">
        <ele>457</ele>
        <time>2019-05-22T20:32:26Z</time>
      </trkpt>
      <trkpt lat="44.19224" lon="3.22571">
        <ele>457</ele>
        <time>2019-05-22T20:32:28Z</time>
      </trkpt>
      <trkpt lat="44.1922" lon="3.22582">
        <ele>455</ele>
        <time>2019-05-22T20:32:29Z</time>
      </trkpt>
      <trkpt lat="44.1919" lon="3.2262">
        <ele>451</ele>
        <time>2019-05-22T20:32:36Z</time>
      </trkpt>
      <trkpt lat="44.19172" lon="3.22646">
        <ele>450</ele>
        <time>2019-05-22T20:32:41Z</time>
      </trkpt>
      <trkpt lat="44.19155" lon="3.22685">
        <ele>452</ele>
        <time>2019-05-22T20:32:47Z</time>
      </trkpt>
      <trkpt lat="44.19126" lon="3.22774">
        <ele>454</ele>
        <time>2019-05-22T20:32:59Z</time>
      </trkpt>
      <trkpt lat="44.19116" lon="3.22822">
        <ele>454</ele>
        <time>2019-05-22T20:33:06Z</time>
      </trkpt>
      <trkpt lat="44.19115" lon="3.22842">
        <ele>455</ele>
        <time>2019-05-22T20:33:08Z</time>
      </trkpt>
      <trkpt lat="44.19122" lon="3.22883">
        <ele>464</ele>
        <time>2019-05-22T20:33:14Z</time>
      </trkpt>
      <trkpt lat="44.19123" lon="3.22901">
        <ele>466</ele>
        <time>2019-05-22T20:33:16Z</time>
      </trkpt>
      <trkpt lat="44.19122" lon="3.22922">
        <ele>467</ele>
        <time>2019-05-22T20:33:19Z</time>
      </trkpt>
      <trkpt lat="44.19111" lon="3.23045">
        <ele>472</ele>
        <time>2019-05-22T20:33:34Z</time>
      </trkpt>
      <trkpt lat="44.19107" lon="3.23139">
        <ele>474</ele>
        <time>2019-05-22T20:33:46Z</time>
      </trkpt>
      <trkpt lat="44.19107" lon="3.23162">
        <ele>475</ele>
        <time>2019-05-22T20:33:49Z</time>
      </trkpt>
      <trkpt lat="44.1912" lon="3.23215">
        <ele>482</ele>
        <time>2019-05-22T20:33:57Z</time>
      </trkpt>
      <trkpt lat="44.19122" lon="3.2324">
        <ele>483</ele>
        <time>2019-05-22T20:34:00Z</time>
      </trkpt>
      <trkpt lat="44.19119" lon="3.23355">
        <ele>485</ele>
        <time>2019-05-22T20:34:14Z</time>
      </trkpt>
      <trkpt lat="44.19122" lon="3.23395">
        <ele>488</ele>
        <time>2019-05-22T20:34:20Z</time>
      </trkpt>
      <trkpt lat="44.1914" lon="3.23551">
        <ele>492</ele>
        <time>2019-05-22T20:34:40Z</time>
      </trkpt>
      <trkpt lat="44.19144" lon="3.23571">
        <ele>493</ele>
        <time>2019-05-22T20:34:42Z</time>
      </trkpt>
      <trkpt lat="44.19152" lon="3.23592">
        <ele>496</ele>
        <time>2019-05-22T20:34:45Z</time>
      </trkpt>
      <trkpt lat="44.19157" lon="3.23614">
        <ele>498</ele>
        <time>2019-05-22T20:34:48Z</time>
      </trkpt>
      <trkpt lat="44.1916" lon="3.23633">
        <ele>498</ele>
        <time>2019-05-22T20:34:51Z</time>
      </trkpt>
      <trkpt lat="44.1916" lon="3.23654">
        <ele>497</ele>
        <time>2019-05-22T20:34:53Z</time>
      </trkpt>
      <trkpt lat="44.19162" lon="3.23673">
        <ele>497</ele>
        <time>2019-05-22T20:34:56Z</time>
      </trkpt>
      <trkpt lat="44.19166" lon="3.23691">
        <ele>499</ele>
        <time>2019-05-22T20:34:58Z</time>
      </trkpt>
      <trkpt lat="44.1917" lon="3.23703">
        <ele>502</ele>
        <time>2019-05-22T20:35:00Z</time>
      </trkpt>
      <trkpt lat="44.19181" lon="3.23753">
        <ele>507</ele>
        <time>2019-05-22T20:35:07Z</time>
      </trkpt>
      <trkpt lat="44.19195" lon="3.23799">
        <ele>507</ele>
        <time>2019-05-22T20:35:13Z</time>
      </trkpt>
      <trkpt lat="44.192" lon="3.23846">
        <ele>501</ele>
        <time>2019-05-22T20:35:19Z</time>
      </trkpt>
      <trkpt lat="44.19204" lon="3.23862">
        <ele>501</ele>
        <time>2019-05-22T20:35:21Z</time>
      </trkpt>
      <trkpt lat="44.19211" lon="3.23884">
        <ele>501</ele>
        <time>2019-05-22T20:35:24Z</time>
      </trkpt>
      <trkpt lat="44.1923" lon="3.23927">
        <ele>503</ele>
        <time>2019-05-22T20:35:31Z</time>
      </trkpt>
      <trkpt lat="44.19245" lon="3.23954">
        <ele>505</ele>
        <time>2019-05-22T20:35:35Z</time>
      </trkpt>
      <trkpt lat="44.19259" lon="3.23975">
        <ele>507</ele>
        <time>2019-05-22T20:35:39Z</time>
      </trkpt>
      <trkpt lat="44.19291" lon="3.24007">
        <ele>516</ele>
        <time>2019-05-22T20:35:46Z</time>
      </trkpt>
      <trkpt lat="44.19306" lon="3.24026">
        <ele>519</ele>
        <time>2019-05-22T20:35:49Z</time>
      </trkpt>
      <trkpt lat="44.19319" lon="3.24048">
        <ele>520</ele>
        <time>2019-05-22T20:35:53Z</time>
      </trkpt>
      <trkpt lat="44.19344" lon="3.24101">
        <ele>517</ele>
        <time>2019-05-22T20:36:01Z</time>
      </trkpt>
      <trkpt lat="44.19358" lon="3.24118">
        <ele>518</ele>
        <time>2019-05-22T20:36:04Z</time>
      </trkpt>
      <trkpt lat="44.19377" lon="3.24134">
        <ele>521</ele>
        <time>2019-05-22T20:36:08Z</time>
      </trkpt>
      <trkpt lat="44.19411" lon="3.24159">
        <ele>528</ele>
        <time>2019-05-22T20:36:15Z</time>
      </trkpt>
      <trkpt lat="44.19451" lon="3.24197">
        <ele>536</ele>
        <time>2019-05-22T20:36:24Z</time>
      </trkpt>
      <trkpt lat="44.19474" lon="3.24224">
        <ele>541</ele>
        <time>2019-05-22T20:36:29Z</time>
      </trkpt>
      <trkpt lat="44.1949" lon="3.24254">
        <ele>542</ele>
        <time>2019-05-22T20:36:34Z</time>
      </trkpt>
      <trkpt lat="44.195" lon="3.24281">
        <ele>542</ele>
        <time>2019-05-22T20:36:38Z</time>
      </trkpt>
      <trkpt lat="44.19511" lon="3.24321">
        <ele>539</ele>
        <time>2019-05-22T20:36:43Z</time>
      </trkpt>
      <trkpt lat="44.19526" lon="3.24425">
        <ele>536</ele>
        <time>2019-05-22T20:36:57Z</time>
      </trkpt>
      <trkpt lat="44.19533" lon="3.24443">
        <ele>535</ele>
        <time>2019-05-22T20:36:59Z</time>
      </trkpt>
      <trkpt lat="44.19544" lon="3.24457">
        <ele>537</ele>
        <time>2019-05-22T20:37:02Z</time>
      </trkpt>
      <trkpt lat="44.19592" lon="3.2449">
        <ele>547</ele>
        <time>2019-05-22T20:37:12Z</time>
      </trkpt>
      <trkpt lat="44.19603" lon="3.24504">
        <ele>549</ele>
        <time>2019-05-22T20:37:14Z</time>
      </trkpt>
      <trkpt lat="44.19611" lon="3.24522">
        <ele>551</ele>
        <time>2019-05-22T20:37:17Z</time>
      </trkpt>
      <trkpt lat="44.19614" lon="3.24542">
        <ele>551</ele>
        <time>2019-05-22T20:37:20Z</time>
      </trkpt>
      <trkpt lat="44.19615" lon="3.24624">
        <ele>542</ele>
        <time>2019-05-22T20:37:30Z</time>
      </trkpt>
      <trkpt lat="44.19614" lon="3.24754">
        <ele>503</ele>
        <time>2019-05-22T20:37:47Z</time>
      </trkpt>
      <trkpt lat="44.19615" lon="3.24775">
        <ele>497</ele>
        <time>2019-05-22T20:37:49Z</time>
      </trkpt>
      <trkpt lat="44.1962" lon="3.24791">
        <ele>497</ele>
        <time>2019-05-22T20:37:52Z</time>
      </trkpt>
      <trkpt lat="44.19629" lon="3.24801">
        <ele>500</ele>
        <time>2019-05-22T20:37:54Z</time>
      </trkpt>
      <trkpt lat="44.19641" lon="3.24802">
        <ele>509</ele>
        <time>2019-05-22T20:37:56Z</time>
      </trkpt>
      <trkpt lat="44.19693" lon="3.24788">
        <ele>540</ele>
        <time>2019-05-22T20:38:05Z</time>
      </trkpt>
      <trkpt lat="44.19708" lon="3.24788">
        <ele>544</ele>
        <time>2019-05-22T20:38:08Z</time>
      </trkpt>
      <trkpt lat="44.1972" lon="3.24793">
        <ele>546</ele>
        <time>2019-05-22T20:38:10Z</time>
      </trkpt>
      <trkpt lat="44.19732" lon="3.24805">
        <ele>546</ele>
        <time>2019-05-22T20:38:13Z</time>
      </trkpt>
      <trkpt lat="44.19738" lon="3.2482">
        <ele>545</ele>
        <time>2019-05-22T20:38:15Z</time>
      </trkpt>
      <trkpt lat="44.19752" lon="3.24874">
        <ele>541</ele>
        <time>2019-05-22T20:38:22Z</time>
      </trkpt>
      <trkpt lat="44.1976" lon="3.24892">
        <ele>542</ele>
        <time>2019-05-22T20:38:25Z</time>
      </trkpt>
      <trkpt lat="44.19774" lon="3.24913">
        <ele>545</ele>
        <time>2019-05-22T20:38:29Z</time>
      </trkpt>
      <trkpt lat="44.19798" lon="3.24941">
        <ele>549</ele>
        <time>2019-05-22T20:38:34Z</time>
      </trkpt>
      <trkpt lat="44.19808" lon="3.24961">
        <ele>549</ele>
        <time>2019-05-22T20:38:37Z</time>
      </trkpt>
      <trkpt lat="44.19816" lon="3.24987">
        <ele>548</ele>
        <time>2019-05-22T20:38:41Z</time>
      </trkpt>
      <trkpt lat="44.19827" lon="3.25031">
        <ele>548</ele>
        <time>2019-05-22T20:38:47Z</time>
      </trkpt>
      <trkpt lat="44.19829" lon="3.2505">
        <ele>548</ele>
        <time>2019-05-22T20:38:49Z</time>
      </trkpt>
      <trkpt lat="44.19822" lon="3.25127">
        <ele>534</ele>
        <time>2019-05-22T20:38:59Z</time>
      </trkpt>
      <trkpt lat="44.19824" lon="3.25145">
        <ele>532</ele>
        <time>2019-05-22T20:39:01Z</time>
      </trkpt>
      <trkpt lat="44.19829" lon="3.25159">
        <ele>533</ele>
        <time>2019-05-22T20:39:03Z</time>
      </trkpt>
      <trkpt lat="44.19861" lon="3.25201">
        <ele>538</ele>
        <time>2019-05-22T20:39:11Z</time>
      </trkpt>
      <trkpt lat="44.19885" lon="3.25241">
        <ele>541</ele>
        <time>2019-05-22T20:39:18Z</time>
      </trkpt>
      <trkpt lat="44.19892" lon="3.25259">
        <ele>542</ele>
        <time>2019-05-22T20:39:21Z</time>
      </trkpt>
      <trkpt lat="44.19897" lon="3.25296">
        <ele>540</ele>
        <time>2019-05-22T20:39:25Z</time>
      </trkpt>
      <trkpt lat="44.19894" lon="3.25336">
        <ele>532</ele>
        <time>2019-05-22T20:39:30Z</time>
      </trkpt>
      <trkpt lat="44.19896" lon="3.25358">
        <ele>531</ele>
        <time>2019-05-22T20:39:33Z</time>
      </trkpt>
      <trkpt lat="44.19901" lon="3.25391">
        <ele>530</ele>
        <time>2019-05-22T20:39:38Z</time>
      </trkpt>
      <trkpt lat="44.19902" lon="3.25411">
        <ele>529</ele>
        <time>2019-05-22T20:39:40Z</time>
      </trkpt>
      <trkpt lat="44.199" lon="3.25463">
        <ele>520</ele>
        <time>2019-05-22T20:39:47Z</time>
      </trkpt>
      <trkpt lat="44.19906" lon="3.25506">
        <ele>518</ele>
        <time>2019-05-22T20:39:52Z</time>
      </trkpt>
      <trkpt lat="44.19912" lon="3.25522">
        <ele>519</ele>
        <time>2019-05-22T20:39:55Z</time>
      </trkpt>
      <trkpt lat="44.19922" lon="3.25528">
        <ele>522</ele>
        <time>2019-05-22T20:39:57Z</time>
      </trkpt>
      <trkpt lat="44.19943" lon="3.25524">
        <ele>530</ele>
        <time>2019-05-22T20:40:00Z</time>
      </trkpt>
      <trkpt lat="44.19961" lon="3.25524">
        <ele>536</ele>
        <time>2019-05-22T20:40:04Z</time>
      </trkpt>
      <trkpt lat="44.19975" lon="3.25528">
        <ele>540</ele>
        <time>2019-05-22T20:40:06Z</time>
      </trkpt>
      <trkpt lat="44.19984" lon="3.25536">
        <ele>542</ele>
        <time>2019-05-22T20:40:08Z</time>
      </trkpt>
      <trkpt lat="44.19989" lon="3.25545">
        <ele>543</ele>
        <time>2019-05-22T20:40:10Z</time>
      </trkpt>
      <trkpt lat="44.1999" lon="3.25553">
        <ele>542</ele>
        <time>2019-05-22T20:40:11Z</time>
      </trkpt>
      <trkpt lat="44.19984" lon="3.25586">
        <ele>537</ele>
        <time>2019-05-22T20:40:15Z</time>
      </trkpt>
      <trkpt lat="44.19976" lon="3.25623">
        <ele>534</ele>
        <time>2019-05-22T20:40:20Z</time>
      </trkpt>
      <trkpt lat="44.19957" lon="3.25726">
        <ele>524</ele>
        <time>2019-05-22T20:40:33Z</time>
      </trkpt>
      <trkpt lat="44.19949" lon="3.25761">
        <ele>519</ele>
        <time>2019-05-22T20:40:38Z</time>
      </trkpt>
      <trkpt lat="44.19949" lon="3.25779">
        <ele>518</ele>
        <time>2019-05-22T20:40:40Z</time>
      </trkpt>
      <trkpt lat="44.19952" lon="3.25798">
        <ele>519</ele>
        <time>2019-05-22T20:40:43Z</time>
      </trkpt>
      <trkpt lat="44.19957" lon="3.25812">
        <ele>522</ele>
        <time>2019-05-22T20:40:45Z</time>
      </trkpt>
      <trkpt lat="44.19958" lon="3.25825">
        <ele>522</ele>
        <time>2019-05-22T20:40:47Z</time>
      </trkpt>
      <trkpt lat="44.19959" lon="3.25848">
        <ele>519</ele>
        <time>2019-05-22T20:40:49Z</time>
      </trkpt>
      <trkpt lat="44.19966" lon="3.25882">
        <ele>515</ele>
        <time>2019-05-22T20:40:54Z</time>
      </trkpt>
      <trkpt lat="44.19976" lon="3.25901">
        <ele>516</ele>
        <time>2019-05-22T20:40:57Z</time>
      </trkpt>
      <trkpt lat="44.20012" lon="3.25937">
        <ele>525</ele>
        <time>2019-05-22T20:41:05Z</time>
      </trkpt>
      <trkpt lat="44.20025" lon="3.25957">
        <ele>527</ele>
        <time>2019-05-22T20:41:08Z</time>
      </trkpt>
      <trkpt lat="44.20034" lon="3.25978">
        <ele>526</ele>
        <time>2019-05-22T20:41:11Z</time>
      </trkpt>
      <trkpt lat="44.20039" lon="3.26001">
        <ele>523</ele>
        <time>2019-05-22T20:41:14Z</time>
      </trkpt>
      <trkpt lat="44.20047" lon="3.26081">
        <ele>511</ele>
        <time>2019-05-22T20:41:25Z</time>
      </trkpt>
      <trkpt lat="44.20053" lon="3.26096">
        <ele>512</ele>
        <time>2019-05-22T20:41:27Z</time>
      </trkpt>
      <trkpt lat="44.20082" lon="3.26132">
        <ele>522</ele>
        <time>2019-05-22T20:41:34Z</time>
      </trkpt>
      <trkpt lat="44.20089" lon="3.26145">
        <ele>524</ele>
        <time>2019-05-22T20:41:36Z</time>
      </trkpt>
      <trkpt lat="44.20092" lon="3.26154">
        <ele>525</ele>
        <time>2019-05-22T20:41:37Z</time>
      </trkpt>
      <trkpt lat="44.20092" lon="3.26165">
        <ele>523</ele>
        <time>2019-05-22T20:41:39Z</time>
      </trkpt>
      <trkpt lat="44.20091" lon="3.26182">
        <ele>522</ele>
        <time>2019-05-22T20:41:41Z</time>
      </trkpt>
      <trkpt lat="44.20078" lon="3.26244">
        <ele>515</ele>
        <time>2019-05-22T20:41:49Z</time>
      </trkpt>
      <trkpt lat="44.20077" lon="3.26262">
        <ele>513</ele>
        <time>2019-05-22T20:41:51Z</time>
      </trkpt>
      <trkpt lat="44.20077" lon="3.26282">
        <ele>511</ele>
        <time>2019-05-22T20:41:54Z</time>
      </trkpt>
      <trkpt lat="44.20079" lon="3.26292">
        <ele>511</ele>
        <time>2019-05-22T20:41:55Z</time>
      </trkpt>
      <trkpt lat="44.20079" lon="3.26292">
        <ele>511</ele>
        <time>2019-05-22T20:41:55Z</time>
      </trkpt>
      <trkpt lat="44.20081" lon="3.26301">
        <ele>511</ele>
        <time>2019-05-22T20:41:56Z</time>
      </trkpt>
      <trkpt lat="44.20126" lon="3.26395">
        <ele>519</ele>
        <time>2019-05-22T20:42:11Z</time>
      </trkpt>
      <trkpt lat="44.20137" lon="3.26422">
        <ele>520</ele>
        <time>2019-05-22T20:42:15Z</time>
      </trkpt>
      <trkpt lat="44.20142" lon="3.26441">
        <ele>519</ele>
        <time>2019-05-22T20:42:17Z</time>
      </trkpt>
      <trkpt lat="44.20142" lon="3.26461">
        <ele>514</ele>
        <time>2019-05-22T20:42:20Z</time>
      </trkpt>
      <trkpt lat="44.20135" lon="3.26511">
        <ele>498</ele>
        <time>2019-05-22T20:42:26Z</time>
      </trkpt>
      <trkpt lat="44.20134" lon="3.26532">
        <ele>492</ele>
        <time>2019-05-22T20:42:29Z</time>
      </trkpt>
      <trkpt lat="44.2014" lon="3.26544">
        <ele>492</ele>
        <time>2019-05-22T20:42:31Z</time>
      </trkpt>
      <trkpt lat="44.20149" lon="3.26552">
        <ele>493</ele>
        <time>2019-05-22T20:42:33Z</time>
      </trkpt>
      <trkpt lat="44.20165" lon="3.26552">
        <ele>498</ele>
        <time>2019-05-22T20:42:36Z</time>
      </trkpt>
      <trkpt lat="44.20208" lon="3.26542">
        <ele>513</ele>
        <time>2019-05-22T20:42:43Z</time>
      </trkpt>
      <trkpt lat="44.20227" lon="3.26544">
        <ele>516</ele>
        <time>2019-05-22T20:42:47Z</time>
      </trkpt>
      <trkpt lat="44.20243" lon="3.2655">
        <ele>517</ele>
        <time>2019-05-22T20:42:50Z</time>
      </trkpt>
      <trkpt lat="44.20257" lon="3.26561">
        <ele>516</ele>
        <time>2019-05-22T20:42:53Z</time>
      </trkpt>
      <trkpt lat="44.20293" lon="3.26604">
        <ele>514</ele>
        <time>2019-05-22T20:43:01Z</time>
      </trkpt>
      <trkpt lat="44.20298" lon="3.26616">
        <ele>515</ele>
        <time>2019-05-22T20:43:03Z</time>
      </trkpt>
      <trkpt lat="44.20301" lon="3.26624">
        <ele>515</ele>
        <time>2019-05-22T20:43:04Z</time>
      </trkpt>
      <trkpt lat="44.20299" lon="3.26637">
        <ele>512</ele>
        <time>2019-05-22T20:43:06Z</time>
      </trkpt>
      <trkpt lat="44.20292" lon="3.26646">
        <ele>509</ele>
        <time>2019-05-22T20:43:07Z</time>
      </trkpt>
      <trkpt lat="44.20269" lon="3.26656">
        <ele>501</ele>
        <time>2019-05-22T20:43:12Z</time>
      </trkpt>
      <trkpt lat="44.20253" lon="3.26671">
        <ele>495</ele>
        <time>2019-05-22T20:43:15Z</time>
      </trkpt>
      <trkpt lat="44.20243" lon="3.26676">
        <ele>493</ele>
        <time>2019-05-22T20:43:17Z</time>
      </trkpt>
      <trkpt lat="44.20239" lon="3.26685">
        <ele>492</ele>
        <time>2019-05-22T20:43:18Z</time>
      </trkpt>
      <trkpt lat="44.20237" lon="3.267">
        <ele>493</ele>
        <time>2019-05-22T20:43:20Z</time>
      </trkpt>
      <trkpt lat="44.20234" lon="3.26769">
        <ele>500</ele>
        <time>2019-05-22T20:43:29Z</time>
      </trkpt>
      <trkpt lat="44.20222" lon="3.26842">
        <ele>501</ele>
        <time>2019-05-22T20:43:39Z</time>
      </trkpt>
      <trkpt lat="44.20214" lon="3.26874">
        <ele>499</ele>
        <time>2019-05-22T20:43:43Z</time>
      </trkpt>
      <trkpt lat="44.20204" lon="3.26903">
        <ele>495</ele>
        <time>2019-05-22T20:43:47Z</time>
      </trkpt>
      <trkpt lat="44.20182" lon="3.27017">
        <ele>490</ele>
        <time>2019-05-22T20:44:02Z</time>
      </trkpt>
      <trkpt lat="44.20176" lon="3.27098">
        <ele>490</ele>
        <time>2019-05-22T20:44:13Z</time>
      </trkpt>
      <trkpt lat="44.20166" lon="3.27146">
        <ele>485</ele>
        <time>2019-05-22T20:44:19Z</time>
      </trkpt>
      <trkpt lat="44.20164" lon="3.27198">
        <ele>489</ele>
        <time>2019-05-22T20:44:26Z</time>
      </trkpt>
      <trkpt lat="44.20156" lon="3.27226">
        <ele>491</ele>
        <time>2019-05-22T20:44:29Z</time>
      </trkpt>
      <trkpt lat="44.20142" lon="3.27253">
        <ele>490</ele>
        <time>2019-05-22T20:44:34Z</time>
      </trkpt>
      <trkpt lat="44.20123" lon="3.27288">
        <ele>488</ele>
        <time>2019-05-22T20:44:39Z</time>
      </trkpt>
      <trkpt lat="44.20115" lon="3.27304">
        <ele>487</ele>
        <time>2019-05-22T20:44:42Z</time>
      </trkpt>
      <trkpt lat="44.20094" lon="3.27362">
        <ele>487</ele>
        <time>2019-05-22T20:44:50Z</time>
      </trkpt>
      <trkpt lat="44.20085" lon="3.27379">
        <ele>486</ele>
        <time>2019-05-22T20:44:53Z</time>
      </trkpt>
      <trkpt lat="44.20064" lon="3.274">
        <ele>486</ele>
        <time>2019-05-22T20:44:57Z</time>
      </trkpt>
      <trkpt lat="44.20056" lon="3.27414">
        <ele>486</ele>
        <time>2019-05-22T20:45:00Z</time>
      </trkpt>
      <trkpt lat="44.20052" lon="3.2743">
        <ele>486</ele>
        <time>2019-05-22T20:45:02Z</time>
      </trkpt>
      <trkpt lat="44.20054" lon="3.27547">
        <ele>492</ele>
        <time>2019-05-22T20:45:17Z</time>
      </trkpt>
      <trkpt lat="44.20066" lon="3.2759">
        <ele>494</ele>
        <time>2019-05-22T20:45:23Z</time>
      </trkpt>
      <trkpt lat="44.20068" lon="3.27611">
        <ele>494</ele>
        <time>2019-05-22T20:45:25Z</time>
      </trkpt>
      <trkpt lat="44.20064" lon="3.27628">
        <ele>492</ele>
        <time>2019-05-22T20:45:28Z</time>
      </trkpt>
      <trkpt lat="44.20061" lon="3.27658">
        <ele>490</ele>
        <time>2019-05-22T20:45:31Z</time>
      </trkpt>
      <trkpt lat="44.20063" lon="3.27682">
        <ele>489</ele>
        <time>2019-05-22T20:45:35Z</time>
      </trkpt>
      <trkpt lat="44.2007" lon="3.27704">
        <ele>487</ele>
        <time>2019-05-22T20:45:38Z</time>
      </trkpt>
      <trkpt lat="44.20079" lon="3.27719">
        <ele>485</ele>
        <time>2019-05-22T20:45:40Z</time>
      </trkpt>
      <trkpt lat="44.20096" lon="3.27737">
        <ele>490</ele>
        <time>2019-05-22T20:45:44Z</time>
      </trkpt>
      <trkpt lat="44.20115" lon="3.27752">
        <ele>499</ele>
        <time>2019-05-22T20:45:48Z</time>
      </trkpt>
      <trkpt lat="44.20145" lon="3.27786">
        <ele>508</ele>
        <time>2019-05-22T20:45:55Z</time>
      </trkpt>
      <trkpt lat="44.20163" lon="3.2782">
        <ele>503</ele>
        <time>2019-05-22T20:46:00Z</time>
      </trkpt>
      <trkpt lat="44.20171" lon="3.27839">
        <ele>500</ele>
        <time>2019-05-22T20:46:03Z</time>
      </trkpt>
      <trkpt lat="44.20179" lon="3.27875">
        <ele>498</ele>
        <time>2019-05-22T20:46:08Z</time>
      </trkpt>
      <trkpt lat="44.20184" lon="3.27886">
        <ele>499</ele>
        <time>2019-05-22T20:46:09Z</time>
      </trkpt>
      <trkpt lat="44.2019" lon="3.27894">
        <ele>501</ele>
        <time>2019-05-22T20:46:11Z</time>
      </trkpt>
      <trkpt lat="44.20192" lon="3.27907">
        <ele>499</ele>
        <time>2019-05-22T20:46:13Z</time>
      </trkpt>
      <trkpt lat="44.2019" lon="3.2792">
        <ele>497</ele>
        <time>2019-05-22T20:46:14Z</time>
      </trkpt>
      <trkpt lat="44.20182" lon="3.27938">
        <ele>496</ele>
        <time>2019-05-22T20:46:17Z</time>
      </trkpt>
      <trkpt lat="44.20154" lon="3.27991">
        <ele>497</ele>
        <time>2019-05-22T20:46:25Z</time>
      </trkpt>
      <trkpt lat="44.20126" lon="3.28064">
        <ele>500</ele>
        <time>2019-05-22T20:46:36Z</time>
      </trkpt>
      <trkpt lat="44.20121" lon="3.28082">
        <ele>500</ele>
        <time>2019-05-22T20:46:38Z</time>
      </trkpt>
      <trkpt lat="44.20119" lon="3.28107">
        <ele>500</ele>
        <time>2019-05-22T20:46:42Z</time>
      </trkpt>
      <trkpt lat="44.2012" lon="3.28135">
        <ele>503</ele>
        <time>2019-05-22T20:46:45Z</time>
      </trkpt>
      <trkpt lat="44.20118" lon="3.28158">
        <ele>503</ele>
        <time>2019-05-22T20:46:48Z</time>
      </trkpt>
      <trkpt lat="44.20098" lon="3.28239">
        <ele>498</ele>
        <time>2019-05-22T20:46:59Z</time>
      </trkpt>
      <trkpt lat="44.20094" lon="3.2826">
        <ele>498</ele>
        <time>2019-05-22T20:47:02Z</time>
      </trkpt>
      <trkpt lat="44.20088" lon="3.28281">
        <ele>498</ele>
        <time>2019-05-22T20:47:05Z</time>
      </trkpt>
      <trkpt lat="44.2008" lon="3.28301">
        <ele>498</ele>
        <time>2019-05-22T20:47:08Z</time>
      </trkpt>
      <trkpt lat="44.20031" lon="3.28392">
        <ele>500</ele>
        <time>2019-05-22T20:47:22Z</time>
      </trkpt>
      <trkpt lat="44.20005" lon="3.28429">
        <ele>493</ele>
        <time>2019-05-22T20:47:29Z</time>
      </trkpt>
      <trkpt lat="44.19997" lon="3.28446">
        <ele>492</ele>
        <time>2019-05-22T20:47:31Z</time>
      </trkpt>
      <trkpt lat="44.19993" lon="3.2847">
        <ele>495</ele>
        <time>2019-05-22T20:47:34Z</time>
      </trkpt>
      <trkpt lat="44.19995" lon="3.28492">
        <ele>498</ele>
        <time>2019-05-22T20:47:37Z</time>
      </trkpt>
      <trkpt lat="44.2" lon="3.28514">
        <ele>498</ele>
        <time>2019-05-22T20:47:40Z</time>
      </trkpt>
      <trkpt lat="44.20018" lon="3.28566">
        <ele>504</ele>
        <time>2019-05-22T20:47:48Z</time>
      </trkpt>
      <trkpt lat="44.20024" lon="3.28597">
        <ele>506</ele>
        <time>2019-05-22T20:47:52Z</time>
      </trkpt>
      <trkpt lat="44.2003" lon="3.28649">
        <ele>507</ele>
        <time>2019-05-22T20:47:58Z</time>
      </trkpt>
      <trkpt lat="44.20032" lon="3.28695">
        <ele>508</ele>
        <time>2019-05-22T20:48:04Z</time>
      </trkpt>
      <trkpt lat="44.2003" lon="3.28741">
        <ele>508</ele>
        <time>2019-05-22T20:48:10Z</time>
      </trkpt>
      <trkpt lat="44.20026" lon="3.28783">
        <ele>503</ele>
        <time>2019-05-22T20:48:16Z</time>
      </trkpt>
      <trkpt lat="44.20025" lon="3.28823">
        <ele>500</ele>
        <time>2019-05-22T20:48:21Z</time>
      </trkpt>
      <trkpt lat="44.20029" lon="3.28847">
        <ele>499</ele>
        <time>2019-05-22T20:48:24Z</time>
      </trkpt>
      <trkpt lat="44.20041" lon="3.28866">
        <ele>500</ele>
        <time>2019-05-22T20:48:27Z</time>
      </trkpt>
      <trkpt lat="44.20065" lon="3.2889">
        <ele>503</ele>
        <time>2019-05-22T20:48:32Z</time>
      </trkpt>
      <trkpt lat="44.20136" lon="3.28948">
        <ele>499</ele>
        <time>2019-05-22T20:48:47Z</time>
      </trkpt>
      <trkpt lat="44.20146" lon="3.28952">
        <ele>498</ele>
        <time>2019-05-22T20:48:49Z</time>
      </trkpt>
      <trkpt lat="44.20156" lon="3.28951">
        <ele>500</ele>
        <time>2019-05-22T20:48:51Z</time>
      </trkpt>
      <trkpt lat="44.20167" lon="3.28946">
        <ele>502</ele>
        <time>2019-05-22T20:48:53Z</time>
      </trkpt>
      <trkpt lat="44.20176" lon="3.28939">
        <ele>505</ele>
        <time>2019-05-22T20:48:54Z</time>
      </trkpt>
      <trkpt lat="44.20185" lon="3.28936">
        <ele>506</ele>
        <time>2019-05-22T20:48:56Z</time>
      </trkpt>
      <trkpt lat="44.20195" lon="3.28935">
        <ele>507</ele>
        <time>2019-05-22T20:48:58Z</time>
      </trkpt>
      <trkpt lat="44.20205" lon="3.28937">
        <ele>507</ele>
        <time>2019-05-22T20:49:00Z</time>
      </trkpt>
      <trkpt lat="44.20219" lon="3.28936">
        <ele>508</ele>
        <time>2019-05-22T20:49:02Z</time>
      </trkpt>
      <trkpt lat="44.2024" lon="3.28931">
        <ele>510</ele>
        <time>2019-05-22T20:49:06Z</time>
      </trkpt>
      <trkpt lat="44.20259" lon="3.28932">
        <ele>512</ele>
        <time>2019-05-22T20:49:09Z</time>
      </trkpt>
      <trkpt lat="44.20277" lon="3.28938">
        <ele>512</ele>
        <time>2019-05-22T20:49:13Z</time>
      </trkpt>
      <trkpt lat="44.20373" lon="3.28997">
        <ele>501</ele>
        <time>2019-05-22T20:49:31Z</time>
      </trkpt>
      <trkpt lat="44.20394" lon="3.29008">
        <ele>502</ele>
        <time>2019-05-22T20:49:35Z</time>
      </trkpt>
      <trkpt lat="44.20419" lon="3.29015">
        <ele>505</ele>
        <time>2019-05-22T20:49:40Z</time>
      </trkpt>
      <trkpt lat="44.20481" lon="3.29016">
        <ele>508</ele>
        <time>2019-05-22T20:49:51Z</time>
      </trkpt>
      <trkpt lat="44.20521" lon="3.29009">
        <ele>511</ele>
        <time>2019-05-22T20:49:58Z</time>
      </trkpt>
      <trkpt lat="44.20539" lon="3.29003">
        <ele>513</ele>
        <time>2019-05-22T20:50:01Z</time>
      </trkpt>
      <trkpt lat="44.20555" lon="3.29001">
        <ele>513</ele>
        <time>2019-05-22T20:50:04Z</time>
      </trkpt>
      <trkpt lat="44.2057" lon="3.29004">
        <ele>512</ele>
        <time>2019-05-22T20:50:07Z</time>
      </trkpt>
      <trkpt lat="44.20582" lon="3.29012">
        <ele>510</ele>
        <time>2019-05-22T20:50:09Z</time>
      </trkpt>
      <trkpt lat="44.20622" lon="3.29061">
        <ele>505</ele>
        <time>2019-05-22T20:50:19Z</time>
      </trkpt>
      <trkpt lat="44.2063" lon="3.29075">
        <ele>503</ele>
        <time>2019-05-22T20:50:21Z</time>
      </trkpt>
      <trkpt lat="44.20637" lon="3.29091">
        <ele>503</ele>
        <time>2019-05-22T20:50:23Z</time>
      </trkpt>
      <trkpt lat="44.20641" lon="3.29109">
        <ele>505</ele>
        <time>2019-05-22T20:50:26Z</time>
      </trkpt>
      <trkpt lat="44.20641" lon="3.29154">
        <ele>508</ele>
        <time>2019-05-22T20:50:32Z</time>
      </trkpt>
      <trkpt lat="44.20645" lon="3.29185">
        <ele>508</ele>
        <time>2019-05-22T20:50:36Z</time>
      </trkpt>
      <trkpt lat="44.20657" lon="3.29237">
        <ele>505</ele>
        <time>2019-05-22T20:50:43Z</time>
      </trkpt>
      <trkpt lat="44.20666" lon="3.29261">
        <ele>503</ele>
        <time>2019-05-22T20:50:46Z</time>
      </trkpt>
      <trkpt lat="44.20679" lon="3.29281">
        <ele>507</ele>
        <time>2019-05-22T20:50:49Z</time>
      </trkpt>
      <trkpt lat="44.20708" lon="3.29311">
        <ele>514</ele>
        <time>2019-05-22T20:50:56Z</time>
      </trkpt>
      <trkpt lat="44.20723" lon="3.29329">
        <ele>513</ele>
        <time>2019-05-22T20:50:59Z</time>
      </trkpt>
      <trkpt lat="44.20735" lon="3.2935">
        <ele>513</ele>
        <time>2019-05-22T20:51:03Z</time>
      </trkpt>
      <trkpt lat="44.20744" lon="3.29373">
        <ele>511</ele>
        <time>2019-05-22T20:51:06Z</time>
      </trkpt>
      <trkpt lat="44.20753" lon="3.2943">
        <ele>504</ele>
        <time>2019-05-22T20:51:14Z</time>
      </trkpt>
      <trkpt lat="44.20753" lon="3.29451">
        <ele>506</ele>
        <time>2019-05-22T20:51:16Z</time>
      </trkpt>
      <trkpt lat="44.20732" lon="3.29559">
        <ele>514</ele>
        <time>2019-05-22T20:51:31Z</time>
      </trkpt>
      <trkpt lat="44.20727" lon="3.29588">
        <ele>516</ele>
        <time>2019-05-22T20:51:34Z</time>
      </trkpt>
      <trkpt lat="44.20721" lon="3.2965">
        <ele>519</ele>
        <time>2019-05-22T20:51:42Z</time>
      </trkpt>
      <trkpt lat="44.20703" lon="3.29759">
        <ele>518</ele>
        <time>2019-05-22T20:51:57Z</time>
      </trkpt>
      <trkpt lat="44.20701" lon="3.29785">
        <ele>517</ele>
        <time>2019-05-22T20:52:00Z</time>
      </trkpt>
      <trkpt lat="44.20694" lon="3.29933">
        <ele>519</ele>
        <time>2019-05-22T20:52:19Z</time>
      </trkpt>
      <trkpt lat="44.20695" lon="3.2996">
        <ele>520</ele>
        <time>2019-05-22T20:52:22Z</time>
      </trkpt>
      <trkpt lat="44.20714" lon="3.30037">
        <ele>532</ele>
        <time>2019-05-22T20:52:33Z</time>
      </trkpt>
      <trkpt lat="44.20713" lon="3.30061">
        <ele>533</ele>
        <time>2019-05-22T20:52:36Z</time>
      </trkpt>
      <trkpt lat="44.20717" lon="3.30087">
        <ele>536</ele>
        <time>2019-05-22T20:52:39Z</time>
      </trkpt>
      <trkpt lat="44.20713" lon="3.30118">
        <ele>535</ele>
        <time>2019-05-22T20:52:43Z</time>
      </trkpt>
      <trkpt lat="44.20695" lon="3.30169">
        <ele>526</ele>
        <time>2019-05-22T20:52:50Z</time>
      </trkpt>
      <trkpt lat="44.20689" lon="3.30196">
        <ele>525</ele>
        <time>2019-05-22T20:52:54Z</time>
      </trkpt>
      <trkpt lat="44.20688" lon="3.30221">
        <ele>527</ele>
        <time>2019-05-22T20:52:57Z</time>
      </trkpt>
      <trkpt lat="44.20689" lon="3.30284">
        <ele>530</ele>
        <time>2019-05-22T20:53:05Z</time>
      </trkpt>
      <trkpt lat="44.20684" lon="3.30315">
        <ele>528</ele>
        <time>2019-05-22T20:53:09Z</time>
      </trkpt>
      <trkpt lat="44.20675" lon="3.30351">
        <ele>526</ele>
        <time>2019-05-22T20:53:14Z</time>
      </trkpt>
      <trkpt lat="44.20669" lon="3.30381">
        <ele>527</ele>
        <time>2019-05-22T20:53:18Z</time>
      </trkpt>
      <trkpt lat="44.20659" lon="3.30477">
        <ele>536</ele>
        <time>2019-05-22T20:53:30Z</time>
      </trkpt>
      <trkpt lat="44.20647" lon="3.30549">
        <ele>542</ele>
        <time>2019-05-22T20:53:40Z</time>
      </trkpt>
      <trkpt lat="44.2064" lon="3.30587">
        <ele>544</ele>
        <time>2019-05-22T20:53:45Z</time>
      </trkpt>
      <trkpt lat="44.20613" lon="3.3069">
        <ele>538</ele>
        <time>2019-05-22T20:53:59Z</time>
      </trkpt>
      <trkpt lat="44.20608" lon="3.30718">
        <ele>538</ele>
        <time>2019-05-22T20:54:03Z</time>
      </trkpt>
      <trkpt lat="44.206" lon="3.3081">
        <ele>549</ele>
        <time>2019-05-22T20:54:14Z</time>
      </trkpt>
      <trkpt lat="44.20593" lon="3.30838">
        <ele>551</ele>
        <time>2019-05-22T20:54:18Z</time>
      </trkpt>
      <trkpt lat="44.2058" lon="3.30865">
        <ele>551</ele>
        <time>2019-05-22T20:54:22Z</time>
      </trkpt>
      <trkpt lat="44.20562" lon="3.30893">
        <ele>553</ele>
        <time>2019-05-22T20:54:27Z</time>
      </trkpt>
      <trkpt lat="44.20546" lon="3.30925">
        <ele>552</ele>
        <time>2019-05-22T20:54:32Z</time>
      </trkpt>
      <trkpt lat="44.20531" lon="3.30968">
        <ele>550</ele>
        <time>2019-05-22T20:54:38Z</time>
      </trkpt>
      <trkpt lat="44.20518" lon="3.31014">
        <ele>549</ele>
        <time>2019-05-22T20:54:45Z</time>
      </trkpt>
      <trkpt lat="44.20482" lon="3.31188">
        <ele>567</ele>
        <time>2019-05-22T20:55:08Z</time>
      </trkpt>
      <trkpt lat="44.20472" lon="3.31221">
        <ele>568</ele>
        <time>2019-05-22T20:55:12Z</time>
      </trkpt>
      <trkpt lat="44.20459" lon="3.31253">
        <ele>567</ele>
        <time>2019-05-22T20:55:17Z</time>
      </trkpt>
      <trkpt lat="44.20398" lon="3.31355">
        <ele>568</ele>
        <time>2019-05-22T20:55:34Z</time>
      </trkpt>
      <trkpt lat="44.20376" lon="3.31384">
        <ele>571</ele>
        <time>2019-05-22T20:55:39Z</time>
      </trkpt>
      <trkpt lat="44.20358" lon="3.31405">
        <ele>571</ele>
        <time>2019-05-22T20:55:43Z</time>
      </trkpt>
      <trkpt lat="44.20277" lon="3.31478">
        <ele>564</ele>
        <time>2019-05-22T20:56:01Z</time>
      </trkpt>
      <trkpt lat="44.20265" lon="3.31492">
        <ele>561</ele>
        <time>2019-05-22T20:56:03Z</time>
      </trkpt>
      <trkpt lat="44.20253" lon="3.31511">
        <ele>562</ele>
        <time>2019-05-22T20:56:07Z</time>
      </trkpt>
      <trkpt lat="44.20239" lon="3.31537">
        <ele>571</ele>
        <time>2019-05-22T20:56:11Z</time>
      </trkpt>
      <trkpt lat="44.2021" lon="3.31583">
        <ele>577</ele>
        <time>2019-05-22T20:56:19Z</time>
      </trkpt>
      <trkpt lat="44.20181" lon="3.31648">
        <ele>584</ele>
        <time>2019-05-22T20:56:28Z</time>
      </trkpt>
      <trkpt lat="44.20131" lon="3.3173">
        <ele>584</ele>
        <time>2019-05-22T20:56:42Z</time>
      </trkpt>
      <trkpt lat="44.20123" lon="3.31749">
        <ele>584</ele>
        <time>2019-05-22T20:56:45Z</time>
      </trkpt>
      <trkpt lat="44.20118" lon="3.31772">
        <ele>584</ele>
        <time>2019-05-22T20:56:48Z</time>
      </trkpt>
      <trkpt lat="44.20117" lon="3.31797">
        <ele>586</ele>
        <time>2019-05-22T20:56:51Z</time>
      </trkpt>
      <trkpt lat="44.20122" lon="3.31838">
        <ele>593</ele>
        <time>2019-05-22T20:56:56Z</time>
      </trkpt>
      <trkpt lat="44.20123" lon="3.31867">
        <ele>594</ele>
        <time>2019-05-22T20:57:00Z</time>
      </trkpt>
      <trkpt lat="44.20121" lon="3.31931">
        <ele>592</ele>
        <time>2019-05-22T20:57:08Z</time>
      </trkpt>
      <trkpt lat="44.20128" lon="3.32014">
        <ele>592</ele>
        <time>2019-05-22T20:57:19Z</time>
      </trkpt>
      <trkpt lat="44.20141" lon="3.32079">
        <ele>595</ele>
        <time>2019-05-22T20:57:28Z</time>
      </trkpt>
      <trkpt lat="44.20149" lon="3.32111">
        <ele>596</ele>
        <time>2019-05-22T20:57:32Z</time>
      </trkpt>
      <trkpt lat="44.20158" lon="3.32177">
        <ele>595</ele>
        <time>2019-05-22T20:57:40Z</time>
      </trkpt>
      <trkpt lat="44.20167" lon="3.32219">
        <ele>594</ele>
        <time>2019-05-22T20:57:46Z</time>
      </trkpt>
      <trkpt lat="44.20179" lon="3.32254">
        <ele>599</ele>
        <time>2019-05-22T20:57:51Z</time>
      </trkpt>
      <trkpt lat="44.20191" lon="3.3228">
        <ele>602</ele>
        <time>2019-05-22T20:57:55Z</time>
      </trkpt>
      <trkpt lat="44.20205" lon="3.32301">
        <ele>607</ele>
        <time>2019-05-22T20:57:59Z</time>
      </trkpt>
      <trkpt lat="44.20216" lon="3.32325">
        <ele>610</ele>
        <time>2019-05-22T20:58:02Z</time>
      </trkpt>
      <trkpt lat="44.2024" lon="3.32394">
        <ele>602</ele>
        <time>2019-05-22T20:58:12Z</time>
      </trkpt>
      <trkpt lat="44.20253" lon="3.32425">
        <ele>599</ele>
        <time>2019-05-22T20:58:17Z</time>
      </trkpt>
      <trkpt lat="44.20321" lon="3.32572">
        <ele>614</ele>
        <time>2019-05-22T20:58:39Z</time>
      </trkpt>
      <trkpt lat="44.20331" lon="3.32601">
        <ele>609</ele>
        <time>2019-05-22T20:58:43Z</time>
      </trkpt>
      <trkpt lat="44.20366" lon="3.32779">
        <ele>615</ele>
        <time>2019-05-22T20:59:07Z</time>
      </trkpt>
      <trkpt lat="44.2037" lon="3.32812">
        <ele>618</ele>
        <time>2019-05-22T20:59:11Z</time>
      </trkpt>
      <trkpt lat="44.20372" lon="3.32844">
        <ele>619</ele>
        <time>2019-05-22T20:59:15Z</time>
      </trkpt>
      <trkpt lat="44.20371" lon="3.32888">
        <ele>615</ele>
        <time>2019-05-22T20:59:21Z</time>
      </trkpt>
      <trkpt lat="44.20373" lon="3.32918">
        <ele>614</ele>
        <time>2019-05-22T20:59:24Z</time>
      </trkpt>
      <trkpt lat="44.20381" lon="3.32951">
        <ele>613</ele>
        <time>2019-05-22T20:59:29Z</time>
      </trkpt>
      <trkpt lat="44.20413" lon="3.33039">
        <ele>610</ele>
        <time>2019-05-22T20:59:41Z</time>
      </trkpt>
      <trkpt lat="44.20421" lon="3.33068">
        <ele>610</ele>
        <time>2019-05-22T20:59:45Z</time>
      </trkpt>
      <trkpt lat="44.20427" lon="3.331">
        <ele>612</ele>
        <time>2019-05-22T20:59:50Z</time>
      </trkpt>
      <trkpt lat="44.20448" lon="3.33273">
        <ele>618</ele>
        <time>2019-05-22T21:00:12Z</time>
      </trkpt>
      <trkpt lat="44.20454" lon="3.33309">
        <ele>619</ele>
        <time>2019-05-22T21:00:17Z</time>
      </trkpt>
      <trkpt lat="44.2047" lon="3.3337">
        <ele>625</ele>
        <time>2019-05-22T21:00:25Z</time>
      </trkpt>
      <trkpt lat="44.20475" lon="3.33399">
        <ele>627</ele>
        <time>2019-05-22T21:00:29Z</time>
      </trkpt>
      <trkpt lat="44.20487" lon="3.33517">
        <ele>626</ele>
        <time>2019-05-22T21:00:44Z</time>
      </trkpt>
      <trkpt lat="44.20486" lon="3.33554">
        <ele>628</ele>
        <time>2019-05-22T21:00:49Z</time>
      </trkpt>
      <trkpt lat="44.20479" lon="3.33589">
        <ele>627</ele>
        <time>2019-05-22T21:00:53Z</time>
      </trkpt>
      <trkpt lat="44.20463" lon="3.33623">
        <ele>624</ele>
        <time>2019-05-22T21:00:58Z</time>
      </trkpt>
      <trkpt lat="44.20432" lon="3.33679">
        <ele>613</ele>
        <time>2019-05-22T21:01:08Z</time>
      </trkpt>
      <trkpt lat="44.20398" lon="3.33745">
        <ele>618</ele>
        <time>2019-05-22T21:01:18Z</time>
      </trkpt>
      <trkpt lat="44.20381" lon="3.33784">
        <ele>618</ele>
        <time>2019-05-22T21:01:24Z</time>
      </trkpt>
      <trkpt lat="44.20369" lon="3.33824">
        <ele>617</ele>
        <time>2019-05-22T21:01:29Z</time>
      </trkpt>
      <trkpt lat="44.20363" lon="3.33861">
        <ele>617</ele>
        <time>2019-05-22T21:01:34Z</time>
      </trkpt>
      <trkpt lat="44.20355" lon="3.33902">
        <ele>615</ele>
        <time>2019-05-22T21:01:39Z</time>
      </trkpt>
      <trkpt lat="44.20344" lon="3.33941">
        <ele>616</ele>
        <time>2019-05-22T21:01:45Z</time>
      </trkpt>
      <trkpt lat="44.20329" lon="3.33977">
        <ele>618</ele>
        <time>2019-05-22T21:01:50Z</time>
      </trkpt>
      <trkpt lat="44.20313" lon="3.34004">
        <ele>619</ele>
        <time>2019-05-22T21:01:55Z</time>
      </trkpt>
      <trkpt lat="44.20267" lon="3.34064">
        <ele>614</ele>
        <time>2019-05-22T21:02:06Z</time>
      </trkpt>
      <trkpt lat="44.20248" lon="3.34093">
        <ele>611</ele>
        <time>2019-05-22T21:02:11Z</time>
      </trkpt>
      <trkpt lat="44.20232" lon="3.34124">
        <ele>616</ele>
        <time>2019-05-22T21:02:16Z</time>
      </trkpt>
      <trkpt lat="44.20222" lon="3.34158">
        <ele>620</ele>
        <time>2019-05-22T21:02:20Z</time>
      </trkpt>
      <trkpt lat="44.20213" lon="3.34197">
        <ele>624</ele>
        <time>2019-05-22T21:02:26Z</time>
      </trkpt>
      <trkpt lat="44.20202" lon="3.34252">
        <ele>627</ele>
        <time>2019-05-22T21:02:33Z</time>
      </trkpt>
      <trkpt lat="44.20195" lon="3.34334">
        <ele>625</ele>
        <time>2019-05-22T21:02:43Z</time>
      </trkpt>
      <trkpt lat="44.20189" lon="3.34366">
        <ele>623</ele>
        <time>2019-05-22T21:02:48Z</time>
      </trkpt>
      <trkpt lat="44.20182" lon="3.34395">
        <ele>621</ele>
        <time>2019-05-22T21:02:52Z</time>
      </trkpt>
      <trkpt lat="44.20159" lon="3.34475">
        <ele>624</ele>
        <time>2019-05-22T21:03:03Z</time>
      </trkpt>
      <trkpt lat="44.20149" lon="3.34522">
        <ele>630</ele>
        <time>2019-05-22T21:03:09Z</time>
      </trkpt>
      <trkpt lat="44.20144" lon="3.34562">
        <ele>634</ele>
        <time>2019-05-22T21:03:14Z</time>
      </trkpt>
      <trkpt lat="44.20142" lon="3.34594">
        <ele>635</ele>
        <time>2019-05-22T21:03:18Z</time>
      </trkpt>
      <trkpt lat="44.20144" lon="3.34643">
        <ele>634</ele>
        <time>2019-05-22T21:03:24Z</time>
      </trkpt>
      <trkpt lat="44.20149" lon="3.34695">
        <ele>632</ele>
        <time>2019-05-22T21:03:31Z</time>
      </trkpt>
      <trkpt lat="44.20157" lon="3.34751">
        <ele>629</ele>
        <time>2019-05-22T21:03:38Z</time>
      </trkpt>
      <trkpt lat="44.20165" lon="3.34788">
        <ele>626</ele>
        <time>2019-05-22T21:03:43Z</time>
      </trkpt>
      <trkpt lat="44.20176" lon="3.34821">
        <ele>627</ele>
        <time>2019-05-22T21:03:48Z</time>
      </trkpt>
      <trkpt lat="44.20187" lon="3.34837">
        <ele>631</ele>
        <time>2019-05-22T21:03:51Z</time>
      </trkpt>
      <trkpt lat="44.20215" lon="3.34868">
        <ele>639</ele>
        <time>2019-05-22T21:03:57Z</time>
      </trkpt>
      <trkpt lat="44.20228" lon="3.34887">
        <ele>641</ele>
        <time>2019-05-22T21:04:00Z</time>
      </trkpt>
      <trkpt lat="44.20236" lon="3.34907">
        <ele>640</ele>
        <time>2019-05-22T21:04:03Z</time>
      </trkpt>
      <trkpt lat="44.20242" lon="3.34927">
        <ele>639</ele>
        <time>2019-05-22T21:04:06Z</time>
      </trkpt>
      <trkpt lat="44.20242" lon="3.34951">
        <ele>636</ele>
        <time>2019-05-22T21:04:09Z</time>
      </trkpt>
      <trkpt lat="44.20238" lon="3.3498">
        <ele>631</ele>
        <time>2019-05-22T21:04:13Z</time>
      </trkpt>
      <trkpt lat="44.2023" lon="3.35007">
        <ele>627</ele>
        <time>2019-05-22T21:04:17Z</time>
      </trkpt>
      <trkpt lat="44.20217" lon="3.35038">
        <ele>626</ele>
        <time>2019-05-22T21:04:21Z</time>
      </trkpt>
      <trkpt lat="44.20204" lon="3.35063">
        <ele>623</ele>
        <time>2019-05-22T21:04:25Z</time>
      </trkpt>
      <trkpt lat="44.20195" lon="3.35089">
        <ele>620</ele>
        <time>2019-05-22T21:04:29Z</time>
      </trkpt>
      <trkpt lat="44.20182" lon="3.35139">
        <ele>617</ele>
        <time>2019-05-22T21:04:36Z</time>
      </trkpt>
      <trkpt lat="44.20178" lon="3.35163">
        <ele>617</ele>
        <time>2019-05-22T21:04:39Z</time>
      </trkpt>
      <trkpt lat="44.20178" lon="3.35185">
        <ele>616</ele>
        <time>2019-05-22T21:04:42Z</time>
      </trkpt>
      <trkpt lat="44.20181" lon="3.35208">
        <ele>617</ele>
        <time>2019-05-22T21:04:45Z</time>
      </trkpt>
      <trkpt lat="44.20205" lon="3.35263">
        <ele>624</ele>
        <time>2019-05-22T21:04:53Z</time>
      </trkpt>
      <trkpt lat="44.20228" lon="3.35309">
        <ele>626</ele>
        <time>2019-05-22T21:05:00Z</time>
      </trkpt>
      <trkpt lat="44.20235" lon="3.35333">
        <ele>624</ele>
        <time>2019-05-22T21:05:03Z</time>
      </trkpt>
      <trkpt lat="44.20236" lon="3.35358">
        <ele>624</ele>
        <time>2019-05-22T21:05:06Z</time>
      </trkpt>
      <trkpt lat="44.20232" lon="3.35398">
        <ele>624</ele>
        <time>2019-05-22T21:05:12Z</time>
      </trkpt>
      <trkpt lat="44.20224" lon="3.35437">
        <ele>626</ele>
        <time>2019-05-22T21:05:17Z</time>
      </trkpt>
      <trkpt lat="44.20213" lon="3.35476">
        <ele>629</ele>
        <time>2019-05-22T21:05:22Z</time>
      </trkpt>
      <trkpt lat="44.20195" lon="3.35516">
        <ele>627</ele>
        <time>2019-05-22T21:05:28Z</time>
      </trkpt>
      <trkpt lat="44.20161" lon="3.35577">
        <ele>623</ele>
        <time>2019-05-22T21:05:38Z</time>
      </trkpt>
      <trkpt lat="44.20152" lon="3.35601">
        <ele>625</ele>
        <time>2019-05-22T21:05:41Z</time>
      </trkpt>
      <trkpt lat="44.20147" lon="3.35634">
        <ele>626</ele>
        <time>2019-05-22T21:05:46Z</time>
      </trkpt>
      <trkpt lat="44.20144" lon="3.35687">
        <ele>627</ele>
        <time>2019-05-22T21:05:53Z</time>
      </trkpt>
      <trkpt lat="44.20153" lon="3.35801">
        <ele>630</ele>
        <time>2019-05-22T21:06:07Z</time>
      </trkpt>
      <trkpt lat="44.2016" lon="3.3585">
        <ele>630</ele>
        <time>2019-05-22T21:06:14Z</time>
      </trkpt>
      <trkpt lat="44.20186" lon="3.35969">
        <ele>637</ele>
        <time>2019-05-22T21:06:29Z</time>
      </trkpt>
      <trkpt lat="44.20192" lon="3.36015">
        <ele>640</ele>
        <time>2019-05-22T21:06:35Z</time>
      </trkpt>
      <trkpt lat="44.20192" lon="3.36037">
        <ele>640</ele>
        <time>2019-05-22T21:06:38Z</time>
      </trkpt>
      <trkpt lat="44.20183" lon="3.361">
        <ele>636</ele>
        <time>2019-05-22T21:06:46Z</time>
      </trkpt>
      <trkpt lat="44.20186" lon="3.36128">
        <ele>639</ele>
        <time>2019-05-22T21:06:50Z</time>
      </trkpt>
      <trkpt lat="44.20203" lon="3.36204">
        <ele>646</ele>
        <time>2019-05-22T21:07:00Z</time>
      </trkpt>
      <trkpt lat="44.20204" lon="3.36239">
        <ele>645</ele>
        <time>2019-05-22T21:07:05Z</time>
      </trkpt>
      <trkpt lat="44.20202" lon="3.36278">
        <ele>645</ele>
        <time>2019-05-22T21:07:10Z</time>
      </trkpt>
      <trkpt lat="44.20195" lon="3.36323">
        <ele>643</ele>
        <time>2019-05-22T21:07:15Z</time>
      </trkpt>
      <trkpt lat="44.20195" lon="3.36363">
        <ele>643</ele>
        <time>2019-05-22T21:07:21Z</time>
      </trkpt>
      <trkpt lat="44.20202" lon="3.36464">
        <ele>645</ele>
        <time>2019-05-22T21:07:34Z</time>
      </trkpt>
      <trkpt lat="44.20201" lon="3.36579">
        <ele>649</ele>
        <time>2019-05-22T21:07:48Z</time>
      </trkpt>
      <trkpt lat="44.2018" lon="3.36801">
        <ele>652</ele>
        <time>2019-05-22T21:08:17Z</time>
      </trkpt>
      <trkpt lat="44.20161" lon="3.36873">
        <ele>653</ele>
        <time>2019-05-22T21:08:27Z</time>
      </trkpt>
      <trkpt lat="44.20131" lon="3.3695">
        <ele>654</ele>
        <time>2019-05-22T21:08:38Z</time>
      </trkpt>
      <trkpt lat="44.20126" lon="3.36975">
        <ele>654</ele>
        <time>2019-05-22T21:08:41Z</time>
      </trkpt>
      <trkpt lat="44.20117" lon="3.37047">
        <ele>658</ele>
        <time>2019-05-22T21:08:50Z</time>
      </trkpt>
      <trkpt lat="44.20107" lon="3.37082">
        <ele>657</ele>
        <time>2019-05-22T21:08:55Z</time>
      </trkpt>
      <trkpt lat="44.20097" lon="3.3711">
        <ele>653</ele>
        <time>2019-05-22T21:08:59Z</time>
      </trkpt>
      <trkpt lat="44.20088" lon="3.37144">
        <ele>651</ele>
        <time>2019-05-22T21:09:04Z</time>
      </trkpt>
      <trkpt lat="44.20083" lon="3.37177">
        <ele>651</ele>
        <time>2019-05-22T21:09:08Z</time>
      </trkpt>
      <trkpt lat="44.20082" lon="3.3721">
        <ele>655</ele>
        <time>2019-05-22T21:09:12Z</time>
      </trkpt>
      <trkpt lat="44.20078" lon="3.37243">
        <ele>658</ele>
        <time>2019-05-22T21:09:17Z</time>
      </trkpt>
      <trkpt lat="44.20072" lon="3.37277">
        <ele>663</ele>
        <time>2019-05-22T21:09:21Z</time>
      </trkpt>
      <trkpt lat="44.20062" lon="3.37308">
        <ele>665</ele>
        <time>2019-05-22T21:09:25Z</time>
      </trkpt>
      <trkpt lat="44.20047" lon="3.37338">
        <ele>663</ele>
        <time>2019-05-22T21:09:30Z</time>
      </trkpt>
      <trkpt lat="44.20035" lon="3.37367">
        <ele>662</ele>
        <time>2019-05-22T21:09:34Z</time>
      </trkpt>
      <trkpt lat="44.20021" lon="3.37405">
        <ele>661</ele>
        <time>2019-05-22T21:09:40Z</time>
      </trkpt>
      <trkpt lat="44.20008" lon="3.37474">
        <ele>660</ele>
        <time>2019-05-22T21:09:49Z</time>
      </trkpt>
      <trkpt lat="44.20006" lon="3.37502">
        <ele>661</ele>
        <time>2019-05-22T21:09:52Z</time>
      </trkpt>
      <trkpt lat="44.20008" lon="3.37617">
        <ele>664</ele>
        <time>2019-05-22T21:10:07Z</time>
      </trkpt>
      <trkpt lat="44.20005" lon="3.37713">
        <ele>663</ele>
        <time>2019-05-22T21:10:19Z</time>
      </trkpt>
      <trkpt lat="44.20008" lon="3.37811">
        <ele>666</ele>
        <time>2019-05-22T21:10:32Z</time>
      </trkpt>
      <trkpt lat="44.20005" lon="3.37858">
        <ele>666</ele>
        <time>2019-05-22T21:10:38Z</time>
      </trkpt>
      <trkpt lat="44.19992" lon="3.37954">
        <ele>668</ele>
        <time>2019-05-22T21:10:50Z</time>
      </trkpt>
      <trkpt lat="44.19988" lon="3.38006">
        <ele>669</ele>
        <time>2019-05-22T21:10:57Z</time>
      </trkpt>
      <trkpt lat="44.19988" lon="3.38056">
        <ele>670</ele>
        <time>2019-05-22T21:11:03Z</time>
      </trkpt>
      <trkpt lat="44.20004" lon="3.38241">
        <ele>671</ele>
        <time>2019-05-22T21:11:27Z</time>
      </trkpt>
      <trkpt lat="44.2001" lon="3.38347">
        <ele>671</ele>
        <time>2019-05-22T21:11:41Z</time>
      </trkpt>
      <trkpt lat="44.20008" lon="3.38398">
        <ele>670</ele>
        <time>2019-05-22T21:11:47Z</time>
      </trkpt>
      <trkpt lat="44.20002" lon="3.38448">
        <ele>671</ele>
        <time>2019-05-22T21:11:54Z</time>
      </trkpt>
      <trkpt lat="44.19994" lon="3.38497">
        <ele>675</ele>
        <time>2019-05-22T21:12:00Z</time>
      </trkpt>
      <trkpt lat="44.19981" lon="3.38543">
        <ele>679</ele>
        <time>2019-05-22T21:12:06Z</time>
      </trkpt>
      <trkpt lat="44.19965" lon="3.38589">
        <ele>680</ele>
        <time>2019-05-22T21:12:13Z</time>
      </trkpt>
      <trkpt lat="44.19931" lon="3.38672">
        <ele>677</ele>
        <time>2019-05-22T21:12:25Z</time>
      </trkpt>
      <trkpt lat="44.19892" lon="3.38804">
        <ele>686</ele>
        <time>2019-05-22T21:12:43Z</time>
      </trkpt>
      <trkpt lat="44.19879" lon="3.38838">
        <ele>688</ele>
        <time>2019-05-22T21:12:48Z</time>
      </trkpt>
      <trkpt lat="44.19862" lon="3.3887">
        <ele>687</ele>
        <time>2019-05-22T21:12:53Z</time>
      </trkpt>
      <trkpt lat="44.19814" lon="3.38934">
        <ele>679</ele>
        <time>2019-05-22T21:13:05Z</time>
      </trkpt>
      <trkpt lat="44.1978" lon="3.39005">
        <ele>684</ele>
        <time>2019-05-22T21:13:16Z</time>
      </trkpt>
      <trkpt lat="44.19751" lon="3.3905">
        <ele>680</ele>
        <time>2019-05-22T21:13:24Z</time>
      </trkpt>
      <trkpt lat="44.19728" lon="3.39077">
        <ele>680</ele>
        <time>2019-05-22T21:13:29Z</time>
      </trkpt>
      <trkpt lat="44.19701" lon="3.39104">
        <ele>679</ele>
        <time>2019-05-22T21:13:35Z</time>
      </trkpt>
      <trkpt lat="44.19657" lon="3.39151">
        <ele>677</ele>
        <time>2019-05-22T21:13:45Z</time>
      </trkpt>
      <trkpt lat="44.19627" lon="3.39189">
        <ele>679</ele>
        <time>2019-05-22T21:13:52Z</time>
      </trkpt>
      <trkpt lat="44.19604" lon="3.39228">
        <ele>680</ele>
        <time>2019-05-22T21:13:59Z</time>
      </trkpt>
      <trkpt lat="44.19594" lon="3.39252">
        <ele>679</ele>
        <time>2019-05-22T21:14:02Z</time>
      </trkpt>
      <trkpt lat="44.19587" lon="3.39279">
        <ele>679</ele>
        <time>2019-05-22T21:14:06Z</time>
      </trkpt>
      <trkpt lat="44.19583" lon="3.39317">
        <ele>681</ele>
        <time>2019-05-22T21:14:11Z</time>
      </trkpt>
      <trkpt lat="44.19585" lon="3.39404">
        <ele>683</ele>
        <time>2019-05-22T21:14:22Z</time>
      </trkpt>
      <trkpt lat="44.19597" lon="3.39512">
        <ele>688</ele>
        <time>2019-05-22T21:14:36Z</time>
      </trkpt>
      <trkpt lat="44.19596" lon="3.39544">
        <ele>688</ele>
        <time>2019-05-22T21:14:40Z</time>
      </trkpt>
      <trkpt lat="44.19589" lon="3.39579">
        <ele>685</ele>
        <time>2019-05-22T21:14:44Z</time>
      </trkpt>
      <trkpt lat="44.19575" lon="3.39622">
        <ele>686</ele>
        <time>2019-05-22T21:14:50Z</time>
      </trkpt>
      <trkpt lat="44.1956" lon="3.39649">
        <ele>687</ele>
        <time>2019-05-22T21:14:55Z</time>
      </trkpt>
      <trkpt lat="44.19472" lon="3.39774">
        <ele>685</ele>
        <time>2019-05-22T21:15:17Z</time>
      </trkpt>
      <trkpt lat="44.19461" lon="3.39798">
        <ele>687</ele>
        <time>2019-05-22T21:15:21Z</time>
      </trkpt>
      <trkpt lat="44.19457" lon="3.39822">
        <ele>690</ele>
        <time>2019-05-22T21:15:24Z</time>
      </trkpt>
      <trkpt lat="44.19457" lon="3.39852">
        <ele>692</ele>
        <time>2019-05-22T21:15:28Z</time>
      </trkpt>
      <trkpt lat="44.19468" lon="3.40031">
        <ele>697</ele>
        <time>2019-05-22T21:15:51Z</time>
      </trkpt>
      <trkpt lat="44.19468" lon="3.40056">
        <ele>700</ele>
        <time>2019-05-22T21:15:54Z</time>
      </trkpt>
      <trkpt lat="44.19463" lon="3.40076">
        <ele>700</ele>
        <time>2019-05-22T21:15:57Z</time>
      </trkpt>
      <trkpt lat="44.19455" lon="3.40093">
        <ele>698</ele>
        <time>2019-05-22T21:15:59Z</time>
      </trkpt>
      <trkpt lat="44.19397" lon="3.40174">
        <ele>687</ele>
        <time>2019-05-22T21:16:14Z</time>
      </trkpt>
      <trkpt lat="44.19375" lon="3.40211">
        <ele>690</ele>
        <time>2019-05-22T21:16:20Z</time>
      </trkpt>
      <trkpt lat="44.19364" lon="3.40238">
        <ele>690</ele>
        <time>2019-05-22T21:16:24Z</time>
      </trkpt>
      <trkpt lat="44.19356" lon="3.40271">
        <ele>691</ele>
        <time>2019-05-22T21:16:28Z</time>
      </trkpt>
      <trkpt lat="44.19352" lon="3.40305">
        <ele>693</ele>
        <time>2019-05-22T21:16:33Z</time>
      </trkpt>
      <trkpt lat="44.19351" lon="3.40365">
        <ele>696</ele>
        <time>2019-05-22T21:16:40Z</time>
      </trkpt>
      <trkpt lat="44.19357" lon="3.40444">
        <ele>700</ele>
        <time>2019-05-22T21:16:51Z</time>
      </trkpt>
      <trkpt lat="44.19356" lon="3.4049">
        <ele>699</ele>
        <time>2019-05-22T21:16:56Z</time>
      </trkpt>
      <trkpt lat="44.19359" lon="3.40528">
        <ele>701</ele>
        <time>2019-05-22T21:17:01Z</time>
      </trkpt>
      <trkpt lat="44.19363" lon="3.40562">
        <ele>703</ele>
        <time>2019-05-22T21:17:06Z</time>
      </trkpt>
      <trkpt lat="44.19365" lon="3.40627">
        <ele>703</ele>
        <time>2019-05-22T21:17:14Z</time>
      </trkpt>
      <trkpt lat="44.19363" lon="3.40653">
        <ele>701</ele>
        <time>2019-05-22T21:17:17Z</time>
      </trkpt>
      <trkpt lat="44.19354" lon="3.40701">
        <ele>698</ele>
        <time>2019-05-22T21:17:24Z</time>
      </trkpt>
      <trkpt lat="44.19344" lon="3.40717">
        <ele>693</ele>
        <time>2019-05-22T21:17:26Z</time>
      </trkpt>
      <trkpt lat="44.19304" lon="3.40768">
        <ele>693</ele>
        <time>2019-05-22T21:17:36Z</time>
      </trkpt>
      <trkpt lat="44.19276" lon="3.408">
        <ele>695</ele>
        <time>2019-05-22T21:17:42Z</time>
      </trkpt>
      <trkpt lat="44.19224" lon="3.40852">
        <ele>695</ele>
        <time>2019-05-22T21:17:54Z</time>
      </trkpt>
      <trkpt lat="44.19196" lon="3.40897">
        <ele>699</ele>
        <time>2019-05-22T21:18:01Z</time>
      </trkpt>
      <trkpt lat="44.19178" lon="3.40933">
        <ele>697</ele>
        <time>2019-05-22T21:18:07Z</time>
      </trkpt>
      <trkpt lat="44.19097" lon="3.41118">
        <ele>697</ele>
        <time>2019-05-22T21:18:35Z</time>
      </trkpt>
      <trkpt lat="44.19087" lon="3.41154">
        <ele>695</ele>
        <time>2019-05-22T21:18:40Z</time>
      </trkpt>
      <trkpt lat="44.19083" lon="3.4119">
        <ele>697</ele>
        <time>2019-05-22T21:18:44Z</time>
      </trkpt>
      <trkpt lat="44.1905" lon="3.41324">
        <ele>702</ele>
        <time>2019-05-22T21:19:02Z</time>
      </trkpt>
      <trkpt lat="44.19033" lon="3.41372">
        <ele>701</ele>
        <time>2019-05-22T21:19:09Z</time>
      </trkpt>
      <trkpt lat="44.1899" lon="3.41468">
        <ele>698</ele>
        <time>2019-05-22T21:19:24Z</time>
      </trkpt>
      <trkpt lat="44.1897" lon="3.41524">
        <ele>703</ele>
        <time>2019-05-22T21:19:32Z</time>
      </trkpt>
      <trkpt lat="44.18958" lon="3.41551">
        <ele>704</ele>
        <time>2019-05-22T21:19:36Z</time>
      </trkpt>
      <trkpt lat="44.18917" lon="3.41589">
        <ele>697</ele>
        <time>2019-05-22T21:19:44Z</time>
      </trkpt>
      <trkpt lat="44.18901" lon="3.41595">
        <ele>700</ele>
        <time>2019-05-22T21:19:47Z</time>
      </trkpt>
      <trkpt lat="44.18746" lon="3.41599">
        <ele>702</ele>
        <time>2019-05-22T21:20:15Z</time>
      </trkpt>
      <trkpt lat="44.18727" lon="3.41605">
        <ele>703</ele>
        <time>2019-05-22T21:20:18Z</time>
      </trkpt>
      <trkpt lat="44.18719" lon="3.4161">
        <ele>703</ele>
        <time>2019-05-22T21:20:20Z</time>
      </trkpt>
      <trkpt lat="44.18713" lon="3.41619">
        <ele>705</ele>
        <time>2019-05-22T21:20:21Z</time>
      </trkpt>
      <trkpt lat="44.18695" lon="3.41667">
        <ele>708</ele>
        <time>2019-05-22T21:20:28Z</time>
      </trkpt>
      <trkpt lat="44.18679" lon="3.417">
        <ele>708</ele>
        <time>2019-05-22T21:20:33Z</time>
      </trkpt>
      <trkpt lat="44.18667" lon="3.4173">
        <ele>707</ele>
        <time>2019-05-22T21:20:38Z</time>
      </trkpt>
      <trkpt lat="44.18564" lon="3.42102">
        <ele>715</ele>
        <time>2019-05-22T21:21:29Z</time>
      </trkpt>
      <trkpt lat="44.18552" lon="3.42135">
        <ele>717</ele>
        <time>2019-05-22T21:21:33Z</time>
      </trkpt>
      <trkpt lat="44.18529" lon="3.4219">
        <ele>718</ele>
        <time>2019-05-22T21:21:42Z</time>
      </trkpt>
      <trkpt lat="44.18517" lon="3.42213">
        <ele>717</ele>
        <time>2019-05-22T21:21:45Z</time>
      </trkpt>
      <trkpt lat="44.18505" lon="3.4223">
        <ele>715</ele>
        <time>2019-05-22T21:21:48Z</time>
      </trkpt>
      <trkpt lat="44.18445" lon="3.42298">
        <ele>716</ele>
        <time>2019-05-22T21:22:02Z</time>
      </trkpt>
      <trkpt lat="44.18307" lon="3.42401">
        <ele>707</ele>
        <time>2019-05-22T21:22:30Z</time>
      </trkpt>
      <trkpt lat="44.18262" lon="3.42444">
        <ele>706</ele>
        <time>2019-05-22T21:22:40Z</time>
      </trkpt>
      <trkpt lat="44.18244" lon="3.42464">
        <ele>706</ele>
        <time>2019-05-22T21:22:44Z</time>
      </trkpt>
      <trkpt lat="44.18186" lon="3.42537">
        <ele>705</ele>
        <time>2019-05-22T21:22:58Z</time>
      </trkpt>
      <trkpt lat="44.18144" lon="3.42582">
        <ele>703</ele>
        <time>2019-05-22T21:23:07Z</time>
      </trkpt>
      <trkpt lat="44.18129" lon="3.42604">
        <ele>707</ele>
        <time>2019-05-22T21:23:11Z</time>
      </trkpt>
      <trkpt lat="44.18086" lon="3.42686">
        <ele>703</ele>
        <time>2019-05-22T21:23:24Z</time>
      </trkpt>
      <trkpt lat="44.18059" lon="3.42751">
        <ele>705</ele>
        <time>2019-05-22T21:23:33Z</time>
      </trkpt>
      <trkpt lat="44.18038" lon="3.4282">
        <ele>706</ele>
        <time>2019-05-22T21:23:43Z</time>
      </trkpt>
      <trkpt lat="44.18033" lon="3.42826">
        <ele>705</ele>
        <time>2019-05-22T21:23:44Z</time>
      </trkpt>
      <trkpt lat="44.17996" lon="3.42824">
        <ele>705</ele>
        <time>2019-05-22T21:23:51Z</time>
      </trkpt>
      <trkpt lat="44.17989" lon="3.42829">
        <ele>706</ele>
        <time>2019-05-22T21:23:52Z</time>
      </trkpt>
      <trkpt lat="44.17972" lon="3.42847">
        <ele>707</ele>
        <time>2019-05-22T21:23:56Z</time>
      </trkpt>
      <trkpt lat="44.17967" lon="3.42856">
        <ele>706</ele>
        <time>2019-05-22T21:23:57Z</time>
      </trkpt>
      <trkpt lat="44.17959" lon="3.42859">
        <ele>707</ele>
        <time>2019-05-22T21:23:59Z</time>
      </trkpt>
      <trkpt lat="44.17931" lon="3.42882">
        <ele>708</ele>
        <time>2019-05-22T21:24:05Z</time>
      </trkpt>
      <trkpt lat="44.17914" lon="3.42886">
        <ele>709</ele>
        <time>2019-05-22T21:24:08Z</time>
      </trkpt>
      <trkpt lat="44.17892" lon="3.42888">
        <ele>708</ele>
        <time>2019-05-22T21:24:12Z</time>
      </trkpt>
      <trkpt lat="44.17886" lon="3.42887">
        <ele>708</ele>
        <time>2019-05-22T21:24:13Z</time>
      </trkpt>
      <trkpt lat="44.17856" lon="3.42867">
        <ele>710</ele>
        <time>2019-05-22T21:24:19Z</time>
      </trkpt>
      <trkpt lat="44.17855" lon="3.42857">
        <ele>711</ele>
        <time>2019-05-22T21:24:20Z</time>
      </trkpt>
      <trkpt lat="44.17832" lon="3.42841">
        <ele>711</ele>
        <time>2019-05-22T21:24:24Z</time>
      </trkpt>
      <trkpt lat="44.17813" lon="3.42839">
        <ele>711</ele>
        <time>2019-05-22T21:24:28Z</time>
      </trkpt>
      <trkpt lat="44.1779" lon="3.42826">
        <ele>712</ele>
        <time>2019-05-22T21:24:32Z</time>
      </trkpt>
      <trkpt lat="44.17779" lon="3.42832">
        <ele>710</ele>
        <time>2019-05-22T21:24:34Z</time>
      </trkpt>
      <trkpt lat="44.17776" lon="3.42837">
        <ele>710</ele>
        <time>2019-05-22T21:24:35Z</time>
      </trkpt>
      <trkpt lat="44.17769" lon="3.42836">
        <ele>710</ele>
        <time>2019-05-22T21:24:36Z</time>
      </trkpt>
      <trkpt lat="44.17745" lon="3.42838">
        <ele>709</ele>
        <time>2019-05-22T21:24:41Z</time>
      </trkpt>
      <trkpt lat="44.17725" lon="3.42843">
        <ele>709</ele>
        <time>2019-05-22T21:24:44Z</time>
      </trkpt>
      <trkpt lat="44.17702" lon="3.42854">
        <ele>709</ele>
        <time>2019-05-22T21:24:49Z</time>
      </trkpt>
      <trkpt lat="44.17661" lon="3.42884">
        <ele>709</ele>
        <time>2019-05-22T21:24:57Z</time>
      </trkpt>
      <trkpt lat="44.1762" lon="3.42905">
        <ele>711</ele>
        <time>2019-05-22T21:25:05Z</time>
      </trkpt>
      <trkpt lat="44.17417" lon="3.42955">
        <ele>718</ele>
        <time>2019-05-22T21:25:41Z</time>
      </trkpt>
      <trkpt lat="44.17401" lon="3.42964">
        <ele>718</ele>
        <time>2019-05-22T21:25:44Z</time>
      </trkpt>
      <trkpt lat="44.174" lon="3.42959">
        <ele>719</ele>
        <time>2019-05-22T21:25:45Z</time>
      </trkpt>
      <trkpt lat="44.17394" lon="3.42952">
        <ele>720</ele>
        <time>2019-05-22T21:25:47Z</time>
      </trkpt>
      <trkpt lat="44.17386" lon="3.42953">
        <ele>721</ele>
        <time>2019-05-22T21:25:48Z</time>
      </trkpt>
      <trkpt lat="44.17381" lon="3.4296">
        <ele>720</ele>
        <time>2019-05-22T21:25:49Z</time>
      </trkpt>
      <trkpt lat="44.1738" lon="3.42965">
        <ele>719</ele>
        <time>2019-05-22T21:25:50Z</time>
      </trkpt>
      <trkpt lat="44.17372" lon="3.42965">
        <ele>720</ele>
        <time>2019-05-22T21:25:51Z</time>
      </trkpt>
      <trkpt lat="44.17352" lon="3.42972">
        <ele>720</ele>
        <time>2019-05-22T21:25:55Z</time>
      </trkpt>
      <trkpt lat="44.17308" lon="3.43001">
        <ele>725</ele>
        <time>2019-05-22T21:26:04Z</time>
      </trkpt>
      <trkpt lat="44.17297" lon="3.4301">
        <ele>726</ele>
        <time>2019-05-22T21:26:06Z</time>
      </trkpt>
      <trkpt lat="44.17266" lon="3.43058">
        <ele>724</ele>
        <time>2019-05-22T21:26:14Z</time>
      </trkpt>
      <trkpt lat="44.17257" lon="3.43066">
        <ele>724</ele>
        <time>2019-05-22T21:26:16Z</time>
      </trkpt>
      <trkpt lat="44.17246" lon="3.43072">
        <ele>725</ele>
        <time>2019-05-22T21:26:18Z</time>
      </trkpt>
      <trkpt lat="44.17192" lon="3.43094">
        <ele>731</ele>
        <time>2019-05-22T21:26:28Z</time>
      </trkpt>
      <trkpt lat="44.17117" lon="3.43109">
        <ele>742</ele>
        <time>2019-05-22T21:26:42Z</time>
      </trkpt>
      <trkpt lat="44.17109" lon="3.43115">
        <ele>742</ele>
        <time>2019-05-22T21:26:43Z</time>
      </trkpt>
      <trkpt lat="44.17092" lon="3.43135">
        <ele>739</ele>
        <time>2019-05-22T21:26:47Z</time>
      </trkpt>
      <trkpt lat="44.17063" lon="3.43155">
        <ele>736</ele>
        <time>2019-05-22T21:26:53Z</time>
      </trkpt>
      <trkpt lat="44.17053" lon="3.43159">
        <ele>736</ele>
        <time>2019-05-22T21:26:55Z</time>
      </trkpt>
      <trkpt lat="44.1704" lon="3.43158">
        <ele>737</ele>
        <time>2019-05-22T21:26:57Z</time>
      </trkpt>
      <trkpt lat="44.17032" lon="3.43154">
        <ele>739</ele>
        <time>2019-05-22T21:26:59Z</time>
      </trkpt>
      <trkpt lat="44.17018" lon="3.43137">
        <ele>744</ele>
        <time>2019-05-22T21:27:02Z</time>
      </trkpt>
      <trkpt lat="44.17012" lon="3.43133">
        <ele>746</ele>
        <time>2019-05-22T21:27:03Z</time>
      </trkpt>
      <trkpt lat="44.17002" lon="3.43133">
        <ele>746</ele>
        <time>2019-05-22T21:27:05Z</time>
      </trkpt>
      <trkpt lat="44.16997" lon="3.43136">
        <ele>747</ele>
        <time>2019-05-22T21:27:06Z</time>
      </trkpt>
      <trkpt lat="44.1699" lon="3.43146">
        <ele>747</ele>
        <time>2019-05-22T21:27:08Z</time>
      </trkpt>
      <trkpt lat="44.16979" lon="3.43172">
        <ele>746</ele>
        <time>2019-05-22T21:27:12Z</time>
      </trkpt>
      <trkpt lat="44.16971" lon="3.43185">
        <ele>746</ele>
        <time>2019-05-22T21:27:14Z</time>
      </trkpt>
      <trkpt lat="44.1696" lon="3.43197">
        <ele>746</ele>
        <time>2019-05-22T21:27:16Z</time>
      </trkpt>
      <trkpt lat="44.16948" lon="3.43208">
        <ele>747</ele>
        <time>2019-05-22T21:27:19Z</time>
      </trkpt>
      <trkpt lat="44.16803" lon="3.43315">
        <ele>758</ele>
        <time>2019-05-22T21:27:48Z</time>
      </trkpt>
      <trkpt lat="44.1678" lon="3.43325">
        <ele>760</ele>
        <time>2019-05-22T21:27:52Z</time>
      </trkpt>
      <trkpt lat="44.16725" lon="3.4334">
        <ele>769</ele>
        <time>2019-05-22T21:28:02Z</time>
      </trkpt>
      <trkpt lat="44.16691" lon="3.43357">
        <ele>773</ele>
        <time>2019-05-22T21:28:09Z</time>
      </trkpt>
      <trkpt lat="44.16664" lon="3.43374">
        <ele>774</ele>
        <time>2019-05-22T21:28:14Z</time>
      </trkpt>
      <trkpt lat="44.16586" lon="3.43443">
        <ele>777</ele>
        <time>2019-05-22T21:28:30Z</time>
      </trkpt>
      <trkpt lat="44.16574" lon="3.4345">
        <ele>778</ele>
        <time>2019-05-22T21:28:33Z</time>
      </trkpt>
      <trkpt lat="44.16561" lon="3.43452">
        <ele>780</ele>
        <time>2019-05-22T21:28:35Z</time>
      </trkpt>
      <trkpt lat="44.16537" lon="3.43446">
        <ele>787</ele>
        <time>2019-05-22T21:28:39Z</time>
      </trkpt>
      <trkpt lat="44.16528" lon="3.43449">
        <ele>789</ele>
        <time>2019-05-22T21:28:41Z</time>
      </trkpt>
      <trkpt lat="44.16522" lon="3.43457">
        <ele>788</ele>
        <time>2019-05-22T21:28:42Z</time>
      </trkpt>
      <trkpt lat="44.16515" lon="3.43475">
        <ele>784</ele>
        <time>2019-05-22T21:28:45Z</time>
      </trkpt>
      <trkpt lat="44.16498" lon="3.43504">
        <ele>781</ele>
        <time>2019-05-22T21:28:50Z</time>
      </trkpt>
      <trkpt lat="44.16488" lon="3.43516">
        <ele>781</ele>
        <time>2019-05-22T21:28:52Z</time>
      </trkpt>
      <trkpt lat="44.16473" lon="3.43529">
        <ele>783</ele>
        <time>2019-05-22T21:28:55Z</time>
      </trkpt>
      <trkpt lat="44.16344" lon="3.43575">
        <ele>802</ele>
        <time>2019-05-22T21:29:19Z</time>
      </trkpt>
      <trkpt lat="44.16297" lon="3.43599">
        <ele>801</ele>
        <time>2019-05-22T21:29:28Z</time>
      </trkpt>
      <trkpt lat="44.16271" lon="3.43605">
        <ele>802</ele>
        <time>2019-05-22T21:29:33Z</time>
      </trkpt>
      <trkpt lat="44.16252" lon="3.43604">
        <ele>803</ele>
        <time>2019-05-22T21:29:36Z</time>
      </trkpt>
      <trkpt lat="44.16241" lon="3.43594">
        <ele>803</ele>
        <time>2019-05-22T21:29:38Z</time>
      </trkpt>
      <trkpt lat="44.16232" lon="3.4358">
        <ele>803</ele>
        <time>2019-05-22T21:29:41Z</time>
      </trkpt>
      <trkpt lat="44.16208" lon="3.43505">
        <ele>809</ele>
        <time>2019-05-22T21:29:51Z</time>
      </trkpt>
      <trkpt lat="44.1618" lon="3.4345">
        <ele>811</ele>
        <time>2019-05-22T21:30:00Z</time>
      </trkpt>
      <trkpt lat="44.16172" lon="3.43428">
        <ele>812</ele>
        <time>2019-05-22T21:30:03Z</time>
      </trkpt>
      <trkpt lat="44.16165" lon="3.43392">
        <ele>816</ele>
        <time>2019-05-22T21:30:08Z</time>
      </trkpt>
      <trkpt lat="44.16154" lon="3.43359">
        <ele>818</ele>
        <time>2019-05-22T21:30:12Z</time>
      </trkpt>
      <trkpt lat="44.16126" lon="3.43293">
        <ele>823</ele>
        <time>2019-05-22T21:30:22Z</time>
      </trkpt>
      <trkpt lat="44.16075" lon="3.43182">
        <ele>829</ele>
        <time>2019-05-22T21:30:39Z</time>
      </trkpt>
      <trkpt lat="44.16049" lon="3.43119">
        <ele>839</ele>
        <time>2019-05-22T21:30:48Z</time>
      </trkpt>
      <trkpt lat="44.16027" lon="3.43083">
        <ele>839</ele>
        <time>2019-05-22T21:30:54Z</time>
      </trkpt>
      <trkpt lat="44.15945" lon="3.42971">
        <ele>849</ele>
        <time>2019-05-22T21:31:15Z</time>
      </trkpt>
      <trkpt lat="44.15929" lon="3.42935">
        <ele>855</ele>
        <time>2019-05-22T21:31:20Z</time>
      </trkpt>
      <trkpt lat="44.15919" lon="3.42932">
        <ele>853</ele>
        <time>2019-05-22T21:31:22Z</time>
      </trkpt>
      <trkpt lat="44.15892" lon="3.42939">
        <ele>851</ele>
        <time>2019-05-22T21:31:27Z</time>
      </trkpt>
      <trkpt lat="44.15869" lon="3.42941">
        <ele>852</ele>
        <time>2019-05-22T21:31:31Z</time>
      </trkpt>
      <trkpt lat="44.15802" lon="3.42935">
        <ele>859</ele>
        <time>2019-05-22T21:31:43Z</time>
      </trkpt>
      <trkpt lat="44.15763" lon="3.42935">
        <ele>863</ele>
        <time>2019-05-22T21:31:50Z</time>
      </trkpt>
      <trkpt lat="44.15693" lon="3.42927">
        <ele>869</ele>
        <time>2019-05-22T21:32:02Z</time>
      </trkpt>
      <trkpt lat="44.1568" lon="3.42929">
        <ele>869</ele>
        <time>2019-05-22T21:32:05Z</time>
      </trkpt>
      <trkpt lat="44.15669" lon="3.42938">
        <ele>870</ele>
        <time>2019-05-22T21:32:07Z</time>
      </trkpt>
      <trkpt lat="44.15665" lon="3.42949">
        <ele>870</ele>
        <time>2019-05-22T21:32:08Z</time>
      </trkpt>
      <trkpt lat="44.15667" lon="3.4296">
        <ele>870</ele>
        <time>2019-05-22T21:32:10Z</time>
      </trkpt>
      <trkpt lat="44.15673" lon="3.42972">
        <ele>869</ele>
        <time>2019-05-22T21:32:12Z</time>
      </trkpt>
      <trkpt lat="44.15698" lon="3.43008">
        <ele>865</ele>
        <time>2019-05-22T21:32:18Z</time>
      </trkpt>
      <trkpt lat="44.15708" lon="3.43031">
        <ele>867</ele>
        <time>2019-05-22T21:32:22Z</time>
      </trkpt>
      <trkpt lat="44.15719" lon="3.43065">
        <ele>869</ele>
        <time>2019-05-22T21:32:26Z</time>
      </trkpt>
      <trkpt lat="44.15727" lon="3.43099">
        <ele>871</ele>
        <time>2019-05-22T21:32:31Z</time>
      </trkpt>
      <trkpt lat="44.1573" lon="3.43134">
        <ele>875</ele>
        <time>2019-05-22T21:32:35Z</time>
      </trkpt>
      <trkpt lat="44.15728" lon="3.43187">
        <ele>882</ele>
        <time>2019-05-22T21:32:42Z</time>
      </trkpt>
      <trkpt lat="44.15729" lon="3.43208">
        <ele>883</ele>
        <time>2019-05-22T21:32:45Z</time>
      </trkpt>
      <trkpt lat="44.15732" lon="3.43224">
        <ele>884</ele>
        <time>2019-05-22T21:32:47Z</time>
      </trkpt>
      <trkpt lat="44.15763" lon="3.4328">
        <ele>880</ele>
        <time>2019-05-22T21:32:56Z</time>
      </trkpt>
      <trkpt lat="44.15772" lon="3.43306">
        <ele>880</ele>
        <time>2019-05-22T21:33:00Z</time>
      </trkpt>
      <trkpt lat="44.15778" lon="3.43332">
        <ele>881</ele>
        <time>2019-05-22T21:33:03Z</time>
      </trkpt>
      <trkpt lat="44.15782" lon="3.4336">
        <ele>883</ele>
        <time>2019-05-22T21:33:07Z</time>
      </trkpt>
      <trkpt lat="44.15789" lon="3.43455">
        <ele>888</ele>
        <time>2019-05-22T21:33:19Z</time>
      </trkpt>
      <trkpt lat="44.15788" lon="3.43532">
        <ele>892</ele>
        <time>2019-05-22T21:33:29Z</time>
      </trkpt>
      <trkpt lat="44.15796" lon="3.43624">
        <ele>885</ele>
        <time>2019-05-22T21:33:41Z</time>
      </trkpt>
      <trkpt lat="44.15795" lon="3.43634">
        <ele>884</ele>
        <time>2019-05-22T21:33:42Z</time>
      </trkpt>
      <trkpt lat="44.15789" lon="3.43642">
        <ele>884</ele>
        <time>2019-05-22T21:33:43Z</time>
      </trkpt>
      <trkpt lat="44.15778" lon="3.43646">
        <ele>885</ele>
        <time>2019-05-22T21:33:45Z</time>
      </trkpt>
      <trkpt lat="44.15766" lon="3.43644">
        <ele>887</ele>
        <time>2019-05-22T21:33:48Z</time>
      </trkpt>
      <trkpt lat="44.15748" lon="3.43638">
        <ele>891</ele>
        <time>2019-05-22T21:33:51Z</time>
      </trkpt>
      <trkpt lat="44.15719" lon="3.43631">
        <ele>896</ele>
        <time>2019-05-22T21:33:56Z</time>
      </trkpt>
      <trkpt lat="44.15688" lon="3.4363">
        <ele>901</ele>
        <time>2019-05-22T21:34:02Z</time>
      </trkpt>
      <trkpt lat="44.1566" lon="3.43632">
        <ele>904</ele>
        <time>2019-05-22T21:34:07Z</time>
      </trkpt>
      <trkpt lat="44.15637" lon="3.43639">
        <ele>905</ele>
        <time>2019-05-22T21:34:11Z</time>
      </trkpt>
      <trkpt lat="44.15588" lon="3.43679">
        <ele>901</ele>
        <time>2019-05-22T21:34:21Z</time>
      </trkpt>
      <trkpt lat="44.15559" lon="3.43691">
        <ele>904</ele>
        <time>2019-05-22T21:34:26Z</time>
      </trkpt>
      <trkpt lat="44.15445" lon="3.43712">
        <ele>922</ele>
        <time>2019-05-22T21:34:47Z</time>
      </trkpt>
      <trkpt lat="44.15393" lon="3.43729">
        <ele>928</ele>
        <time>2019-05-22T21:34:56Z</time>
      </trkpt>
      <trkpt lat="44.15376" lon="3.4374">
        <ele>928</ele>
        <time>2019-05-22T21:35:00Z</time>
      </trkpt>
      <trkpt lat="44.15363" lon="3.43755">
        <ele>927</ele>
        <time>2019-05-22T21:35:03Z</time>
      </trkpt>
      <trkpt lat="44.1535" lon="3.43791">
        <ele>920</ele>
        <time>2019-05-22T21:35:08Z</time>
      </trkpt>
      <trkpt lat="44.15344" lon="3.43797">
        <ele>919</ele>
        <time>2019-05-22T21:35:09Z</time>
      </trkpt>
      <trkpt lat="44.15337" lon="3.43797">
        <ele>920</ele>
        <time>2019-05-22T21:35:10Z</time>
      </trkpt>
      <trkpt lat="44.15333" lon="3.43792">
        <ele>923</ele>
        <time>2019-05-22T21:35:11Z</time>
      </trkpt>
      <trkpt lat="44.15331" lon="3.43781">
        <ele>926</ele>
        <time>2019-05-22T21:35:13Z</time>
      </trkpt>
      <trkpt lat="44.15334" lon="3.43771">
        <ele>928</ele>
        <time>2019-05-22T21:35:14Z</time>
      </trkpt>
      <trkpt lat="44.1537" lon="3.43725">
        <ele>933</ele>
        <time>2019-05-22T21:35:23Z</time>
      </trkpt>
      <trkpt lat="44.15399" lon="3.43682">
        <ele>938</ele>
        <time>2019-05-22T21:35:30Z</time>
      </trkpt>
      <trkpt lat="44.15411" lon="3.4367">
        <ele>938</ele>
        <time>2019-05-22T21:35:33Z</time>
      </trkpt>
      <trkpt lat="44.15429" lon="3.43659">
        <ele>938</ele>
        <time>2019-05-22T21:35:37Z</time>
      </trkpt>
      <trkpt lat="44.15451" lon="3.43649">
        <ele>936</ele>
        <time>2019-05-22T21:35:41Z</time>
      </trkpt>
      <trkpt lat="44.15474" lon="3.43634">
        <ele>936</ele>
        <time>2019-05-22T21:35:45Z</time>
      </trkpt>
      <trkpt lat="44.15527" lon="3.43578">
        <ele>941</ele>
        <time>2019-05-22T21:35:57Z</time>
      </trkpt>
      <trkpt lat="44.15567" lon="3.4354">
        <ele>941</ele>
        <time>2019-05-22T21:36:06Z</time>
      </trkpt>
      <trkpt lat="44.15576" lon="3.43525">
        <ele>942</ele>
        <time>2019-05-22T21:36:08Z</time>
      </trkpt>
      <trkpt lat="44.15582" lon="3.43507">
        <ele>944</ele>
        <time>2019-05-22T21:36:11Z</time>
      </trkpt>
      <trkpt lat="44.15582" lon="3.43483">
        <ele>946</ele>
        <time>2019-05-22T21:36:14Z</time>
      </trkpt>
      <trkpt lat="44.15578" lon="3.43463">
        <ele>948</ele>
        <time>2019-05-22T21:36:16Z</time>
      </trkpt>
      <trkpt lat="44.1557" lon="3.4345">
        <ele>949</ele>
        <time>2019-05-22T21:36:19Z</time>
      </trkpt>
      <trkpt lat="44.15558" lon="3.4344">
        <ele>951</ele>
        <time>2019-05-22T21:36:21Z</time>
      </trkpt>
      <trkpt lat="44.15546" lon="3.43427">
        <ele>953</ele>
        <time>2019-05-22T21:36:24Z</time>
      </trkpt>
      <trkpt lat="44.15529" lon="3.43393">
        <ele>954</ele>
        <time>2019-05-22T21:36:29Z</time>
      </trkpt>
      <trkpt lat="44.15478" lon="3.43316">
        <ele>957</ele>
        <time>2019-05-22T21:36:42Z</time>
      </trkpt>
      <trkpt lat="44.1545" lon="3.4328">
        <ele>957</ele>
        <time>2019-05-22T21:36:49Z</time>
      </trkpt>
      <trkpt lat="44.15415" lon="3.4325">
        <ele>958</ele>
        <time>2019-05-22T21:36:56Z</time>
      </trkpt>
      <trkpt lat="44.15376" lon="3.43226">
        <ele>963</ele>
        <time>2019-05-22T21:37:04Z</time>
      </trkpt>
      <trkpt lat="44.15299" lon="3.43192">
        <ele>971</ele>
        <time>2019-05-22T21:37:18Z</time>
      </trkpt>
      <trkpt lat="44.15269" lon="3.43176">
        <ele>974</ele>
        <time>2019-05-22T21:37:24Z</time>
      </trkpt>
      <trkpt lat="44.15231" lon="3.43148">
        <ele>981</ele>
        <time>2019-05-22T21:37:32Z</time>
      </trkpt>
      <trkpt lat="44.15186" lon="3.43105">
        <ele>992</ele>
        <time>2019-05-22T21:37:41Z</time>
      </trkpt>
      <trkpt lat="44.15176" lon="3.43086">
        <ele>993</ele>
        <time>2019-05-22T21:37:45Z</time>
      </trkpt>
      <trkpt lat="44.15171" lon="3.43072">
        <ele>995</ele>
        <time>2019-05-22T21:37:46Z</time>
      </trkpt>
      <trkpt lat="44.15171" lon="3.4306">
        <ele>995</ele>
        <time>2019-05-22T21:37:48Z</time>
      </trkpt>
      <trkpt lat="44.15176" lon="3.43045">
        <ele>993</ele>
        <time>2019-05-22T21:37:50Z</time>
      </trkpt>
      <trkpt lat="44.15184" lon="3.43026">
        <ele>990</ele>
        <time>2019-05-22T21:37:53Z</time>
      </trkpt>
      <trkpt lat="44.15194" lon="3.42987">
        <ele>986</ele>
        <time>2019-05-22T21:37:58Z</time>
      </trkpt>
      <trkpt lat="44.15197" lon="3.4296">
        <ele>986</ele>
        <time>2019-05-22T21:38:02Z</time>
      </trkpt>
      <trkpt lat="44.15196" lon="3.42938">
        <ele>988</ele>
        <time>2019-05-22T21:38:05Z</time>
      </trkpt>
      <trkpt lat="44.15191" lon="3.42914">
        <ele>990</ele>
        <time>2019-05-22T21:38:08Z</time>
      </trkpt>
      <trkpt lat="44.1518" lon="3.42887">
        <ele>992</ele>
        <time>2019-05-22T21:38:12Z</time>
      </trkpt>
      <trkpt lat="44.15099" lon="3.42734">
        <ele>1007</ele>
        <time>2019-05-22T21:38:36Z</time>
      </trkpt>
      <trkpt lat="44.15068" lon="3.42678">
        <ele>1015</ele>
        <time>2019-05-22T21:38:45Z</time>
      </trkpt>
      <trkpt lat="44.15063" lon="3.42662">
        <ele>1016</ele>
        <time>2019-05-22T21:38:47Z</time>
      </trkpt>
      <trkpt lat="44.15064" lon="3.42645">
        <ele>1017</ele>
        <time>2019-05-22T21:38:49Z</time>
      </trkpt>
      <trkpt lat="44.15069" lon="3.42633">
        <ele>1016</ele>
        <time>2019-05-22T21:38:51Z</time>
      </trkpt>
      <trkpt lat="44.15083" lon="3.42611">
        <ele>1014</ele>
        <time>2019-05-22T21:38:55Z</time>
      </trkpt>
      <trkpt lat="44.15092" lon="3.42593">
        <ele>1013</ele>
        <time>2019-05-22T21:38:58Z</time>
      </trkpt>
      <trkpt lat="44.15112" lon="3.42535">
        <ele>1014</ele>
        <time>2019-05-22T21:39:06Z</time>
      </trkpt>
      <trkpt lat="44.15152" lon="3.42456">
        <ele>1013</ele>
        <time>2019-05-22T21:39:18Z</time>
      </trkpt>
      <trkpt lat="44.15161" lon="3.42431">
        <ele>1013</ele>
        <time>2019-05-22T21:39:22Z</time>
      </trkpt>
      <trkpt lat="44.15172" lon="3.42382">
        <ele>1011</ele>
        <time>2019-05-22T21:39:28Z</time>
      </trkpt>
      <trkpt lat="44.1519" lon="3.42252">
        <ele>1007</ele>
        <time>2019-05-22T21:39:45Z</time>
      </trkpt>
      <trkpt lat="44.15219" lon="3.42128">
        <ele>1003</ele>
        <time>2019-05-22T21:40:02Z</time>
      </trkpt>
      <trkpt lat="44.15293" lon="3.41774">
        <ele>992</ele>
        <time>2019-05-22T21:40:49Z</time>
      </trkpt>
      <trkpt lat="44.15329" lon="3.41631">
        <ele>991</ele>
        <time>2019-05-22T21:41:08Z</time>
      </trkpt>
      <trkpt lat="44.15332" lon="3.41614">
        <ele>991</ele>
        <time>2019-05-22T21:41:11Z</time>
      </trkpt>
      <trkpt lat="44.15331" lon="3.41592">
        <ele>990</ele>
        <time>2019-05-22T21:41:13Z</time>
      </trkpt>
      <trkpt lat="44.15329" lon="3.41573">
        <ele>990</ele>
        <time>2019-05-22T21:41:16Z</time>
      </trkpt>
      <trkpt lat="44.15323" lon="3.41555">
        <ele>989</ele>
        <time>2019-05-22T21:41:18Z</time>
      </trkpt>
      <trkpt lat="44.15312" lon="3.41538">
        <ele>989</ele>
        <time>2019-05-22T21:41:21Z</time>
      </trkpt>
      <trkpt lat="44.15211" lon="3.41433">
        <ele>982</ele>
        <time>2019-05-22T21:41:44Z</time>
      </trkpt>
      <trkpt lat="44.15194" lon="3.41413">
        <ele>982</ele>
        <time>2019-05-22T21:41:48Z</time>
      </trkpt>
      <trkpt lat="44.14894" lon="3.41192">
        <ele>966</ele>
        <time>2019-05-22T21:42:48Z</time>
      </trkpt>
      <trkpt lat="44.14877" lon="3.41179">
        <ele>965</ele>
        <time>2019-05-22T21:42:52Z</time>
      </trkpt>
      <trkpt lat="44.14863" lon="3.41166">
        <ele>964</ele>
        <time>2019-05-22T21:42:55Z</time>
      </trkpt>
      <trkpt lat="44.14856" lon="3.41156">
        <ele>964</ele>
        <time>2019-05-22T21:42:56Z</time>
      </trkpt>
      <trkpt lat="44.14856" lon="3.41156">
        <ele>964</ele>
        <time>2019-05-22T21:42:56Z</time>
      </trkpt>
      <trkpt lat="44.14804" lon="3.41063">
        <ele>961</ele>
        <time>2019-05-22T21:43:11Z</time>
      </trkpt>
      <trkpt lat="44.14791" lon="3.41045">
        <ele>960</ele>
        <time>2019-05-22T21:43:15Z</time>
      </trkpt>
      <trkpt lat="44.14751" lon="3.41003">
        <ele>956</ele>
        <time>2019-05-22T21:43:24Z</time>
      </trkpt>
      <trkpt lat="44.14739" lon="3.40984">
        <ele>956</ele>
        <time>2019-05-22T21:43:27Z</time>
      </trkpt>
      <trkpt lat="44.14711" lon="3.40909">
        <ele>957</ele>
        <time>2019-05-22T21:43:38Z</time>
      </trkpt>
      <trkpt lat="44.14696" lon="3.40876">
        <ele>955</ele>
        <time>2019-05-22T21:43:43Z</time>
      </trkpt>
      <trkpt lat="44.14676" lon="3.40827">
        <ele>953</ele>
        <time>2019-05-22T21:43:50Z</time>
      </trkpt>
      <trkpt lat="44.14662" lon="3.408">
        <ele>953</ele>
        <time>2019-05-22T21:43:54Z</time>
      </trkpt>
      <trkpt lat="44.14629" lon="3.40748">
        <ele>952</ele>
        <time>2019-05-22T21:44:03Z</time>
      </trkpt>
      <trkpt lat="44.14598" lon="3.40672">
        <ele>951</ele>
        <time>2019-05-22T21:44:14Z</time>
      </trkpt>
      <trkpt lat="44.14585" lon="3.40645">
        <ele>949</ele>
        <time>2019-05-22T21:44:18Z</time>
      </trkpt>
      <trkpt lat="44.14567" lon="3.40622">
        <ele>949</ele>
        <time>2019-05-22T21:44:23Z</time>
      </trkpt>
      <trkpt lat="44.14556" lon="3.40613">
        <ele>949</ele>
        <time>2019-05-22T21:44:25Z</time>
      </trkpt>
      <trkpt lat="44.14526" lon="3.40605">
        <ele>947</ele>
        <time>2019-05-22T21:44:30Z</time>
      </trkpt>
      <trkpt lat="44.14474" lon="3.40609">
        <ele>947</ele>
        <time>2019-05-22T21:44:40Z</time>
      </trkpt>
      <trkpt lat="44.14417" lon="3.40617">
        <ele>950</ele>
        <time>2019-05-22T21:44:50Z</time>
      </trkpt>
      <trkpt lat="44.14395" lon="3.40616">
        <ele>952</ele>
        <time>2019-05-22T21:44:54Z</time>
      </trkpt>
      <trkpt lat="44.14375" lon="3.40606">
        <ele>954</ele>
        <time>2019-05-22T21:44:57Z</time>
      </trkpt>
      <trkpt lat="44.14299" lon="3.40548">
        <ele>959</ele>
        <time>2019-05-22T21:45:13Z</time>
      </trkpt>
      <trkpt lat="44.14281" lon="3.40539">
        <ele>960</ele>
        <time>2019-05-22T21:45:16Z</time>
      </trkpt>
      <trkpt lat="44.1425" lon="3.40535">
        <ele>962</ele>
        <time>2019-05-22T21:45:22Z</time>
      </trkpt>
      <trkpt lat="44.1419" lon="3.40539">
        <ele>965</ele>
        <time>2019-05-22T21:45:32Z</time>
      </trkpt>
      <trkpt lat="44.1417" lon="3.40537">
        <ele>966</ele>
        <time>2019-05-22T21:45:36Z</time>
      </trkpt>
      <trkpt lat="44.14056" lon="3.40504">
        <ele>968</ele>
        <time>2019-05-22T21:45:57Z</time>
      </trkpt>
      <trkpt lat="44.14041" lon="3.40502">
        <ele>969</ele>
        <time>2019-05-22T21:45:59Z</time>
      </trkpt>
      <trkpt lat="44.14025" lon="3.40505">
        <ele>969</ele>
        <time>2019-05-22T21:46:02Z</time>
      </trkpt>
      <trkpt lat="44.14017" lon="3.40511">
        <ele>970</ele>
        <time>2019-05-22T21:46:04Z</time>
      </trkpt>
      <trkpt lat="44.14005" lon="3.40526">
        <ele>971</ele>
        <time>2019-05-22T21:46:07Z</time>
      </trkpt>
      <trkpt lat="44.13999" lon="3.40547">
        <ele>973</ele>
        <time>2019-05-22T21:46:10Z</time>
      </trkpt>
      <trkpt lat="44.13991" lon="3.40586">
        <ele>976</ele>
        <time>2019-05-22T21:46:15Z</time>
      </trkpt>
      <trkpt lat="44.13985" lon="3.40602">
        <ele>977</ele>
        <time>2019-05-22T21:46:17Z</time>
      </trkpt>
      <trkpt lat="44.13978" lon="3.40611">
        <ele>978</ele>
        <time>2019-05-22T21:46:19Z</time>
      </trkpt>
      <trkpt lat="44.13971" lon="3.40614">
        <ele>978</ele>
        <time>2019-05-22T21:46:20Z</time>
      </trkpt>
      <trkpt lat="44.13957" lon="3.40613">
        <ele>979</ele>
        <time>2019-05-22T21:46:23Z</time>
      </trkpt>
      <trkpt lat="44.13951" lon="3.40609">
        <ele>979</ele>
        <time>2019-05-22T21:46:24Z</time>
      </trkpt>
      <trkpt lat="44.13938" lon="3.4059">
        <ele>979</ele>
        <time>2019-05-22T21:46:27Z</time>
      </trkpt>
      <trkpt lat="44.13902" lon="3.40528">
        <ele>978</ele>
        <time>2019-05-22T21:46:37Z</time>
      </trkpt>
      <trkpt lat="44.13891" lon="3.40518">
        <ele>978</ele>
        <time>2019-05-22T21:46:40Z</time>
      </trkpt>
      <trkpt lat="44.13878" lon="3.40518">
        <ele>979</ele>
        <time>2019-05-22T21:46:42Z</time>
      </trkpt>
      <trkpt lat="44.1387" lon="3.40521">
        <ele>979</ele>
        <time>2019-05-22T21:46:43Z</time>
      </trkpt>
      <trkpt lat="44.13855" lon="3.40536">
        <ele>980</ele>
        <time>2019-05-22T21:46:47Z</time>
      </trkpt>
      <trkpt lat="44.13782" lon="3.40638">
        <ele>989</ele>
        <time>2019-05-22T21:47:05Z</time>
      </trkpt>
      <trkpt lat="44.13773" lon="3.40648">
        <ele>990</ele>
        <time>2019-05-22T21:47:07Z</time>
      </trkpt>
      <trkpt lat="44.13764" lon="3.40655">
        <ele>991</ele>
        <time>2019-05-22T21:47:09Z</time>
      </trkpt>
      <trkpt lat="44.13756" lon="3.40658">
        <ele>991</ele>
        <time>2019-05-22T21:47:11Z</time>
      </trkpt>
      <trkpt lat="44.13739" lon="3.40657">
        <ele>993</ele>
        <time>2019-05-22T21:47:14Z</time>
      </trkpt>
      <trkpt lat="44.13733" lon="3.40653">
        <ele>994</ele>
        <time>2019-05-22T21:47:15Z</time>
      </trkpt>
      <trkpt lat="44.13718" lon="3.40638">
        <ele>995</ele>
        <time>2019-05-22T21:47:18Z</time>
      </trkpt>
      <trkpt lat="44.13663" lon="3.40533">
        <ele>995</ele>
        <time>2019-05-22T21:47:35Z</time>
      </trkpt>
      <trkpt lat="44.13649" lon="3.40508">
        <ele>996</ele>
        <time>2019-05-22T21:47:39Z</time>
      </trkpt>
      <trkpt lat="44.13638" lon="3.40495">
        <ele>996</ele>
        <time>2019-05-22T21:47:41Z</time>
      </trkpt>
      <trkpt lat="44.13621" lon="3.40483">
        <ele>996</ele>
        <time>2019-05-22T21:47:45Z</time>
      </trkpt>
      <trkpt lat="44.1351" lon="3.40445">
        <ele>1002</ele>
        <time>2019-05-22T21:48:05Z</time>
      </trkpt>
      <trkpt lat="44.13476" lon="3.40435">
        <ele>1005</ele>
        <time>2019-05-22T21:48:11Z</time>
      </trkpt>
      <trkpt lat="44.13459" lon="3.40428">
        <ele>1007</ele>
        <time>2019-05-22T21:48:14Z</time>
      </trkpt>
      <trkpt lat="44.13449" lon="3.4042">
        <ele>1007</ele>
        <time>2019-05-22T21:48:16Z</time>
      </trkpt>
      <trkpt lat="44.13444" lon="3.40412">
        <ele>1008</ele>
        <time>2019-05-22T21:48:18Z</time>
      </trkpt>
      <trkpt lat="44.13426" lon="3.40372">
        <ele>1008</ele>
        <time>2019-05-22T21:48:24Z</time>
      </trkpt>
      <trkpt lat="44.13404" lon="3.40328">
        <ele>1008</ele>
        <time>2019-05-22T21:48:31Z</time>
      </trkpt>
      <trkpt lat="44.13396" lon="3.40319">
        <ele>1008</ele>
        <time>2019-05-22T21:48:32Z</time>
      </trkpt>
      <trkpt lat="44.13377" lon="3.4031">
        <ele>1008</ele>
        <time>2019-05-22T21:48:36Z</time>
      </trkpt>
      <trkpt lat="44.13364" lon="3.40307">
        <ele>1008</ele>
        <time>2019-05-22T21:48:38Z</time>
      </trkpt>
      <trkpt lat="44.13361" lon="3.40292">
        <ele>1007</ele>
        <time>2019-05-22T21:48:40Z</time>
      </trkpt>
      <trkpt lat="44.13353" lon="3.40279">
        <ele>1006</ele>
        <time>2019-05-22T21:48:42Z</time>
      </trkpt>
      <trkpt lat="44.13343" lon="3.4027">
        <ele>1005</ele>
        <time>2019-05-22T21:48:45Z</time>
      </trkpt>
      <trkpt lat="44.13308" lon="3.40253">
        <ele>1005</ele>
        <time>2019-05-22T21:48:51Z</time>
      </trkpt>
      <trkpt lat="44.13258" lon="3.40211">
        <ele>1001</ele>
        <time>2019-05-22T21:49:02Z</time>
      </trkpt>
      <trkpt lat="44.13214" lon="3.40182">
        <ele>999</ele>
        <time>2019-05-22T21:49:10Z</time>
      </trkpt>
      <trkpt lat="44.13199" lon="3.40161">
        <ele>997</ele>
        <time>2019-05-22T21:49:14Z</time>
      </trkpt>
      <trkpt lat="44.13185" lon="3.40132">
        <ele>994</ele>
        <time>2019-05-22T21:49:18Z</time>
      </trkpt>
      <trkpt lat="44.13089" lon="3.40004">
        <ele>987</ele>
        <time>2019-05-22T21:49:42Z</time>
      </trkpt>
      <trkpt lat="44.13074" lon="3.39981">
        <ele>985</ele>
        <time>2019-05-22T21:49:46Z</time>
      </trkpt>
      <trkpt lat="44.13052" lon="3.39958">
        <ele>982</ele>
        <time>2019-05-22T21:49:51Z</time>
      </trkpt>
      <trkpt lat="44.12984" lon="3.3991">
        <ele>979</ele>
        <time>2019-05-22T21:50:05Z</time>
      </trkpt>
      <trkpt lat="44.12973" lon="3.39908">
        <ele>978</ele>
        <time>2019-05-22T21:50:07Z</time>
      </trkpt>
      <trkpt lat="44.12962" lon="3.39919">
        <ele>977</ele>
        <time>2019-05-22T21:50:09Z</time>
      </trkpt>
      <trkpt lat="44.1296" lon="3.39934">
        <ele>977</ele>
        <time>2019-05-22T21:50:11Z</time>
      </trkpt>
      <trkpt lat="44.12965" lon="3.39949">
        <ele>977</ele>
        <time>2019-05-22T21:50:13Z</time>
      </trkpt>
      <trkpt lat="44.12981" lon="3.39966">
        <ele>979</ele>
        <time>2019-05-22T21:50:17Z</time>
      </trkpt>
      <trkpt lat="44.12989" lon="3.39979">
        <ele>980</ele>
        <time>2019-05-22T21:50:19Z</time>
      </trkpt>
      <trkpt lat="44.12991" lon="3.39995">
        <ele>980</ele>
        <time>2019-05-22T21:50:21Z</time>
      </trkpt>
      <trkpt lat="44.12986" lon="3.40011">
        <ele>980</ele>
        <time>2019-05-22T21:50:23Z</time>
      </trkpt>
      <trkpt lat="44.12977" lon="3.40021">
        <ele>979</ele>
        <time>2019-05-22T21:50:25Z</time>
      </trkpt>
      <trkpt lat="44.12967" lon="3.40018">
        <ele>978</ele>
        <time>2019-05-22T21:50:27Z</time>
      </trkpt>
      <trkpt lat="44.12959" lon="3.40011">
        <ele>977</ele>
        <time>2019-05-22T21:50:29Z</time>
      </trkpt>
      <trkpt lat="44.12953" lon="3.40002">
        <ele>975</ele>
        <time>2019-05-22T21:50:30Z</time>
      </trkpt>
      <trkpt lat="44.12945" lon="3.39974">
        <ele>975</ele>
        <time>2019-05-22T21:50:34Z</time>
      </trkpt>
      <trkpt lat="44.12932" lon="3.39953">
        <ele>974</ele>
        <time>2019-05-22T21:50:38Z</time>
      </trkpt>
      <trkpt lat="44.12918" lon="3.39936">
        <ele>973</ele>
        <time>2019-05-22T21:50:41Z</time>
      </trkpt>
      <trkpt lat="44.12901" lon="3.39921">
        <ele>971</ele>
        <time>2019-05-22T21:50:44Z</time>
      </trkpt>
      <trkpt lat="44.12864" lon="3.39895">
        <ele>968</ele>
        <time>2019-05-22T21:50:52Z</time>
      </trkpt>
      <trkpt lat="44.12806" lon="3.39869">
        <ele>961</ele>
        <time>2019-05-22T21:51:03Z</time>
      </trkpt>
      <trkpt lat="44.12779" lon="3.39844">
        <ele>959</ele>
        <time>2019-05-22T21:51:08Z</time>
      </trkpt>
      <trkpt lat="44.12757" lon="3.39816">
        <ele>956</ele>
        <time>2019-05-22T21:51:14Z</time>
      </trkpt>
      <trkpt lat="44.12732" lon="3.39794">
        <ele>952</ele>
        <time>2019-05-22T21:51:19Z</time>
      </trkpt>
      <trkpt lat="44.12712" lon="3.39767">
        <ele>949</ele>
        <time>2019-05-22T21:51:24Z</time>
      </trkpt>
      <trkpt lat="44.12697" lon="3.39742">
        <ele>946</ele>
        <time>2019-05-22T21:51:28Z</time>
      </trkpt>
      <trkpt lat="44.1269" lon="3.39716">
        <ele>944</ele>
        <time>2019-05-22T21:51:32Z</time>
      </trkpt>
      <trkpt lat="44.12687" lon="3.39692">
        <ele>943</ele>
        <time>2019-05-22T21:51:35Z</time>
      </trkpt>
      <trkpt lat="44.12685" lon="3.39644">
        <ele>941</ele>
        <time>2019-05-22T21:51:41Z</time>
      </trkpt>
      <trkpt lat="44.1268" lon="3.39625">
        <ele>940</ele>
        <time>2019-05-22T21:51:44Z</time>
      </trkpt>
      <trkpt lat="44.12595" lon="3.39505">
        <ele>933</ele>
        <time>2019-05-22T21:52:05Z</time>
      </trkpt>
      <trkpt lat="44.12598" lon="3.39473">
        <ele>933</ele>
        <time>2019-05-22T21:52:09Z</time>
      </trkpt>
      <trkpt lat="44.12605" lon="3.39431">
        <ele>932</ele>
        <time>2019-05-22T21:52:15Z</time>
      </trkpt>
      <trkpt lat="44.12607" lon="3.39401">
        <ele>931</ele>
        <time>2019-05-22T21:52:19Z</time>
      </trkpt>
      <trkpt lat="44.12606" lon="3.39363">
        <ele>930</ele>
        <time>2019-05-22T21:52:23Z</time>
      </trkpt>
      <trkpt lat="44.12603" lon="3.39329">
        <ele>928</ele>
        <time>2019-05-22T21:52:28Z</time>
      </trkpt>
      <trkpt lat="44.12604" lon="3.39297">
        <ele>928</ele>
        <time>2019-05-22T21:52:32Z</time>
      </trkpt>
      <trkpt lat="44.12625" lon="3.39105">
        <ele>928</ele>
        <time>2019-05-22T21:52:57Z</time>
      </trkpt>
      <trkpt lat="44.12636" lon="3.39064">
        <ele>927</ele>
        <time>2019-05-22T21:53:02Z</time>
      </trkpt>
      <trkpt lat="44.1265" lon="3.39022">
        <ele>927</ele>
        <time>2019-05-22T21:53:08Z</time>
      </trkpt>
      <trkpt lat="44.12663" lon="3.38948">
        <ele>926</ele>
        <time>2019-05-22T21:53:18Z</time>
      </trkpt>
      <trkpt lat="44.12675" lon="3.38901">
        <ele>926</ele>
        <time>2019-05-22T21:53:24Z</time>
      </trkpt>
      <trkpt lat="44.12689" lon="3.38863">
        <ele>928</ele>
        <time>2019-05-22T21:53:30Z</time>
      </trkpt>
      <trkpt lat="44.12708" lon="3.3882">
        <ele>928</ele>
        <time>2019-05-22T21:53:36Z</time>
      </trkpt>
      <trkpt lat="44.12741" lon="3.38764">
        <ele>925</ele>
        <time>2019-05-22T21:53:45Z</time>
      </trkpt>
      <trkpt lat="44.12762" lon="3.38732">
        <ele>924</ele>
        <time>2019-05-22T21:53:51Z</time>
      </trkpt>
      <trkpt lat="44.12786" lon="3.38712">
        <ele>924</ele>
        <time>2019-05-22T21:53:56Z</time>
      </trkpt>
      <trkpt lat="44.12857" lon="3.38681">
        <ele>918</ele>
        <time>2019-05-22T21:54:09Z</time>
      </trkpt>
      <trkpt lat="44.12891" lon="3.38661">
        <ele>916</ele>
        <time>2019-05-22T21:54:16Z</time>
      </trkpt>
      <trkpt lat="44.12925" lon="3.38627">
        <ele>914</ele>
        <time>2019-05-22T21:54:23Z</time>
      </trkpt>
      <trkpt lat="44.12937" lon="3.38607">
        <ele>914</ele>
        <time>2019-05-22T21:54:27Z</time>
      </trkpt>
      <trkpt lat="44.12979" lon="3.38494">
        <ele>911</ele>
        <time>2019-05-22T21:54:43Z</time>
      </trkpt>
      <trkpt lat="44.1299" lon="3.38473">
        <ele>909</ele>
        <time>2019-05-22T21:54:46Z</time>
      </trkpt>
      <trkpt lat="44.13004" lon="3.38462">
        <ele>907</ele>
        <time>2019-05-22T21:54:49Z</time>
      </trkpt>
      <trkpt lat="44.13046" lon="3.38446">
        <ele>906</ele>
        <time>2019-05-22T21:54:57Z</time>
      </trkpt>
      <trkpt lat="44.13056" lon="3.38437">
        <ele>906</ele>
        <time>2019-05-22T21:54:59Z</time>
      </trkpt>
      <trkpt lat="44.13046" lon="3.3837">
        <ele>905</ele>
        <time>2019-05-22T21:55:08Z</time>
      </trkpt>
      <trkpt lat="44.13031" lon="3.38318">
        <ele>905</ele>
        <time>2019-05-22T21:55:15Z</time>
      </trkpt>
      <trkpt lat="44.13036" lon="3.38269">
        <ele>907</ele>
        <time>2019-05-22T21:55:21Z</time>
      </trkpt>
      <trkpt lat="44.13038" lon="3.38259">
        <ele>908</ele>
        <time>2019-05-22T21:55:22Z</time>
      </trkpt>
      <trkpt lat="44.13042" lon="3.38253">
        <ele>908</ele>
        <time>2019-05-22T21:55:23Z</time>
      </trkpt>
      <trkpt lat="44.13053" lon="3.38246">
        <ele>910</ele>
        <time>2019-05-22T21:55:26Z</time>
      </trkpt>
      <trkpt lat="44.13057" lon="3.38239">
        <ele>911</ele>
        <time>2019-05-22T21:55:27Z</time>
      </trkpt>
      <trkpt lat="44.13056" lon="3.38159">
        <ele>913</ele>
        <time>2019-05-22T21:55:37Z</time>
      </trkpt>
      <trkpt lat="44.13058" lon="3.38128">
        <ele>915</ele>
        <time>2019-05-22T21:55:41Z</time>
      </trkpt>
      <trkpt lat="44.13021" lon="3.381">
        <ele>910</ele>
        <time>2019-05-22T21:55:48Z</time>
      </trkpt>
      <trkpt lat="44.12956" lon="3.38058">
        <ele>906</ele>
        <time>2019-05-22T21:56:01Z</time>
      </trkpt>
      <trkpt lat="44.12937" lon="3.38043">
        <ele>906</ele>
        <time>2019-05-22T21:56:05Z</time>
      </trkpt>
      <trkpt lat="44.12936" lon="3.3803">
        <ele>908</ele>
        <time>2019-05-22T21:56:07Z</time>
      </trkpt>
      <trkpt lat="44.12896" lon="3.37996">
        <ele>908</ele>
        <time>2019-05-22T21:56:15Z</time>
      </trkpt>
      <trkpt lat="44.12864" lon="3.37961">
        <ele>905</ele>
        <time>2019-05-22T21:56:22Z</time>
      </trkpt>
      <trkpt lat="44.12857" lon="3.37936">
        <ele>906</ele>
        <time>2019-05-22T21:56:26Z</time>
      </trkpt>
      <trkpt lat="44.12859" lon="3.37922">
        <ele>907</ele>
        <time>2019-05-22T21:56:28Z</time>
      </trkpt>
      <trkpt lat="44.12873" lon="3.37878">
        <ele>910</ele>
        <time>2019-05-22T21:56:34Z</time>
      </trkpt>
      <trkpt lat="44.12876" lon="3.37861">
        <ele>911</ele>
        <time>2019-05-22T21:56:36Z</time>
      </trkpt>
      <trkpt lat="44.12874" lon="3.37839">
        <ele>911</ele>
        <time>2019-05-22T21:56:39Z</time>
      </trkpt>
      <trkpt lat="44.12869" lon="3.37815">
        <ele>911</ele>
        <time>2019-05-22T21:56:42Z</time>
      </trkpt>
      <trkpt lat="44.1285" lon="3.37745">
        <ele>912</ele>
        <time>2019-05-22T21:56:51Z</time>
      </trkpt>
      <trkpt lat="44.12838" lon="3.37707">
        <ele>913</ele>
        <time>2019-05-22T21:56:57Z</time>
      </trkpt>
      <trkpt lat="44.12818" lon="3.37674">
        <ele>913</ele>
        <time>2019-05-22T21:57:02Z</time>
      </trkpt>
      <trkpt lat="44.12809" lon="3.37654">
        <ele>914</ele>
        <time>2019-05-22T21:57:05Z</time>
      </trkpt>
      <trkpt lat="44.12803" lon="3.37629">
        <ele>915</ele>
        <time>2019-05-22T21:57:09Z</time>
      </trkpt>
      <trkpt lat="44.12803" lon="3.37605">
        <ele>917</ele>
        <time>2019-05-22T21:57:12Z</time>
      </trkpt>
      <trkpt lat="44.12817" lon="3.3753">
        <ele>920</ele>
        <time>2019-05-22T21:57:22Z</time>
      </trkpt>
      <trkpt lat="44.12828" lon="3.3751">
        <ele>921</ele>
        <time>2019-05-22T21:57:25Z</time>
      </trkpt>
      <trkpt lat="44.12843" lon="3.37496">
        <ele>921</ele>
        <time>2019-05-22T21:57:28Z</time>
      </trkpt>
      <trkpt lat="44.12862" lon="3.37492">
        <ele>921</ele>
        <time>2019-05-22T21:57:31Z</time>
      </trkpt>
      <trkpt lat="44.12974" lon="3.37496">
        <ele>922</ele>
        <time>2019-05-22T21:57:51Z</time>
      </trkpt>
      <trkpt lat="44.12984" lon="3.37493">
        <ele>923</ele>
        <time>2019-05-22T21:57:53Z</time>
      </trkpt>
      <trkpt lat="44.12993" lon="3.37482">
        <ele>923</ele>
        <time>2019-05-22T21:57:55Z</time>
      </trkpt>
      <trkpt lat="44.12998" lon="3.37465">
        <ele>923</ele>
        <time>2019-05-22T21:57:58Z</time>
      </trkpt>
      <trkpt lat="44.12996" lon="3.37446">
        <ele>923</ele>
        <time>2019-05-22T21:58:00Z</time>
      </trkpt>
      <trkpt lat="44.12974" lon="3.3737">
        <ele>922</ele>
        <time>2019-05-22T21:58:11Z</time>
      </trkpt>
      <trkpt lat="44.12966" lon="3.3732">
        <ele>921</ele>
        <time>2019-05-22T21:58:17Z</time>
      </trkpt>
      <trkpt lat="44.12963" lon="3.37214">
        <ele>919</ele>
        <time>2019-05-22T21:58:31Z</time>
      </trkpt>
      <trkpt lat="44.12967" lon="3.37169">
        <ele>918</ele>
        <time>2019-05-22T21:58:37Z</time>
      </trkpt>
      <trkpt lat="44.1298" lon="3.37112">
        <ele>918</ele>
        <time>2019-05-22T21:58:44Z</time>
      </trkpt>
      <trkpt lat="44.1298" lon="3.37112">
        <ele>918</ele>
        <time>2019-05-22T21:58:44Z</time>
      </trkpt>
      <trkpt lat="44.12993" lon="3.37054">
        <ele>918</ele>
        <time>2019-05-22T21:58:52Z</time>
      </trkpt>
      <trkpt lat="44.12998" lon="3.37015">
        <ele>919</ele>
        <time>2019-05-22T21:58:57Z</time>
      </trkpt>
      <trkpt lat="44.12998" lon="3.36981">
        <ele>920</ele>
        <time>2019-05-22T21:59:01Z</time>
      </trkpt>
      <trkpt lat="44.12989" lon="3.36954">
        <ele>920</ele>
        <time>2019-05-22T21:59:05Z</time>
      </trkpt>
      <trkpt lat="44.12969" lon="3.36928">
        <ele>917</ele>
        <time>2019-05-22T21:59:10Z</time>
      </trkpt>
      <trkpt lat="44.12921" lon="3.36873">
        <ele>913</ele>
        <time>2019-05-22T21:59:21Z</time>
      </trkpt>
      <trkpt lat="44.129" lon="3.36838">
        <ele>912</ele>
        <time>2019-05-22T21:59:27Z</time>
      </trkpt>
      <trkpt lat="44.12882" lon="3.36792">
        <ele>910</ele>
        <time>2019-05-22T21:59:34Z</time>
      </trkpt>
      <trkpt lat="44.12873" lon="3.36746">
        <ele>911</ele>
        <time>2019-05-22T21:59:40Z</time>
      </trkpt>
      <trkpt lat="44.12869" lon="3.36709">
        <ele>911</ele>
        <time>2019-05-22T21:59:44Z</time>
      </trkpt>
      <trkpt lat="44.1287" lon="3.36677">
        <ele>911</ele>
        <time>2019-05-22T21:59:49Z</time>
      </trkpt>
      <trkpt lat="44.12877" lon="3.36645">
        <ele>911</ele>
        <time>2019-05-22T21:59:53Z</time>
      </trkpt>
      <trkpt lat="44.12888" lon="3.3662">
        <ele>912</ele>
        <time>2019-05-22T21:59:57Z</time>
      </trkpt>
      <trkpt lat="44.12932" lon="3.36557">
        <ele>914</ele>
        <time>2019-05-22T22:00:08Z</time>
      </trkpt>
      <trkpt lat="44.12939" lon="3.36538">
        <ele>914</ele>
        <time>2019-05-22T22:00:10Z</time>
      </trkpt>
      <trkpt lat="44.12943" lon="3.36519">
        <ele>914</ele>
        <time>2019-05-22T22:00:13Z</time>
      </trkpt>
      <trkpt lat="44.12941" lon="3.36492">
        <ele>913</ele>
        <time>2019-05-22T22:00:16Z</time>
      </trkpt>
      <trkpt lat="44.12935" lon="3.36466">
        <ele>911</ele>
        <time>2019-05-22T22:00:20Z</time>
      </trkpt>
      <trkpt lat="44.12935" lon="3.36441">
        <ele>911</ele>
        <time>2019-05-22T22:00:23Z</time>
      </trkpt>
      <trkpt lat="44.12941" lon="3.36415">
        <ele>911</ele>
        <time>2019-05-22T22:00:27Z</time>
      </trkpt>
      <trkpt lat="44.1296" lon="3.36365">
        <ele>913</ele>
        <time>2019-05-22T22:00:34Z</time>
      </trkpt>
      <trkpt lat="44.12968" lon="3.36334">
        <ele>913</ele>
        <time>2019-05-22T22:00:38Z</time>
      </trkpt>
      <trkpt lat="44.12968" lon="3.36309">
        <ele>914</ele>
        <time>2019-05-22T22:00:41Z</time>
      </trkpt>
      <trkpt lat="44.1296" lon="3.36282">
        <ele>914</ele>
        <time>2019-05-22T22:00:45Z</time>
      </trkpt>
      <trkpt lat="44.12945" lon="3.36259">
        <ele>912</ele>
        <time>2019-05-22T22:00:49Z</time>
      </trkpt>
      <trkpt lat="44.12898" lon="3.36199">
        <ele>908</ele>
        <time>2019-05-22T22:01:00Z</time>
      </trkpt>
      <trkpt lat="44.12886" lon="3.36171">
        <ele>908</ele>
        <time>2019-05-22T22:01:04Z</time>
      </trkpt>
      <trkpt lat="44.12881" lon="3.3614">
        <ele>907</ele>
        <time>2019-05-22T22:01:09Z</time>
      </trkpt>
      <trkpt lat="44.12884" lon="3.36108">
        <ele>907</ele>
        <time>2019-05-22T22:01:13Z</time>
      </trkpt>
      <trkpt lat="44.12893" lon="3.36075">
        <ele>907</ele>
        <time>2019-05-22T22:01:17Z</time>
      </trkpt>
      <trkpt lat="44.12914" lon="3.36039">
        <ele>908</ele>
        <time>2019-05-22T22:01:23Z</time>
      </trkpt>
      <trkpt lat="44.12932" lon="3.36017">
        <ele>907</ele>
        <time>2019-05-22T22:01:27Z</time>
      </trkpt>
      <trkpt lat="44.12963" lon="3.35998">
        <ele>908</ele>
        <time>2019-05-22T22:01:33Z</time>
      </trkpt>
      <trkpt lat="44.13076" lon="3.35952">
        <ele>910</ele>
        <time>2019-05-22T22:01:54Z</time>
      </trkpt>
      <trkpt lat="44.13098" lon="3.35939">
        <ele>911</ele>
        <time>2019-05-22T22:01:59Z</time>
      </trkpt>
      <trkpt lat="44.13115" lon="3.35922">
        <ele>911</ele>
        <time>2019-05-22T22:02:02Z</time>
      </trkpt>
      <trkpt lat="44.13127" lon="3.35895">
        <ele>910</ele>
        <time>2019-05-22T22:02:06Z</time>
      </trkpt>
      <trkpt lat="44.13132" lon="3.35866">
        <ele>909</ele>
        <time>2019-05-22T22:02:10Z</time>
      </trkpt>
      <trkpt lat="44.13136" lon="3.35767">
        <ele>909</ele>
        <time>2019-05-22T22:02:23Z</time>
      </trkpt>
      <trkpt lat="44.13141" lon="3.3573">
        <ele>909</ele>
        <time>2019-05-22T22:02:28Z</time>
      </trkpt>
      <trkpt lat="44.13152" lon="3.35697">
        <ele>910</ele>
        <time>2019-05-22T22:02:32Z</time>
      </trkpt>
      <trkpt lat="44.13166" lon="3.35679">
        <ele>911</ele>
        <time>2019-05-22T22:02:36Z</time>
      </trkpt>
      <trkpt lat="44.13187" lon="3.35665">
        <ele>911</ele>
        <time>2019-05-22T22:02:40Z</time>
      </trkpt>
      <trkpt lat="44.13202" lon="3.35662">
        <ele>911</ele>
        <time>2019-05-22T22:02:43Z</time>
      </trkpt>
      <trkpt lat="44.13228" lon="3.35667">
        <ele>912</ele>
        <time>2019-05-22T22:02:47Z</time>
      </trkpt>
      <trkpt lat="44.1326" lon="3.3568">
        <ele>913</ele>
        <time>2019-05-22T22:02:53Z</time>
      </trkpt>
      <trkpt lat="44.13276" lon="3.35681">
        <ele>914</ele>
        <time>2019-05-22T22:02:56Z</time>
      </trkpt>
      <trkpt lat="44.1329" lon="3.35676">
        <ele>915</ele>
        <time>2019-05-22T22:02:59Z</time>
      </trkpt>
      <trkpt lat="44.13298" lon="3.35667">
        <ele>915</ele>
        <time>2019-05-22T22:03:00Z</time>
      </trkpt>
      <trkpt lat="44.13307" lon="3.35646">
        <ele>915</ele>
        <time>2019-05-22T22:03:03Z</time>
      </trkpt>
      <trkpt lat="44.13326" lon="3.35578">
        <ele>912</ele>
        <time>2019-05-22T22:03:13Z</time>
      </trkpt>
      <trkpt lat="44.13348" lon="3.35507">
        <ele>911</ele>
        <time>2019-05-22T22:03:23Z</time>
      </trkpt>
      <trkpt lat="44.13359" lon="3.3549">
        <ele>911</ele>
        <time>2019-05-22T22:03:26Z</time>
      </trkpt>
      <trkpt lat="44.13499" lon="3.35358">
        <ele>914</ele>
        <time>2019-05-22T22:03:56Z</time>
      </trkpt>
      <trkpt lat="44.13539" lon="3.35309">
        <ele>913</ele>
        <time>2019-05-22T22:04:05Z</time>
      </trkpt>
      <trkpt lat="44.13565" lon="3.35265">
        <ele>912</ele>
        <time>2019-05-22T22:04:12Z</time>
      </trkpt>
      <trkpt lat="44.13616" lon="3.35145">
        <ele>911</ele>
        <time>2019-05-22T22:04:30Z</time>
      </trkpt>
      <trkpt lat="44.13647" lon="3.35053">
        <ele>913</ele>
        <time>2019-05-22T22:04:43Z</time>
      </trkpt>
      <trkpt lat="44.13657" lon="3.35018">
        <ele>914</ele>
        <time>2019-05-22T22:04:48Z</time>
      </trkpt>
      <trkpt lat="44.13663" lon="3.34983">
        <ele>915</ele>
        <time>2019-05-22T22:04:53Z</time>
      </trkpt>
      <trkpt lat="44.13663" lon="3.34949">
        <ele>915</ele>
        <time>2019-05-22T22:04:57Z</time>
      </trkpt>
      <trkpt lat="44.13655" lon="3.34912">
        <ele>914</ele>
        <time>2019-05-22T22:05:02Z</time>
      </trkpt>
      <trkpt lat="44.1364" lon="3.34872">
        <ele>914</ele>
        <time>2019-05-22T22:05:08Z</time>
      </trkpt>
      <trkpt lat="44.13615" lon="3.34811">
        <ele>914</ele>
        <time>2019-05-22T22:05:17Z</time>
      </trkpt>
      <trkpt lat="44.13601" lon="3.34768">
        <ele>914</ele>
        <time>2019-05-22T22:05:23Z</time>
      </trkpt>
      <trkpt lat="44.13595" lon="3.34732">
        <ele>915</ele>
        <time>2019-05-22T22:05:27Z</time>
      </trkpt>
      <trkpt lat="44.13593" lon="3.34687">
        <ele>917</ele>
        <time>2019-05-22T22:05:33Z</time>
      </trkpt>
      <trkpt lat="44.13595" lon="3.34622">
        <ele>919</ele>
        <time>2019-05-22T22:05:41Z</time>
      </trkpt>
      <trkpt lat="44.13592" lon="3.34567">
        <ele>920</ele>
        <time>2019-05-22T22:05:48Z</time>
      </trkpt>
      <trkpt lat="44.13583" lon="3.34503">
        <ele>922</ele>
        <time>2019-05-22T22:05:57Z</time>
      </trkpt>
      <trkpt lat="44.1358" lon="3.34473">
        <ele>921</ele>
        <time>2019-05-22T22:06:01Z</time>
      </trkpt>
      <trkpt lat="44.13582" lon="3.34441">
        <ele>921</ele>
        <time>2019-05-22T22:06:05Z</time>
      </trkpt>
      <trkpt lat="44.13591" lon="3.34407">
        <ele>922</ele>
        <time>2019-05-22T22:06:09Z</time>
      </trkpt>
      <trkpt lat="44.13602" lon="3.34379">
        <ele>922</ele>
        <time>2019-05-22T22:06:14Z</time>
      </trkpt>
      <trkpt lat="44.13618" lon="3.34348">
        <ele>923</ele>
        <time>2019-05-22T22:06:18Z</time>
      </trkpt>
      <trkpt lat="44.13636" lon="3.34323">
        <ele>923</ele>
        <time>2019-05-22T22:06:23Z</time>
      </trkpt>
      <trkpt lat="44.13661" lon="3.343">
        <ele>924</ele>
        <time>2019-05-22T22:06:28Z</time>
      </trkpt>
      <trkpt lat="44.13675" lon="3.34291">
        <ele>925</ele>
        <time>2019-05-22T22:06:31Z</time>
      </trkpt>
      <trkpt lat="44.13694" lon="3.34283">
        <ele>925</ele>
        <time>2019-05-22T22:06:35Z</time>
      </trkpt>
      <trkpt lat="44.13714" lon="3.3428">
        <ele>927</ele>
        <time>2019-05-22T22:06:38Z</time>
      </trkpt>
      <trkpt lat="44.13734" lon="3.34273">
        <ele>928</ele>
        <time>2019-05-22T22:06:42Z</time>
      </trkpt>
      <trkpt lat="44.13747" lon="3.34261">
        <ele>928</ele>
        <time>2019-05-22T22:06:45Z</time>
      </trkpt>
      <trkpt lat="44.13761" lon="3.34236">
        <ele>927</ele>
        <time>2019-05-22T22:06:49Z</time>
      </trkpt>
      <trkpt lat="44.13845" lon="3.33937">
        <ele>924</ele>
        <time>2019-05-22T22:07:30Z</time>
      </trkpt>
      <trkpt lat="44.13852" lon="3.33887">
        <ele>924</ele>
        <time>2019-05-22T22:07:36Z</time>
      </trkpt>
      <trkpt lat="44.13851" lon="3.33821">
        <ele>924</ele>
        <time>2019-05-22T22:07:45Z</time>
      </trkpt>
      <trkpt lat="44.13848" lon="3.33761">
        <ele>924</ele>
        <time>2019-05-22T22:07:52Z</time>
      </trkpt>
      <trkpt lat="44.13848" lon="3.33719">
        <ele>924</ele>
        <time>2019-05-22T22:07:58Z</time>
      </trkpt>
      <trkpt lat="44.13854" lon="3.33672">
        <ele>924</ele>
        <time>2019-05-22T22:08:04Z</time>
      </trkpt>
      <trkpt lat="44.13869" lon="3.33631">
        <ele>924</ele>
        <time>2019-05-22T22:08:10Z</time>
      </trkpt>
      <trkpt lat="44.13889" lon="3.33595">
        <ele>924</ele>
        <time>2019-05-22T22:08:15Z</time>
      </trkpt>
      <trkpt lat="44.13912" lon="3.33567">
        <ele>924</ele>
        <time>2019-05-22T22:08:21Z</time>
      </trkpt>
      <trkpt lat="44.13935" lon="3.33554">
        <ele>923</ele>
        <time>2019-05-22T22:08:25Z</time>
      </trkpt>
      <trkpt lat="44.14012" lon="3.33526">
        <ele>921</ele>
        <time>2019-05-22T22:08:39Z</time>
      </trkpt>
      <trkpt lat="44.14032" lon="3.33511">
        <ele>921</ele>
        <time>2019-05-22T22:08:43Z</time>
      </trkpt>
      <trkpt lat="44.14047" lon="3.33476">
        <ele>920</ele>
        <time>2019-05-22T22:08:49Z</time>
      </trkpt>
      <trkpt lat="44.14064" lon="3.33343">
        <ele>922</ele>
        <time>2019-05-22T22:09:06Z</time>
      </trkpt>
      <trkpt lat="44.14073" lon="3.33306">
        <ele>922</ele>
        <time>2019-05-22T22:09:11Z</time>
      </trkpt>
      <trkpt lat="44.14098" lon="3.33234">
        <ele>921</ele>
        <time>2019-05-22T22:09:21Z</time>
      </trkpt>
      <trkpt lat="44.14107" lon="3.33193">
        <ele>920</ele>
        <time>2019-05-22T22:09:27Z</time>
      </trkpt>
      <trkpt lat="44.1412" lon="3.33116">
        <ele>921</ele>
        <time>2019-05-22T22:09:37Z</time>
      </trkpt>
      <trkpt lat="44.1413" lon="3.33072">
        <ele>921</ele>
        <time>2019-05-22T22:09:43Z</time>
      </trkpt>
      <trkpt lat="44.1416" lon="3.32998">
        <ele>922</ele>
        <time>2019-05-22T22:09:53Z</time>
      </trkpt>
      <trkpt lat="44.14166" lon="3.32976">
        <ele>921</ele>
        <time>2019-05-22T22:09:56Z</time>
      </trkpt>
      <trkpt lat="44.14169" lon="3.32959">
        <ele>921</ele>
        <time>2019-05-22T22:09:59Z</time>
      </trkpt>
      <trkpt lat="44.14172" lon="3.32877">
        <ele>920</ele>
        <time>2019-05-22T22:10:09Z</time>
      </trkpt>
      <trkpt lat="44.14169" lon="3.32844">
        <ele>919</ele>
        <time>2019-05-22T22:10:13Z</time>
      </trkpt>
      <trkpt lat="44.14153" lon="3.32763">
        <ele>918</ele>
        <time>2019-05-22T22:10:24Z</time>
      </trkpt>
      <trkpt lat="44.14153" lon="3.32745">
        <ele>917</ele>
        <time>2019-05-22T22:10:26Z</time>
      </trkpt>
      <trkpt lat="44.1416" lon="3.3269">
        <ele>917</ele>
        <time>2019-05-22T22:10:33Z</time>
      </trkpt>
      <trkpt lat="44.14162" lon="3.3265">
        <ele>918</ele>
        <time>2019-05-22T22:10:39Z</time>
      </trkpt>
      <trkpt lat="44.14161" lon="3.32615">
        <ele>918</ele>
        <time>2019-05-22T22:10:43Z</time>
      </trkpt>
      <trkpt lat="44.14165" lon="3.32546">
        <ele>919</ele>
        <time>2019-05-22T22:10:52Z</time>
      </trkpt>
      <trkpt lat="44.1416" lon="3.32502">
        <ele>918</ele>
        <time>2019-05-22T22:10:58Z</time>
      </trkpt>
      <trkpt lat="44.14146" lon="3.3245">
        <ele>918</ele>
        <time>2019-05-22T22:11:05Z</time>
      </trkpt>
      <trkpt lat="44.14146" lon="3.32425">
        <ele>918</ele>
        <time>2019-05-22T22:11:08Z</time>
      </trkpt>
      <trkpt lat="44.1415" lon="3.32406">
        <ele>919</ele>
        <time>2019-05-22T22:11:10Z</time>
      </trkpt>
      <trkpt lat="44.14158" lon="3.32392">
        <ele>919</ele>
        <time>2019-05-22T22:11:13Z</time>
      </trkpt>
      <trkpt lat="44.14169" lon="3.32382">
        <ele>919</ele>
        <time>2019-05-22T22:11:15Z</time>
      </trkpt>
      <trkpt lat="44.14191" lon="3.32375">
        <ele>918</ele>
        <time>2019-05-22T22:11:19Z</time>
      </trkpt>
      <trkpt lat="44.1422" lon="3.32371">
        <ele>917</ele>
        <time>2019-05-22T22:11:24Z</time>
      </trkpt>
      <trkpt lat="44.14241" lon="3.32374">
        <ele>916</ele>
        <time>2019-05-22T22:11:28Z</time>
      </trkpt>
      <trkpt lat="44.14256" lon="3.3238">
        <ele>916</ele>
        <time>2019-05-22T22:11:31Z</time>
      </trkpt>
      <trkpt lat="44.14291" lon="3.32409">
        <ele>917</ele>
        <time>2019-05-22T22:11:38Z</time>
      </trkpt>
      <trkpt lat="44.14301" lon="3.3241">
        <ele>917</ele>
        <time>2019-05-22T22:11:40Z</time>
      </trkpt>
      <trkpt lat="44.14311" lon="3.32404">
        <ele>916</ele>
        <time>2019-05-22T22:11:42Z</time>
      </trkpt>
      <trkpt lat="44.14316" lon="3.32392">
        <ele>916</ele>
        <time>2019-05-22T22:11:44Z</time>
      </trkpt>
      <trkpt lat="44.14364" lon="3.32245">
        <ele>908</ele>
        <time>2019-05-22T22:12:04Z</time>
      </trkpt>
      <trkpt lat="44.14375" lon="3.32226">
        <ele>908</ele>
        <time>2019-05-22T22:12:07Z</time>
      </trkpt>
      <trkpt lat="44.14384" lon="3.32213">
        <ele>907</ele>
        <time>2019-05-22T22:12:10Z</time>
      </trkpt>
      <trkpt lat="44.14402" lon="3.322">
        <ele>907</ele>
        <time>2019-05-22T22:12:13Z</time>
      </trkpt>
      <trkpt lat="44.14444" lon="3.32184">
        <ele>906</ele>
        <time>2019-05-22T22:12:21Z</time>
      </trkpt>
      <trkpt lat="44.14462" lon="3.32171">
        <ele>905</ele>
        <time>2019-05-22T22:12:25Z</time>
      </trkpt>
      <trkpt lat="44.14481" lon="3.32153">
        <ele>904</ele>
        <time>2019-05-22T22:12:29Z</time>
      </trkpt>
      <trkpt lat="44.14504" lon="3.32132">
        <ele>902</ele>
        <time>2019-05-22T22:12:34Z</time>
      </trkpt>
      <trkpt lat="44.14614" lon="3.32045">
        <ele>896</ele>
        <time>2019-05-22T22:12:56Z</time>
      </trkpt>
      <trkpt lat="44.14641" lon="3.32028">
        <ele>895</ele>
        <time>2019-05-22T22:13:01Z</time>
      </trkpt>
      <trkpt lat="44.1465" lon="3.32018">
        <ele>894</ele>
        <time>2019-05-22T22:13:03Z</time>
      </trkpt>
      <trkpt lat="44.14654" lon="3.32006">
        <ele>894</ele>
        <time>2019-05-22T22:13:05Z</time>
      </trkpt>
      <trkpt lat="44.14652" lon="3.31954">
        <ele>893</ele>
        <time>2019-05-22T22:13:12Z</time>
      </trkpt>
      <trkpt lat="44.14659" lon="3.31925">
        <ele>893</ele>
        <time>2019-05-22T22:13:16Z</time>
      </trkpt>
      <trkpt lat="44.14667" lon="3.31911">
        <ele>892</ele>
        <time>2019-05-22T22:13:18Z</time>
      </trkpt>
      <trkpt lat="44.14679" lon="3.31895">
        <ele>891</ele>
        <time>2019-05-22T22:13:21Z</time>
      </trkpt>
      <trkpt lat="44.14702" lon="3.31871">
        <ele>890</ele>
        <time>2019-05-22T22:13:26Z</time>
      </trkpt>
      <trkpt lat="44.1472" lon="3.31848">
        <ele>889</ele>
        <time>2019-05-22T22:13:30Z</time>
      </trkpt>
      <trkpt lat="44.14734" lon="3.31822">
        <ele>888</ele>
        <time>2019-05-22T22:13:34Z</time>
      </trkpt>
      <trkpt lat="44.14745" lon="3.31789">
        <ele>887</ele>
        <time>2019-05-22T22:13:39Z</time>
      </trkpt>
      <trkpt lat="44.14754" lon="3.31735">
        <ele>886</ele>
        <time>2019-05-22T22:13:46Z</time>
      </trkpt>
      <trkpt lat="44.14779" lon="3.31561">
        <ele>884</ele>
        <time>2019-05-22T22:14:09Z</time>
      </trkpt>
      <trkpt lat="44.14787" lon="3.31539">
        <ele>883</ele>
        <time>2019-05-22T22:14:12Z</time>
      </trkpt>
      <trkpt lat="44.14795" lon="3.31524">
        <ele>883</ele>
        <time>2019-05-22T22:14:14Z</time>
      </trkpt>
      <trkpt lat="44.14816" lon="3.31503">
        <ele>882</ele>
        <time>2019-05-22T22:14:19Z</time>
      </trkpt>
      <trkpt lat="44.14878" lon="3.31462">
        <ele>881</ele>
        <time>2019-05-22T22:14:31Z</time>
      </trkpt>
      <trkpt lat="44.14895" lon="3.3144">
        <ele>880</ele>
        <time>2019-05-22T22:14:35Z</time>
      </trkpt>
      <trkpt lat="44.14906" lon="3.31411">
        <ele>880</ele>
        <time>2019-05-22T22:14:39Z</time>
      </trkpt>
      <trkpt lat="44.14911" lon="3.31385">
        <ele>880</ele>
        <time>2019-05-22T22:14:43Z</time>
      </trkpt>
      <trkpt lat="44.14916" lon="3.31186">
        <ele>876</ele>
        <time>2019-05-22T22:15:08Z</time>
      </trkpt>
      <trkpt lat="44.14919" lon="3.31161">
        <ele>876</ele>
        <time>2019-05-22T22:15:12Z</time>
      </trkpt>
      <trkpt lat="44.14947" lon="3.31058">
        <ele>876</ele>
        <time>2019-05-22T22:15:26Z</time>
      </trkpt>
      <trkpt lat="44.14955" lon="3.31034">
        <ele>875</ele>
        <time>2019-05-22T22:15:29Z</time>
      </trkpt>
      <trkpt lat="44.14964" lon="3.31018">
        <ele>875</ele>
        <time>2019-05-22T22:15:32Z</time>
      </trkpt>
      <trkpt lat="44.14976" lon="3.31005">
        <ele>874</ele>
        <time>2019-05-22T22:15:34Z</time>
      </trkpt>
      <trkpt lat="44.14992" lon="3.30992">
        <ele>874</ele>
        <time>2019-05-22T22:15:38Z</time>
      </trkpt>
      <trkpt lat="44.15018" lon="3.3098">
        <ele>873</ele>
        <time>2019-05-22T22:15:42Z</time>
      </trkpt>
      <trkpt lat="44.15048" lon="3.30971">
        <ele>871</ele>
        <time>2019-05-22T22:15:48Z</time>
      </trkpt>
      <trkpt lat="44.15093" lon="3.3096">
        <ele>870</ele>
        <time>2019-05-22T22:15:56Z</time>
      </trkpt>
      <trkpt lat="44.15108" lon="3.30952">
        <ele>871</ele>
        <time>2019-05-22T22:15:59Z</time>
      </trkpt>
      <trkpt lat="44.15116" lon="3.30939">
        <ele>872</ele>
        <time>2019-05-22T22:16:01Z</time>
      </trkpt>
      <trkpt lat="44.15121" lon="3.3092">
        <ele>872</ele>
        <time>2019-05-22T22:16:04Z</time>
      </trkpt>
      <trkpt lat="44.1512" lon="3.30903">
        <ele>872</ele>
        <time>2019-05-22T22:16:06Z</time>
      </trkpt>
      <trkpt lat="44.15117" lon="3.30885">
        <ele>872</ele>
        <time>2019-05-22T22:16:08Z</time>
      </trkpt>
      <trkpt lat="44.15102" lon="3.30846">
        <ele>870</ele>
        <time>2019-05-22T22:16:14Z</time>
      </trkpt>
      <trkpt lat="44.15074" lon="3.30801">
        <ele>868</ele>
        <time>2019-05-22T22:16:21Z</time>
      </trkpt>
      <trkpt lat="44.15061" lon="3.30769">
        <ele>867</ele>
        <time>2019-05-22T22:16:26Z</time>
      </trkpt>
      <trkpt lat="44.15059" lon="3.30747">
        <ele>866</ele>
        <time>2019-05-22T22:16:29Z</time>
      </trkpt>
      <trkpt lat="44.15066" lon="3.30723">
        <ele>866</ele>
        <time>2019-05-22T22:16:32Z</time>
      </trkpt>
      <trkpt lat="44.15079" lon="3.30695">
        <ele>865</ele>
        <time>2019-05-22T22:16:37Z</time>
      </trkpt>
      <trkpt lat="44.15129" lon="3.30612">
        <ele>864</ele>
        <time>2019-05-22T22:16:50Z</time>
      </trkpt>
      <trkpt lat="44.15143" lon="3.30593">
        <ele>863</ele>
        <time>2019-05-22T22:16:54Z</time>
      </trkpt>
      <trkpt lat="44.15185" lon="3.3055">
        <ele>862</ele>
        <time>2019-05-22T22:17:03Z</time>
      </trkpt>
      <trkpt lat="44.15255" lon="3.30494">
        <ele>859</ele>
        <time>2019-05-22T22:17:18Z</time>
      </trkpt>
      <trkpt lat="44.15273" lon="3.30485">
        <ele>859</ele>
        <time>2019-05-22T22:17:21Z</time>
      </trkpt>
      <trkpt lat="44.15289" lon="3.30482">
        <ele>858</ele>
        <time>2019-05-22T22:17:24Z</time>
      </trkpt>
      <trkpt lat="44.15329" lon="3.3048">
        <ele>859</ele>
        <time>2019-05-22T22:17:31Z</time>
      </trkpt>
      <trkpt lat="44.15341" lon="3.30477">
        <ele>859</ele>
        <time>2019-05-22T22:17:33Z</time>
      </trkpt>
      <trkpt lat="44.15352" lon="3.30468">
        <ele>860</ele>
        <time>2019-05-22T22:17:35Z</time>
      </trkpt>
      <trkpt lat="44.1536" lon="3.30457">
        <ele>860</ele>
        <time>2019-05-22T22:17:37Z</time>
      </trkpt>
      <trkpt lat="44.15364" lon="3.30445">
        <ele>861</ele>
        <time>2019-05-22T22:17:39Z</time>
      </trkpt>
      <trkpt lat="44.15365" lon="3.30431">
        <ele>861</ele>
        <time>2019-05-22T22:17:41Z</time>
      </trkpt>
      <trkpt lat="44.15363" lon="3.30414">
        <ele>860</ele>
        <time>2019-05-22T22:17:43Z</time>
      </trkpt>
      <trkpt lat="44.15348" lon="3.30371">
        <ele>857</ele>
        <time>2019-05-22T22:17:49Z</time>
      </trkpt>
      <trkpt lat="44.15346" lon="3.30356">
        <ele>857</ele>
        <time>2019-05-22T22:17:51Z</time>
      </trkpt>
      <trkpt lat="44.15346" lon="3.30337">
        <ele>856</ele>
        <time>2019-05-22T22:17:54Z</time>
      </trkpt>
      <trkpt lat="44.15395" lon="3.30113">
        <ele>854</ele>
        <time>2019-05-22T22:18:23Z</time>
      </trkpt>
      <trkpt lat="44.15403" lon="3.30095">
        <ele>853</ele>
        <time>2019-05-22T22:18:26Z</time>
      </trkpt>
      <trkpt lat="44.15414" lon="3.30078">
        <ele>853</ele>
        <time>2019-05-22T22:18:29Z</time>
      </trkpt>
      <trkpt lat="44.15427" lon="3.30064">
        <ele>852</ele>
        <time>2019-05-22T22:18:32Z</time>
      </trkpt>
      <trkpt lat="44.15613" lon="3.29916">
        <ele>843</ele>
        <time>2019-05-22T22:19:10Z</time>
      </trkpt>
      <trkpt lat="44.15683" lon="3.29853">
        <ele>839</ele>
        <time>2019-05-22T22:19:25Z</time>
      </trkpt>
      <trkpt lat="44.15801" lon="3.29732">
        <ele>833</ele>
        <time>2019-05-22T22:19:51Z</time>
      </trkpt>
      <trkpt lat="44.1584" lon="3.29687">
        <ele>832</ele>
        <time>2019-05-22T22:20:00Z</time>
      </trkpt>
      <trkpt lat="44.15853" lon="3.29667">
        <ele>831</ele>
        <time>2019-05-22T22:20:03Z</time>
      </trkpt>
      <trkpt lat="44.15866" lon="3.29638">
        <ele>831</ele>
        <time>2019-05-22T22:20:08Z</time>
      </trkpt>
      <trkpt lat="44.15882" lon="3.29592">
        <ele>831</ele>
        <time>2019-05-22T22:20:14Z</time>
      </trkpt>
      <trkpt lat="44.16118" lon="3.28813">
        <ele>841</ele>
        <time>2019-05-22T22:22:02Z</time>
      </trkpt>
      <trkpt lat="44.16172" lon="3.28644">
        <ele>840</ele>
        <time>2019-05-22T22:22:26Z</time>
      </trkpt>
      <trkpt lat="44.16273" lon="3.28314">
        <ele>844</ele>
        <time>2019-05-22T22:23:12Z</time>
      </trkpt>
      <trkpt lat="44.16333" lon="3.28169">
        <ele>843</ele>
        <time>2019-05-22T22:23:33Z</time>
      </trkpt>
      <trkpt lat="44.16364" lon="3.28088">
        <ele>841</ele>
        <time>2019-05-22T22:23:45Z</time>
      </trkpt>
      <trkpt lat="44.16389" lon="3.28032">
        <ele>841</ele>
        <time>2019-05-22T22:23:53Z</time>
      </trkpt>
      <trkpt lat="44.16394" lon="3.27995">
        <ele>841</ele>
        <time>2019-05-22T22:23:58Z</time>
      </trkpt>
      <trkpt lat="44.16389" lon="3.27882">
        <ele>842</ele>
        <time>2019-05-22T22:24:12Z</time>
      </trkpt>
      <trkpt lat="44.16395" lon="3.27834">
        <ele>841</ele>
        <time>2019-05-22T22:24:19Z</time>
      </trkpt>
      <trkpt lat="44.16421" lon="3.27503">
        <ele>842</ele>
        <time>2019-05-22T22:25:01Z</time>
      </trkpt>
      <trkpt lat="44.16434" lon="3.27375">
        <ele>843</ele>
        <time>2019-05-22T22:25:18Z</time>
      </trkpt>
      <trkpt lat="44.16446" lon="3.2724">
        <ele>844</ele>
        <time>2019-05-22T22:25:35Z</time>
      </trkpt>
      <trkpt lat="44.16454" lon="3.27098">
        <ele>847</ele>
        <time>2019-05-22T22:25:53Z</time>
      </trkpt>
      <trkpt lat="44.16479" lon="3.26814">
        <ele>852</ele>
        <time>2019-05-22T22:26:30Z</time>
      </trkpt>
      <trkpt lat="44.16484" lon="3.26782">
        <ele>852</ele>
        <time>2019-05-22T22:26:34Z</time>
      </trkpt>
      <trkpt lat="44.16555" lon="3.26537">
        <ele>854</ele>
        <time>2019-05-22T22:27:08Z</time>
      </trkpt>
      <trkpt lat="44.16555" lon="3.26537">
        <ele>854</ele>
        <time>2019-05-22T22:27:08Z</time>
      </trkpt>
      <trkpt lat="44.16621" lon="3.263">
        <ele>862</ele>
        <time>2019-05-22T22:27:40Z</time>
      </trkpt>
      <trkpt lat="44.16634" lon="3.26265">
        <ele>864</ele>
        <time>2019-05-22T22:27:45Z</time>
      </trkpt>
      <trkpt lat="44.16655" lon="3.26244">
        <ele>866</ele>
        <time>2019-05-22T22:27:50Z</time>
      </trkpt>
      <trkpt lat="44.16705" lon="3.26161">
        <ele>871</ele>
        <time>2019-05-22T22:28:03Z</time>
      </trkpt>
      <trkpt lat="44.16707" lon="3.26145">
        <ele>872</ele>
        <time>2019-05-22T22:28:06Z</time>
      </trkpt>
      <trkpt lat="44.16704" lon="3.26109">
        <ele>873</ele>
        <time>2019-05-22T22:28:10Z</time>
      </trkpt>
      <trkpt lat="44.16704" lon="3.26094">
        <ele>874</ele>
        <time>2019-05-22T22:28:12Z</time>
      </trkpt>
      <trkpt lat="44.16712" lon="3.26063">
        <ele>876</ele>
        <time>2019-05-22T22:28:16Z</time>
      </trkpt>
      <trkpt lat="44.16713" lon="3.2605">
        <ele>877</ele>
        <time>2019-05-22T22:28:18Z</time>
      </trkpt>
      <trkpt lat="44.16702" lon="3.2602">
        <ele>879</ele>
        <time>2019-05-22T22:28:22Z</time>
      </trkpt>
      <trkpt lat="44.16701" lon="3.26006">
        <ele>880</ele>
        <time>2019-05-22T22:28:24Z</time>
      </trkpt>
      <trkpt lat="44.16704" lon="3.25991">
        <ele>881</ele>
        <time>2019-05-22T22:28:26Z</time>
      </trkpt>
      <trkpt lat="44.1671" lon="3.25979">
        <ele>882</ele>
        <time>2019-05-22T22:28:28Z</time>
      </trkpt>
      <trkpt lat="44.16742" lon="3.25935">
        <ele>883</ele>
        <time>2019-05-22T22:28:36Z</time>
      </trkpt>
      <trkpt lat="44.16751" lon="3.25914">
        <ele>884</ele>
        <time>2019-05-22T22:28:39Z</time>
      </trkpt>
      <trkpt lat="44.16753" lon="3.25903">
        <ele>885</ele>
        <time>2019-05-22T22:28:41Z</time>
      </trkpt>
      <trkpt lat="44.16755" lon="3.25885">
        <ele>885</ele>
        <time>2019-05-22T22:28:43Z</time>
      </trkpt>
      <trkpt lat="44.16756" lon="3.25844">
        <ele>886</ele>
        <time>2019-05-22T22:28:48Z</time>
      </trkpt>
      <trkpt lat="44.16761" lon="3.25795">
        <ele>887</ele>
        <time>2019-05-22T22:28:54Z</time>
      </trkpt>
      <trkpt lat="44.16773" lon="3.25745">
        <ele>888</ele>
        <time>2019-05-22T22:29:01Z</time>
      </trkpt>
      <trkpt lat="44.16805" lon="3.25641">
        <ele>892</ele>
        <time>2019-05-22T22:29:16Z</time>
      </trkpt>
      <trkpt lat="44.16808" lon="3.25619">
        <ele>893</ele>
        <time>2019-05-22T22:29:18Z</time>
      </trkpt>
      <trkpt lat="44.16805" lon="3.25604">
        <ele>894</ele>
        <time>2019-05-22T22:29:20Z</time>
      </trkpt>
      <trkpt lat="44.16791" lon="3.2559">
        <ele>894</ele>
        <time>2019-05-22T22:29:23Z</time>
      </trkpt>
      <trkpt lat="44.16778" lon="3.25568">
        <ele>894</ele>
        <time>2019-05-22T22:29:27Z</time>
      </trkpt>
      <trkpt lat="44.16774" lon="3.25553">
        <ele>895</ele>
        <time>2019-05-22T22:29:29Z</time>
      </trkpt>
      <trkpt lat="44.16781" lon="3.25512">
        <ele>897</ele>
        <time>2019-05-22T22:29:35Z</time>
      </trkpt>
      <trkpt lat="44.1678" lon="3.25491">
        <ele>898</ele>
        <time>2019-05-22T22:29:37Z</time>
      </trkpt>
      <trkpt lat="44.16776" lon="3.25475">
        <ele>898</ele>
        <time>2019-05-22T22:29:39Z</time>
      </trkpt>
      <trkpt lat="44.16766" lon="3.25457">
        <ele>897</ele>
        <time>2019-05-22T22:29:42Z</time>
      </trkpt>
      <trkpt lat="44.16749" lon="3.2543">
        <ele>897</ele>
        <time>2019-05-22T22:29:47Z</time>
      </trkpt>
      <trkpt lat="44.16741" lon="3.25407">
        <ele>897</ele>
        <time>2019-05-22T22:29:50Z</time>
      </trkpt>
      <trkpt lat="44.16736" lon="3.25377">
        <ele>897</ele>
        <time>2019-05-22T22:29:54Z</time>
      </trkpt>
      <trkpt lat="44.16737" lon="3.25248">
        <ele>893</ele>
        <time>2019-05-22T22:30:11Z</time>
      </trkpt>
      <trkpt lat="44.16749" lon="3.25179">
        <ele>890</ele>
        <time>2019-05-22T22:30:20Z</time>
      </trkpt>
      <trkpt lat="44.16769" lon="3.25121">
        <ele>888</ele>
        <time>2019-05-22T22:30:28Z</time>
      </trkpt>
      <trkpt lat="44.16771" lon="3.25093">
        <ele>887</ele>
        <time>2019-05-22T22:30:31Z</time>
      </trkpt>
      <trkpt lat="44.16777" lon="3.25063">
        <ele>885</ele>
        <time>2019-05-22T22:30:35Z</time>
      </trkpt>
      <trkpt lat="44.16789" lon="3.25043">
        <ele>883</ele>
        <time>2019-05-22T22:30:39Z</time>
      </trkpt>
      <trkpt lat="44.16807" lon="3.25029">
        <ele>881</ele>
        <time>2019-05-22T22:30:42Z</time>
      </trkpt>
      <trkpt lat="44.16826" lon="3.25025">
        <ele>879</ele>
        <time>2019-05-22T22:30:46Z</time>
      </trkpt>
      <trkpt lat="44.16838" lon="3.25013">
        <ele>878</ele>
        <time>2019-05-22T22:30:48Z</time>
      </trkpt>
      <trkpt lat="44.16841" lon="3.24993">
        <ele>876</ele>
        <time>2019-05-22T22:30:51Z</time>
      </trkpt>
      <trkpt lat="44.16844" lon="3.24953">
        <ele>874</ele>
        <time>2019-05-22T22:30:56Z</time>
      </trkpt>
      <trkpt lat="44.16851" lon="3.24927">
        <ele>872</ele>
        <time>2019-05-22T22:31:00Z</time>
      </trkpt>
      <trkpt lat="44.16904" lon="3.24851">
        <ele>867</ele>
        <time>2019-05-22T22:31:13Z</time>
      </trkpt>
      <trkpt lat="44.16934" lon="3.24801">
        <ele>865</ele>
        <time>2019-05-22T22:31:22Z</time>
      </trkpt>
      <trkpt lat="44.16966" lon="3.24742">
        <ele>861</ele>
        <time>2019-05-22T22:31:31Z</time>
      </trkpt>
      <trkpt lat="44.16993" lon="3.24717">
        <ele>859</ele>
        <time>2019-05-22T22:31:37Z</time>
      </trkpt>
      <trkpt lat="44.1704" lon="3.24667">
        <ele>855</ele>
        <time>2019-05-22T22:31:47Z</time>
      </trkpt>
      <trkpt lat="44.17072" lon="3.24653">
        <ele>853</ele>
        <time>2019-05-22T22:31:53Z</time>
      </trkpt>
      <trkpt lat="44.17146" lon="3.24607">
        <ele>850</ele>
        <time>2019-05-22T22:32:08Z</time>
      </trkpt>
      <trkpt lat="44.17172" lon="3.24601">
        <ele>850</ele>
        <time>2019-05-22T22:32:12Z</time>
      </trkpt>
      <trkpt lat="44.17181" lon="3.24595">
        <ele>851</ele>
        <time>2019-05-22T22:32:14Z</time>
      </trkpt>
      <trkpt lat="44.17189" lon="3.24582">
        <ele>851</ele>
        <time>2019-05-22T22:32:16Z</time>
      </trkpt>
      <trkpt lat="44.17191" lon="3.24575">
        <ele>852</ele>
        <time>2019-05-22T22:32:17Z</time>
      </trkpt>
      <trkpt lat="44.1719" lon="3.24557">
        <ele>853</ele>
        <time>2019-05-22T22:32:20Z</time>
      </trkpt>
      <trkpt lat="44.17187" lon="3.24549">
        <ele>853</ele>
        <time>2019-05-22T22:32:21Z</time>
      </trkpt>
      <trkpt lat="44.17175" lon="3.2454">
        <ele>852</ele>
        <time>2019-05-22T22:32:23Z</time>
      </trkpt>
      <trkpt lat="44.17154" lon="3.24545">
        <ele>851</ele>
        <time>2019-05-22T22:32:27Z</time>
      </trkpt>
      <trkpt lat="44.17141" lon="3.24545">
        <ele>851</ele>
        <time>2019-05-22T22:32:29Z</time>
      </trkpt>
      <trkpt lat="44.1711" lon="3.24541">
        <ele>850</ele>
        <time>2019-05-22T22:32:35Z</time>
      </trkpt>
      <trkpt lat="44.17101" lon="3.24539">
        <ele>850</ele>
        <time>2019-05-22T22:32:36Z</time>
      </trkpt>
      <trkpt lat="44.17093" lon="3.24531">
        <ele>850</ele>
        <time>2019-05-22T22:32:38Z</time>
      </trkpt>
      <trkpt lat="44.17086" lon="3.24521">
        <ele>850</ele>
        <time>2019-05-22T22:32:40Z</time>
      </trkpt>
      <trkpt lat="44.17075" lon="3.2449">
        <ele>852</ele>
        <time>2019-05-22T22:32:44Z</time>
      </trkpt>
      <trkpt lat="44.17069" lon="3.24477">
        <ele>853</ele>
        <time>2019-05-22T22:32:46Z</time>
      </trkpt>
      <trkpt lat="44.17033" lon="3.24439">
        <ele>852</ele>
        <time>2019-05-22T22:32:54Z</time>
      </trkpt>
      <trkpt lat="44.17023" lon="3.24426">
        <ele>851</ele>
        <time>2019-05-22T22:32:57Z</time>
      </trkpt>
      <trkpt lat="44.17018" lon="3.2436">
        <ele>850</ele>
        <time>2019-05-22T22:33:05Z</time>
      </trkpt>
      <trkpt lat="44.1701" lon="3.24326">
        <ele>848</ele>
        <time>2019-05-22T22:33:10Z</time>
      </trkpt>
      <trkpt lat="44.17001" lon="3.24303">
        <ele>848</ele>
        <time>2019-05-22T22:33:13Z</time>
      </trkpt>
      <trkpt lat="44.16931" lon="3.24182">
        <ele>841</ele>
        <time>2019-05-22T22:33:33Z</time>
      </trkpt>
      <trkpt lat="44.16924" lon="3.2416">
        <ele>841</ele>
        <time>2019-05-22T22:33:36Z</time>
      </trkpt>
      <trkpt lat="44.16924" lon="3.2414">
        <ele>841</ele>
        <time>2019-05-22T22:33:39Z</time>
      </trkpt>
      <trkpt lat="44.16929" lon="3.24108">
        <ele>843</ele>
        <time>2019-05-22T22:33:43Z</time>
      </trkpt>
      <trkpt lat="44.16933" lon="3.24067">
        <ele>844</ele>
        <time>2019-05-22T22:33:48Z</time>
      </trkpt>
      <trkpt lat="44.16932" lon="3.24046">
        <ele>844</ele>
        <time>2019-05-22T22:33:51Z</time>
      </trkpt>
      <trkpt lat="44.1692" lon="3.24001">
        <ele>843</ele>
        <time>2019-05-22T22:33:57Z</time>
      </trkpt>
      <trkpt lat="44.16922" lon="3.23986">
        <ele>842</ele>
        <time>2019-05-22T22:33:59Z</time>
      </trkpt>
      <trkpt lat="44.16929" lon="3.23971">
        <ele>843</ele>
        <time>2019-05-22T22:34:01Z</time>
      </trkpt>
      <trkpt lat="44.17015" lon="3.23838">
        <ele>850</ele>
        <time>2019-05-22T22:34:24Z</time>
      </trkpt>
      <trkpt lat="44.17035" lon="3.23803">
        <ele>853</ele>
        <time>2019-05-22T22:34:30Z</time>
      </trkpt>
      <trkpt lat="44.17039" lon="3.23782">
        <ele>854</ele>
        <time>2019-05-22T22:34:32Z</time>
      </trkpt>
      <trkpt lat="44.17037" lon="3.23762">
        <ele>854</ele>
        <time>2019-05-22T22:34:35Z</time>
      </trkpt>
      <trkpt lat="44.17028" lon="3.2375">
        <ele>852</ele>
        <time>2019-05-22T22:34:37Z</time>
      </trkpt>
      <trkpt lat="44.17005" lon="3.23734">
        <ele>849</ele>
        <time>2019-05-22T22:34:42Z</time>
      </trkpt>
      <trkpt lat="44.16993" lon="3.23716">
        <ele>849</ele>
        <time>2019-05-22T22:34:45Z</time>
      </trkpt>
      <trkpt lat="44.1699" lon="3.23701">
        <ele>849</ele>
        <time>2019-05-22T22:34:47Z</time>
      </trkpt>
      <trkpt lat="44.1699" lon="3.2365">
        <ele>854</ele>
        <time>2019-05-22T22:34:53Z</time>
      </trkpt>
      <trkpt lat="44.16988" lon="3.23636">
        <ele>855</ele>
        <time>2019-05-22T22:34:55Z</time>
      </trkpt>
      <trkpt lat="44.16968" lon="3.23602">
        <ele>854</ele>
        <time>2019-05-22T22:35:01Z</time>
      </trkpt>
      <trkpt lat="44.16966" lon="3.23564">
        <ele>858</ele>
        <time>2019-05-22T22:35:06Z</time>
      </trkpt>
      <trkpt lat="44.16962" lon="3.23547">
        <ele>859</ele>
        <time>2019-05-22T22:35:08Z</time>
      </trkpt>
      <trkpt lat="44.16949" lon="3.23526">
        <ele>858</ele>
        <time>2019-05-22T22:35:12Z</time>
      </trkpt>
      <trkpt lat="44.16933" lon="3.23506">
        <ele>857</ele>
        <time>2019-05-22T22:35:15Z</time>
      </trkpt>
      <trkpt lat="44.1692" lon="3.23477">
        <ele>858</ele>
        <time>2019-05-22T22:35:20Z</time>
      </trkpt>
      <trkpt lat="44.169" lon="3.23451">
        <ele>857</ele>
        <time>2019-05-22T22:35:25Z</time>
      </trkpt>
      <trkpt lat="44.16881" lon="3.23423">
        <ele>857</ele>
        <time>2019-05-22T22:35:30Z</time>
      </trkpt>
      <trkpt lat="44.16848" lon="3.23396">
        <ele>855</ele>
        <time>2019-05-22T22:35:36Z</time>
      </trkpt>
      <trkpt lat="44.168" lon="3.23342">
        <ele>857</ele>
        <time>2019-05-22T22:35:47Z</time>
      </trkpt>
      <trkpt lat="44.16792" lon="3.23323">
        <ele>858</ele>
        <time>2019-05-22T22:35:50Z</time>
      </trkpt>
      <trkpt lat="44.16785" lon="3.23296">
        <ele>861</ele>
        <time>2019-05-22T22:35:54Z</time>
      </trkpt>
      <trkpt lat="44.16777" lon="3.23285">
        <ele>861</ele>
        <time>2019-05-22T22:35:56Z</time>
      </trkpt>
      <trkpt lat="44.16733" lon="3.23251">
        <ele>859</ele>
        <time>2019-05-22T22:36:05Z</time>
      </trkpt>
      <trkpt lat="44.16717" lon="3.23231">
        <ele>858</ele>
        <time>2019-05-22T22:36:09Z</time>
      </trkpt>
      <trkpt lat="44.16709" lon="3.2321">
        <ele>859</ele>
        <time>2019-05-22T22:36:12Z</time>
      </trkpt>
      <trkpt lat="44.16705" lon="3.23193">
        <ele>860</ele>
        <time>2019-05-22T22:36:14Z</time>
      </trkpt>
      <trkpt lat="44.16705" lon="3.23163">
        <ele>862</ele>
        <time>2019-05-22T22:36:18Z</time>
      </trkpt>
      <trkpt lat="44.16713" lon="3.23073">
        <ele>864</ele>
        <time>2019-05-22T22:36:29Z</time>
      </trkpt>
      <trkpt lat="44.16714" lon="3.23052">
        <ele>864</ele>
        <time>2019-05-22T22:36:32Z</time>
      </trkpt>
      <trkpt lat="44.16709" lon="3.23032">
        <ele>864</ele>
        <time>2019-05-22T22:36:35Z</time>
      </trkpt>
      <trkpt lat="44.16702" lon="3.23012">
        <ele>864</ele>
        <time>2019-05-22T22:36:38Z</time>
      </trkpt>
      <trkpt lat="44.16702" lon="3.22996">
        <ele>864</ele>
        <time>2019-05-22T22:36:40Z</time>
      </trkpt>
      <trkpt lat="44.16709" lon="3.22979">
        <ele>863</ele>
        <time>2019-05-22T22:36:42Z</time>
      </trkpt>
      <trkpt lat="44.16767" lon="3.22889">
        <ele>869</ele>
        <time>2019-05-22T22:36:58Z</time>
      </trkpt>
      <trkpt lat="44.16769" lon="3.22878">
        <ele>870</ele>
        <time>2019-05-22T22:36:59Z</time>
      </trkpt>
      <trkpt lat="44.16769" lon="3.22866">
        <ele>870</ele>
        <time>2019-05-22T22:37:01Z</time>
      </trkpt>
      <trkpt lat="44.16761" lon="3.22853">
        <ele>869</ele>
        <time>2019-05-22T22:37:03Z</time>
      </trkpt>
      <trkpt lat="44.16715" lon="3.22828">
        <ele>861</ele>
        <time>2019-05-22T22:37:11Z</time>
      </trkpt>
      <trkpt lat="44.16703" lon="3.22812">
        <ele>859</ele>
        <time>2019-05-22T22:37:14Z</time>
      </trkpt>
      <trkpt lat="44.16696" lon="3.22793">
        <ele>858</ele>
        <time>2019-05-22T22:37:17Z</time>
      </trkpt>
      <trkpt lat="44.16694" lon="3.22767">
        <ele>858</ele>
        <time>2019-05-22T22:37:21Z</time>
      </trkpt>
      <trkpt lat="44.1671" lon="3.22621">
        <ele>852</ele>
        <time>2019-05-22T22:37:39Z</time>
      </trkpt>
      <trkpt lat="44.16718" lon="3.22598">
        <ele>851</ele>
        <time>2019-05-22T22:37:43Z</time>
      </trkpt>
      <trkpt lat="44.1673" lon="3.22587">
        <ele>852</ele>
        <time>2019-05-22T22:37:45Z</time>
      </trkpt>
      <trkpt lat="44.16747" lon="3.22582">
        <ele>855</ele>
        <time>2019-05-22T22:37:48Z</time>
      </trkpt>
      <trkpt lat="44.16806" lon="3.22596">
        <ele>855</ele>
        <time>2019-05-22T22:37:59Z</time>
      </trkpt>
      <trkpt lat="44.16827" lon="3.22596">
        <ele>854</ele>
        <time>2019-05-22T22:38:03Z</time>
      </trkpt>
      <trkpt lat="44.16853" lon="3.22591">
        <ele>853</ele>
        <time>2019-05-22T22:38:07Z</time>
      </trkpt>
      <trkpt lat="44.1688" lon="3.22575">
        <ele>852</ele>
        <time>2019-05-22T22:38:13Z</time>
      </trkpt>
      <trkpt lat="44.16931" lon="3.22528">
        <ele>848</ele>
        <time>2019-05-22T22:38:23Z</time>
      </trkpt>
      <trkpt lat="44.16969" lon="3.22487">
        <ele>844</ele>
        <time>2019-05-22T22:38:32Z</time>
      </trkpt>
      <trkpt lat="44.16973" lon="3.22474">
        <ele>843</ele>
        <time>2019-05-22T22:38:34Z</time>
      </trkpt>
      <trkpt lat="44.16971" lon="3.22463">
        <ele>842</ele>
        <time>2019-05-22T22:38:35Z</time>
      </trkpt>
      <trkpt lat="44.16964" lon="3.2245">
        <ele>841</ele>
        <time>2019-05-22T22:38:37Z</time>
      </trkpt>
      <trkpt lat="44.16926" lon="3.2242">
        <ele>839</ele>
        <time>2019-05-22T22:38:45Z</time>
      </trkpt>
      <trkpt lat="44.16894" lon="3.22369">
        <ele>836</ele>
        <time>2019-05-22T22:38:54Z</time>
      </trkpt>
      <trkpt lat="44.16876" lon="3.22352">
        <ele>835</ele>
        <time>2019-05-22T22:38:58Z</time>
      </trkpt>
      <trkpt lat="44.16843" lon="3.22333">
        <ele>835</ele>
        <time>2019-05-22T22:39:04Z</time>
      </trkpt>
      <trkpt lat="44.1681" lon="3.2232">
        <ele>833</ele>
        <time>2019-05-22T22:39:10Z</time>
      </trkpt>
      <trkpt lat="44.16724" lon="3.22299">
        <ele>827</ele>
        <time>2019-05-22T22:39:26Z</time>
      </trkpt>
      <trkpt lat="44.16691" lon="3.22285">
        <ele>824</ele>
        <time>2019-05-22T22:39:32Z</time>
      </trkpt>
      <trkpt lat="44.16648" lon="3.22281">
        <ele>822</ele>
        <time>2019-05-22T22:39:39Z</time>
      </trkpt>
      <trkpt lat="44.16581" lon="3.22283">
        <ele>819</ele>
        <time>2019-05-22T22:39:51Z</time>
      </trkpt>
      <trkpt lat="44.1655" lon="3.22274">
        <ele>817</ele>
        <time>2019-05-22T22:39:57Z</time>
      </trkpt>
      <trkpt lat="44.16522" lon="3.22264">
        <ele>816</ele>
        <time>2019-05-22T22:40:02Z</time>
      </trkpt>
      <trkpt lat="44.16484" lon="3.22225">
        <ele>811</ele>
        <time>2019-05-22T22:40:10Z</time>
      </trkpt>
      <trkpt lat="44.16453" lon="3.22213">
        <ele>809</ele>
        <time>2019-05-22T22:40:16Z</time>
      </trkpt>
      <trkpt lat="44.16437" lon="3.22214">
        <ele>810</ele>
        <time>2019-05-22T22:40:19Z</time>
      </trkpt>
      <trkpt lat="44.16409" lon="3.2223">
        <ele>812</ele>
        <time>2019-05-22T22:40:24Z</time>
      </trkpt>
      <trkpt lat="44.16387" lon="3.22233">
        <ele>812</ele>
        <time>2019-05-22T22:40:28Z</time>
      </trkpt>
      <trkpt lat="44.16374" lon="3.22225">
        <ele>811</ele>
        <time>2019-05-22T22:40:31Z</time>
      </trkpt>
      <trkpt lat="44.16371" lon="3.22212">
        <ele>811</ele>
        <time>2019-05-22T22:40:33Z</time>
      </trkpt>
      <trkpt lat="44.16382" lon="3.22157">
        <ele>806</ele>
        <time>2019-05-22T22:40:40Z</time>
      </trkpt>
      <trkpt lat="44.16383" lon="3.22125">
        <ele>803</ele>
        <time>2019-05-22T22:40:44Z</time>
      </trkpt>
      <trkpt lat="44.16378" lon="3.22108">
        <ele>802</ele>
        <time>2019-05-22T22:40:46Z</time>
      </trkpt>
      <trkpt lat="44.16365" lon="3.22095">
        <ele>801</ele>
        <time>2019-05-22T22:40:49Z</time>
      </trkpt>
      <trkpt lat="44.16332" lon="3.22076">
        <ele>801</ele>
        <time>2019-05-22T22:40:56Z</time>
      </trkpt>
      <trkpt lat="44.16319" lon="3.22054">
        <ele>799</ele>
        <time>2019-05-22T22:40:59Z</time>
      </trkpt>
      <trkpt lat="44.16315" lon="3.2203">
        <ele>798</ele>
        <time>2019-05-22T22:41:02Z</time>
      </trkpt>
      <trkpt lat="44.16316" lon="3.22002">
        <ele>797</ele>
        <time>2019-05-22T22:41:06Z</time>
      </trkpt>
      <trkpt lat="44.16338" lon="3.2188">
        <ele>793</ele>
        <time>2019-05-22T22:41:22Z</time>
      </trkpt>
      <trkpt lat="44.16369" lon="3.21798">
        <ele>789</ele>
        <time>2019-05-22T22:41:34Z</time>
      </trkpt>
      <trkpt lat="44.16375" lon="3.21767">
        <ele>788</ele>
        <time>2019-05-22T22:41:38Z</time>
      </trkpt>
      <trkpt lat="44.16376" lon="3.21735">
        <ele>787</ele>
        <time>2019-05-22T22:41:42Z</time>
      </trkpt>
      <trkpt lat="44.16375" lon="3.21699">
        <ele>786</ele>
        <time>2019-05-22T22:41:47Z</time>
      </trkpt>
      <trkpt lat="44.16382" lon="3.21676">
        <ele>785</ele>
        <time>2019-05-22T22:41:50Z</time>
      </trkpt>
      <trkpt lat="44.16405" lon="3.21632">
        <ele>781</ele>
        <time>2019-05-22T22:41:57Z</time>
      </trkpt>
      <trkpt lat="44.16405" lon="3.21616">
        <ele>780</ele>
        <time>2019-05-22T22:41:59Z</time>
      </trkpt>
      <trkpt lat="44.164" lon="3.21595">
        <ele>779</ele>
        <time>2019-05-22T22:42:02Z</time>
      </trkpt>
      <trkpt lat="44.16392" lon="3.21585">
        <ele>778</ele>
        <time>2019-05-22T22:42:04Z</time>
      </trkpt>
      <trkpt lat="44.1638" lon="3.21578">
        <ele>778</ele>
        <time>2019-05-22T22:42:06Z</time>
      </trkpt>
      <trkpt lat="44.16315" lon="3.21555">
        <ele>778</ele>
        <time>2019-05-22T22:42:18Z</time>
      </trkpt>
      <trkpt lat="44.16294" lon="3.21541">
        <ele>777</ele>
        <time>2019-05-22T22:42:22Z</time>
      </trkpt>
      <trkpt lat="44.16281" lon="3.21516">
        <ele>775</ele>
        <time>2019-05-22T22:42:26Z</time>
      </trkpt>
      <trkpt lat="44.16261" lon="3.21471">
        <ele>771</ele>
        <time>2019-05-22T22:42:33Z</time>
      </trkpt>
      <trkpt lat="44.16237" lon="3.21446">
        <ele>768</ele>
        <time>2019-05-22T22:42:38Z</time>
      </trkpt>
      <trkpt lat="44.16231" lon="3.21428">
        <ele>766</ele>
        <time>2019-05-22T22:42:40Z</time>
      </trkpt>
      <trkpt lat="44.16236" lon="3.21412">
        <ele>765</ele>
        <time>2019-05-22T22:42:43Z</time>
      </trkpt>
      <trkpt lat="44.16245" lon="3.21402">
        <ele>764</ele>
        <time>2019-05-22T22:42:45Z</time>
      </trkpt>
      <trkpt lat="44.16368" lon="3.21345">
        <ele>762</ele>
        <time>2019-05-22T22:43:08Z</time>
      </trkpt>
      <trkpt lat="44.16429" lon="3.213">
        <ele>762</ele>
        <time>2019-05-22T22:43:20Z</time>
      </trkpt>
      <trkpt lat="44.16448" lon="3.21291">
        <ele>762</ele>
        <time>2019-05-22T22:43:24Z</time>
      </trkpt>
      <trkpt lat="44.1648" lon="3.21283">
        <ele>761</ele>
        <time>2019-05-22T22:43:29Z</time>
      </trkpt>
      <trkpt lat="44.16529" lon="3.21262">
        <ele>760</ele>
        <time>2019-05-22T22:43:39Z</time>
      </trkpt>
      <trkpt lat="44.16549" lon="3.21241">
        <ele>759</ele>
        <time>2019-05-22T22:43:43Z</time>
      </trkpt>
      <trkpt lat="44.16552" lon="3.21227">
        <ele>758</ele>
        <time>2019-05-22T22:43:45Z</time>
      </trkpt>
      <trkpt lat="44.16553" lon="3.21192">
        <ele>756</ele>
        <time>2019-05-22T22:43:49Z</time>
      </trkpt>
      <trkpt lat="44.16561" lon="3.21167">
        <ele>754</ele>
        <time>2019-05-22T22:43:53Z</time>
      </trkpt>
      <trkpt lat="44.16581" lon="3.21126">
        <ele>751</ele>
        <time>2019-05-22T22:43:59Z</time>
      </trkpt>
      <trkpt lat="44.16602" lon="3.21095">
        <ele>748</ele>
        <time>2019-05-22T22:44:05Z</time>
      </trkpt>
      <trkpt lat="44.1663" lon="3.21069">
        <ele>746</ele>
        <time>2019-05-22T22:44:11Z</time>
      </trkpt>
      <trkpt lat="44.16641" lon="3.21047">
        <ele>746</ele>
        <time>2019-05-22T22:44:14Z</time>
      </trkpt>
      <trkpt lat="44.16658" lon="3.20982">
        <ele>746</ele>
        <time>2019-05-22T22:44:23Z</time>
      </trkpt>
      <trkpt lat="44.16674" lon="3.20959">
        <ele>745</ele>
        <time>2019-05-22T22:44:27Z</time>
      </trkpt>
      <trkpt lat="44.16689" lon="3.2095">
        <ele>744</ele>
        <time>2019-05-22T22:44:30Z</time>
      </trkpt>
      <trkpt lat="44.16707" lon="3.20945">
        <ele>743</ele>
        <time>2019-05-22T22:44:33Z</time>
      </trkpt>
      <trkpt lat="44.16745" lon="3.20945">
        <ele>740</ele>
        <time>2019-05-22T22:44:40Z</time>
      </trkpt>
      <trkpt lat="44.1676" lon="3.20955">
        <ele>739</ele>
        <time>2019-05-22T22:44:43Z</time>
      </trkpt>
      <trkpt lat="44.16844" lon="3.21032">
        <ele>732</ele>
        <time>2019-05-22T22:45:01Z</time>
      </trkpt>
      <trkpt lat="44.16876" lon="3.21056">
        <ele>733</ele>
        <time>2019-05-22T22:45:07Z</time>
      </trkpt>
      <trkpt lat="44.16892" lon="3.21059">
        <ele>733</ele>
        <time>2019-05-22T22:45:10Z</time>
      </trkpt>
      <trkpt lat="44.16911" lon="3.21058">
        <ele>733</ele>
        <time>2019-05-22T22:45:13Z</time>
      </trkpt>
      <trkpt lat="44.17046" lon="3.21003">
        <ele>735</ele>
        <time>2019-05-22T22:45:38Z</time>
      </trkpt>
      <trkpt lat="44.17146" lon="3.20958">
        <ele>736</ele>
        <time>2019-05-22T22:45:57Z</time>
      </trkpt>
      <trkpt lat="44.17174" lon="3.2094">
        <ele>736</ele>
        <time>2019-05-22T22:46:03Z</time>
      </trkpt>
      <trkpt lat="44.17206" lon="3.20911">
        <ele>737</ele>
        <time>2019-05-22T22:46:09Z</time>
      </trkpt>
      <trkpt lat="44.1726" lon="3.20838">
        <ele>736</ele>
        <time>2019-05-22T22:46:23Z</time>
      </trkpt>
      <trkpt lat="44.17293" lon="3.20801">
        <ele>734</ele>
        <time>2019-05-22T22:46:30Z</time>
      </trkpt>
      <trkpt lat="44.17316" lon="3.20784">
        <ele>734</ele>
        <time>2019-05-22T22:46:35Z</time>
      </trkpt>
      <trkpt lat="44.17329" lon="3.20779">
        <ele>735</ele>
        <time>2019-05-22T22:46:37Z</time>
      </trkpt>
      <trkpt lat="44.17344" lon="3.20782">
        <ele>734</ele>
        <time>2019-05-22T22:46:40Z</time>
      </trkpt>
      <trkpt lat="44.17366" lon="3.20804">
        <ele>734</ele>
        <time>2019-05-22T22:46:45Z</time>
      </trkpt>
      <trkpt lat="44.17378" lon="3.2081">
        <ele>734</ele>
        <time>2019-05-22T22:46:47Z</time>
      </trkpt>
      <trkpt lat="44.1743" lon="3.2081">
        <ele>729</ele>
        <time>2019-05-22T22:46:56Z</time>
      </trkpt>
      <trkpt lat="44.17476" lon="3.20817">
        <ele>725</ele>
        <time>2019-05-22T22:47:05Z</time>
      </trkpt>
      <trkpt lat="44.17496" lon="3.20828">
        <ele>725</ele>
        <time>2019-05-22T22:47:08Z</time>
      </trkpt>
      <trkpt lat="44.1752" lon="3.20834">
        <ele>722</ele>
        <time>2019-05-22T22:47:13Z</time>
      </trkpt>
      <trkpt lat="44.17533" lon="3.2084">
        <ele>720</ele>
        <time>2019-05-22T22:47:15Z</time>
      </trkpt>
      <trkpt lat="44.17556" lon="3.20856">
        <ele>718</ele>
        <time>2019-05-22T22:47:20Z</time>
      </trkpt>
      <trkpt lat="44.17576" lon="3.20861">
        <ele>715</ele>
        <time>2019-05-22T22:47:23Z</time>
      </trkpt>
      <trkpt lat="44.17599" lon="3.20864">
        <ele>713</ele>
        <time>2019-05-22T22:47:28Z</time>
      </trkpt>
      <trkpt lat="44.17614" lon="3.20874">
        <ele>713</ele>
        <time>2019-05-22T22:47:31Z</time>
      </trkpt>
      <trkpt lat="44.17655" lon="3.20915">
        <ele>714</ele>
        <time>2019-05-22T22:47:39Z</time>
      </trkpt>
      <trkpt lat="44.17666" lon="3.20922">
        <ele>714</ele>
        <time>2019-05-22T22:47:42Z</time>
      </trkpt>
      <trkpt lat="44.17675" lon="3.20921">
        <ele>715</ele>
        <time>2019-05-22T22:47:43Z</time>
      </trkpt>
      <trkpt lat="44.17692" lon="3.20906">
        <ele>714</ele>
        <time>2019-05-22T22:47:47Z</time>
      </trkpt>
      <trkpt lat="44.1774" lon="3.20853">
        <ele>708</ele>
        <time>2019-05-22T22:47:58Z</time>
      </trkpt>
      <trkpt lat="44.17756" lon="3.20842">
        <ele>707</ele>
        <time>2019-05-22T22:48:01Z</time>
      </trkpt>
      <trkpt lat="44.17756" lon="3.20842">
        <ele>707</ele>
        <time>2019-05-22T22:48:01Z</time>
      </trkpt>
      <trkpt lat="44.17763" lon="3.20837">
        <ele>707</ele>
        <time>2019-05-22T22:48:02Z</time>
      </trkpt>
      <trkpt lat="44.17777" lon="3.2082">
        <ele>706</ele>
        <time>2019-05-22T22:48:06Z</time>
      </trkpt>
      <trkpt lat="44.178" lon="3.20779">
        <ele>701</ele>
        <time>2019-05-22T22:48:12Z</time>
      </trkpt>
      <trkpt lat="44.17813" lon="3.20768">
        <ele>700</ele>
        <time>2019-05-22T22:48:15Z</time>
      </trkpt>
      <trkpt lat="44.17851" lon="3.2075">
        <ele>700</ele>
        <time>2019-05-22T22:48:22Z</time>
      </trkpt>
      <trkpt lat="44.17859" lon="3.2074">
        <ele>700</ele>
        <time>2019-05-22T22:48:24Z</time>
      </trkpt>
      <trkpt lat="44.17859" lon="3.20726">
        <ele>699</ele>
        <time>2019-05-22T22:48:26Z</time>
      </trkpt>
      <trkpt lat="44.17855" lon="3.20716">
        <ele>697</ele>
        <time>2019-05-22T22:48:27Z</time>
      </trkpt>
      <trkpt lat="44.17845" lon="3.207">
        <ele>693</ele>
        <time>2019-05-22T22:48:30Z</time>
      </trkpt>
      <trkpt lat="44.17843" lon="3.2068">
        <ele>690</ele>
        <time>2019-05-22T22:48:33Z</time>
      </trkpt>
      <trkpt lat="44.17847" lon="3.2066">
        <ele>689</ele>
        <time>2019-05-22T22:48:35Z</time>
      </trkpt>
      <trkpt lat="44.17855" lon="3.20645">
        <ele>689</ele>
        <time>2019-05-22T22:48:38Z</time>
      </trkpt>
      <trkpt lat="44.17925" lon="3.20555">
        <ele>683</ele>
        <time>2019-05-22T22:48:55Z</time>
      </trkpt>
      <trkpt lat="44.17956" lon="3.2053">
        <ele>680</ele>
        <time>2019-05-22T22:49:01Z</time>
      </trkpt>
      <trkpt lat="44.17987" lon="3.20514">
        <ele>679</ele>
        <time>2019-05-22T22:49:07Z</time>
      </trkpt>
      <trkpt lat="44.18006" lon="3.20485">
        <ele>668</ele>
        <time>2019-05-22T22:49:12Z</time>
      </trkpt>
      <trkpt lat="44.18012" lon="3.20483">
        <ele>665</ele>
        <time>2019-05-22T22:49:13Z</time>
      </trkpt>
      <trkpt lat="44.1802" lon="3.2049">
        <ele>665</ele>
        <time>2019-05-22T22:49:15Z</time>
      </trkpt>
      <trkpt lat="44.18041" lon="3.20523">
        <ele>672</ele>
        <time>2019-05-22T22:49:20Z</time>
      </trkpt>
      <trkpt lat="44.18061" lon="3.20537">
        <ele>673</ele>
        <time>2019-05-22T22:49:24Z</time>
      </trkpt>
      <trkpt lat="44.18121" lon="3.20568">
        <ele>669</ele>
        <time>2019-05-22T22:49:36Z</time>
      </trkpt>
      <trkpt lat="44.18156" lon="3.20581">
        <ele>662</ele>
        <time>2019-05-22T22:49:42Z</time>
      </trkpt>
      <trkpt lat="44.18183" lon="3.20599">
        <ele>664</ele>
        <time>2019-05-22T22:49:47Z</time>
      </trkpt>
      <trkpt lat="44.18204" lon="3.20602">
        <ele>662</ele>
        <time>2019-05-22T22:49:51Z</time>
      </trkpt>
      <trkpt lat="44.18252" lon="3.20605">
        <ele>653</ele>
        <time>2019-05-22T22:50:00Z</time>
      </trkpt>
      <trkpt lat="44.18309" lon="3.20616">
        <ele>647</ele>
        <time>2019-05-22T22:50:10Z</time>
      </trkpt>
      <trkpt lat="44.18335" lon="3.20632">
        <ele>649</ele>
        <time>2019-05-22T22:50:15Z</time>
      </trkpt>
      <trkpt lat="44.18364" lon="3.20659">
        <ele>647</ele>
        <time>2019-05-22T22:50:21Z</time>
      </trkpt>
      <trkpt lat="44.18422" lon="3.20723">
        <ele>632</ele>
        <time>2019-05-22T22:50:34Z</time>
      </trkpt>
      <trkpt lat="44.18436" lon="3.20742">
        <ele>626</ele>
        <time>2019-05-22T22:50:38Z</time>
      </trkpt>
      <trkpt lat="44.18438" lon="3.20762">
        <ele>626</ele>
        <time>2019-05-22T22:50:40Z</time>
      </trkpt>
      <trkpt lat="44.18434" lon="3.2078">
        <ele>627</ele>
        <time>2019-05-22T22:50:43Z</time>
      </trkpt>
      <trkpt lat="44.18425" lon="3.20799">
        <ele>633</ele>
        <time>2019-05-22T22:50:46Z</time>
      </trkpt>
      <trkpt lat="44.18426" lon="3.20809">
        <ele>632</ele>
        <time>2019-05-22T22:50:47Z</time>
      </trkpt>
      <trkpt lat="44.18431" lon="3.20809">
        <ele>628</ele>
        <time>2019-05-22T22:50:48Z</time>
      </trkpt>
      <trkpt lat="44.18439" lon="3.20801">
        <ele>622</ele>
        <time>2019-05-22T22:50:50Z</time>
      </trkpt>
      <trkpt lat="44.1845" lon="3.2077">
        <ele>617</ele>
        <time>2019-05-22T22:50:54Z</time>
      </trkpt>
      <trkpt lat="44.18451" lon="3.20753">
        <ele>617</ele>
        <time>2019-05-22T22:50:56Z</time>
      </trkpt>
      <trkpt lat="44.1845" lon="3.20741">
        <ele>616</ele>
        <time>2019-05-22T22:50:58Z</time>
      </trkpt>
      <trkpt lat="44.18434" lon="3.20701">
        <ele>619</ele>
        <time>2019-05-22T22:51:04Z</time>
      </trkpt>
      <trkpt lat="44.18421" lon="3.20685">
        <ele>624</ele>
        <time>2019-05-22T22:51:07Z</time>
      </trkpt>
      <trkpt lat="44.18364" lon="3.20586">
        <ele>616</ele>
        <time>2019-05-22T22:51:23Z</time>
      </trkpt>
      <trkpt lat="44.18348" lon="3.20567">
        <ele>613</ele>
        <time>2019-05-22T22:51:27Z</time>
      </trkpt>
      <trkpt lat="44.18328" lon="3.20554">
        <ele>613</ele>
        <time>2019-05-22T22:51:30Z</time>
      </trkpt>
      <trkpt lat="44.18238" lon="3.20511">
        <ele>607</ele>
        <time>2019-05-22T22:51:47Z</time>
      </trkpt>
      <trkpt lat="44.18195" lon="3.205">
        <ele>609</ele>
        <time>2019-05-22T22:51:55Z</time>
      </trkpt>
      <trkpt lat="44.18165" lon="3.20484">
        <ele>606</ele>
        <time>2019-05-22T22:52:01Z</time>
      </trkpt>
      <trkpt lat="44.18134" lon="3.2046">
        <ele>610</ele>
        <time>2019-05-22T22:52:07Z</time>
      </trkpt>
      <trkpt lat="44.18118" lon="3.20433">
        <ele>606</ele>
        <time>2019-05-22T22:52:12Z</time>
      </trkpt>
      <trkpt lat="44.18103" lon="3.20395">
        <ele>602</ele>
        <time>2019-05-22T22:52:17Z</time>
      </trkpt>
      <trkpt lat="44.18083" lon="3.20376">
        <ele>607</ele>
        <time>2019-05-22T22:52:22Z</time>
      </trkpt>
      <trkpt lat="44.18082" lon="3.20364">
        <ele>605</ele>
        <time>2019-05-22T22:52:23Z</time>
      </trkpt>
      <trkpt lat="44.18086" lon="3.2036">
        <ele>602</ele>
        <time>2019-05-22T22:52:24Z</time>
      </trkpt>
      <trkpt lat="44.18093" lon="3.20361">
        <ele>599</ele>
        <time>2019-05-22T22:52:25Z</time>
      </trkpt>
      <trkpt lat="44.18099" lon="3.20368">
        <ele>598</ele>
        <time>2019-05-22T22:52:27Z</time>
      </trkpt>
      <trkpt lat="44.18117" lon="3.20405">
        <ele>597</ele>
        <time>2019-05-22T22:52:32Z</time>
      </trkpt>
      <trkpt lat="44.18137" lon="3.20435">
        <ele>597</ele>
        <time>2019-05-22T22:52:38Z</time>
      </trkpt>
      <trkpt lat="44.18153" lon="3.20449">
        <ele>596</ele>
        <time>2019-05-22T22:52:41Z</time>
      </trkpt>
      <trkpt lat="44.1818" lon="3.20458">
        <ele>591</ele>
        <time>2019-05-22T22:52:46Z</time>
      </trkpt>
      <trkpt lat="44.18214" lon="3.20461">
        <ele>587</ele>
        <time>2019-05-22T22:52:52Z</time>
      </trkpt>
      <trkpt lat="44.18248" lon="3.20455">
        <ele>577</ele>
        <time>2019-05-22T22:52:58Z</time>
      </trkpt>
      <trkpt lat="44.18269" lon="3.20459">
        <ele>576</ele>
        <time>2019-05-22T22:53:02Z</time>
      </trkpt>
      <trkpt lat="44.18303" lon="3.20471">
        <ele>577</ele>
        <time>2019-05-22T22:53:08Z</time>
      </trkpt>
      <trkpt lat="44.18323" lon="3.20474">
        <ele>575</ele>
        <time>2019-05-22T22:53:12Z</time>
      </trkpt>
      <trkpt lat="44.18361" lon="3.20474">
        <ele>565</ele>
        <time>2019-05-22T22:53:18Z</time>
      </trkpt>
      <trkpt lat="44.1838" lon="3.20483">
        <ele>564</ele>
        <time>2019-05-22T22:53:22Z</time>
      </trkpt>
      <trkpt lat="44.18403" lon="3.20498">
        <ele>563</ele>
        <time>2019-05-22T22:53:26Z</time>
      </trkpt>
      <trkpt lat="44.18431" lon="3.20527">
        <ele>565</ele>
        <time>2019-05-22T22:53:33Z</time>
      </trkpt>
      <trkpt lat="44.18486" lon="3.20612">
        <ele>565</ele>
        <time>2019-05-22T22:53:47Z</time>
      </trkpt>
      <trkpt lat="44.18502" lon="3.2063">
        <ele>561</ele>
        <time>2019-05-22T22:53:51Z</time>
      </trkpt>
      <trkpt lat="44.1854" lon="3.20652">
        <ele>547</ele>
        <time>2019-05-22T22:53:58Z</time>
      </trkpt>
      <trkpt lat="44.18546" lon="3.20663">
        <ele>547</ele>
        <time>2019-05-22T22:54:00Z</time>
      </trkpt>
      <trkpt lat="44.18548" lon="3.20682">
        <ele>547</ele>
        <time>2019-05-22T22:54:02Z</time>
      </trkpt>
      <trkpt lat="44.18546" lon="3.20726">
        <ele>550</ele>
        <time>2019-05-22T22:54:08Z</time>
      </trkpt>
      <trkpt lat="44.18548" lon="3.20817">
        <ele>544</ele>
        <time>2019-05-22T22:54:20Z</time>
      </trkpt>
      <trkpt lat="44.18515" lon="3.20958">
        <ele>538</ele>
        <time>2019-05-22T22:54:39Z</time>
      </trkpt>
      <trkpt lat="44.18499" lon="3.20997">
        <ele>535</ele>
        <time>2019-05-22T22:54:44Z</time>
      </trkpt>
      <trkpt lat="44.1848" lon="3.21033">
        <ele>532</ele>
        <time>2019-05-22T22:54:50Z</time>
      </trkpt>
      <trkpt lat="44.18468" lon="3.21046">
        <ele>533</ele>
        <time>2019-05-22T22:54:53Z</time>
      </trkpt>
      <trkpt lat="44.18456" lon="3.21053">
        <ele>536</ele>
        <time>2019-05-22T22:54:55Z</time>
      </trkpt>
      <trkpt lat="44.18387" lon="3.21079">
        <ele>554</ele>
        <time>2019-05-22T22:55:08Z</time>
      </trkpt>
      <trkpt lat="44.18378" lon="3.21088">
        <ele>552</ele>
        <time>2019-05-22T22:55:10Z</time>
      </trkpt>
      <trkpt lat="44.1837" lon="3.21102">
        <ele>548</ele>
        <time>2019-05-22T22:55:12Z</time>
      </trkpt>
      <trkpt lat="44.18343" lon="3.21128">
        <ele>548</ele>
        <time>2019-05-22T22:55:18Z</time>
      </trkpt>
      <trkpt lat="44.18341" lon="3.21138">
        <ele>543</ele>
        <time>2019-05-22T22:55:19Z</time>
      </trkpt>
      <trkpt lat="44.18344" lon="3.21145">
        <ele>538</ele>
        <time>2019-05-22T22:55:20Z</time>
      </trkpt>
      <trkpt lat="44.18348" lon="3.21146">
        <ele>535</ele>
        <time>2019-05-22T22:55:21Z</time>
      </trkpt>
      <trkpt lat="44.18354" lon="3.21141">
        <ele>535</ele>
        <time>2019-05-22T22:55:22Z</time>
      </trkpt>
      <trkpt lat="44.18363" lon="3.2112">
        <ele>542</ele>
        <time>2019-05-22T22:55:25Z</time>
      </trkpt>
      <trkpt lat="44.18382" lon="3.21098">
        <ele>545</ele>
        <time>2019-05-22T22:55:30Z</time>
      </trkpt>
      <trkpt lat="44.1839" lon="3.21091">
        <ele>545</ele>
        <time>2019-05-22T22:55:31Z</time>
      </trkpt>
      <trkpt lat="44.18451" lon="3.21078">
        <ele>526</ele>
        <time>2019-05-22T22:55:42Z</time>
      </trkpt>
      <trkpt lat="44.18479" lon="3.21077">
        <ele>513</ele>
        <time>2019-05-22T22:55:47Z</time>
      </trkpt>
      <trkpt lat="44.185" lon="3.2107">
        <ele>506</ele>
        <time>2019-05-22T22:55:51Z</time>
      </trkpt>
      <trkpt lat="44.18514" lon="3.21062">
        <ele>505</ele>
        <time>2019-05-22T22:55:54Z</time>
      </trkpt>
      <trkpt lat="44.18531" lon="3.21038">
        <ele>507</ele>
        <time>2019-05-22T22:55:58Z</time>
      </trkpt>
      <trkpt lat="44.1856" lon="3.2101">
        <ele>504</ele>
        <time>2019-05-22T22:56:04Z</time>
      </trkpt>
      <trkpt lat="44.18569" lon="3.20997">
        <ele>503</ele>
        <time>2019-05-22T22:56:07Z</time>
      </trkpt>
      <trkpt lat="44.18583" lon="3.20968">
        <ele>501</ele>
        <time>2019-05-22T22:56:11Z</time>
      </trkpt>
      <trkpt lat="44.1859" lon="3.2095">
        <ele>500</ele>
        <time>2019-05-22T22:56:14Z</time>
      </trkpt>
      <trkpt lat="44.18597" lon="3.2091">
        <ele>502</ele>
        <time>2019-05-22T22:56:19Z</time>
      </trkpt>
      <trkpt lat="44.18604" lon="3.20891">
        <ele>501</ele>
        <time>2019-05-22T22:56:22Z</time>
      </trkpt>
      <trkpt lat="44.18625" lon="3.20852">
        <ele>494</ele>
        <time>2019-05-22T22:56:28Z</time>
      </trkpt>
      <trkpt lat="44.18632" lon="3.20827">
        <ele>493</ele>
        <time>2019-05-22T22:56:31Z</time>
      </trkpt>
      <trkpt lat="44.18638" lon="3.20762">
        <ele>493</ele>
        <time>2019-05-22T22:56:40Z</time>
      </trkpt>
      <trkpt lat="44.18641" lon="3.20736">
        <ele>493</ele>
        <time>2019-05-22T22:56:43Z</time>
      </trkpt>
      <trkpt lat="44.18645" lon="3.20721">
        <ele>492</ele>
        <time>2019-05-22T22:56:45Z</time>
      </trkpt>
      <trkpt lat="44.18684" lon="3.20637">
        <ele>474</ele>
        <time>2019-05-22T22:56:58Z</time>
      </trkpt>
      <trkpt lat="44.18687" lon="3.20616">
        <ele>471</ele>
        <time>2019-05-22T22:57:01Z</time>
      </trkpt>
      <trkpt lat="44.18684" lon="3.20596">
        <ele>470</ele>
        <time>2019-05-22T22:57:03Z</time>
      </trkpt>
      <trkpt lat="44.18673" lon="3.20579">
        <ele>471</ele>
        <time>2019-05-22T22:57:06Z</time>
      </trkpt>
      <trkpt lat="44.1866" lon="3.20566">
        <ele>473</ele>
        <time>2019-05-22T22:57:09Z</time>
      </trkpt>
      <trkpt lat="44.18628" lon="3.20544">
        <ele>480</ele>
        <time>2019-05-22T22:57:15Z</time>
      </trkpt>
      <trkpt lat="44.18616" lon="3.20528">
        <ele>480</ele>
        <time>2019-05-22T22:57:18Z</time>
      </trkpt>
      <trkpt lat="44.1859" lon="3.20457">
        <ele>474</ele>
        <time>2019-05-22T22:57:29Z</time>
      </trkpt>
      <trkpt lat="44.18587" lon="3.20412">
        <ele>467</ele>
        <time>2019-05-22T22:57:34Z</time>
      </trkpt>
      <trkpt lat="44.1858" lon="3.20394">
        <ele>467</ele>
        <time>2019-05-22T22:57:37Z</time>
      </trkpt>
      <trkpt lat="44.18571" lon="3.20383">
        <ele>469</ele>
        <time>2019-05-22T22:57:39Z</time>
      </trkpt>
      <trkpt lat="44.18565" lon="3.20373">
        <ele>470</ele>
        <time>2019-05-22T22:57:41Z</time>
      </trkpt>
      <trkpt lat="44.18565" lon="3.20359">
        <ele>469</ele>
        <time>2019-05-22T22:57:43Z</time>
      </trkpt>
      <trkpt lat="44.18571" lon="3.20349">
        <ele>467</ele>
        <time>2019-05-22T22:57:44Z</time>
      </trkpt>
      <trkpt lat="44.18577" lon="3.20346">
        <ele>465</ele>
        <time>2019-05-22T22:57:45Z</time>
      </trkpt>
      <trkpt lat="44.18588" lon="3.20351">
        <ele>465</ele>
        <time>2019-05-22T22:57:47Z</time>
      </trkpt>
      <trkpt lat="44.18633" lon="3.20408">
        <ele>464</ele>
        <time>2019-05-22T22:57:58Z</time>
      </trkpt>
      <trkpt lat="44.18659" lon="3.20459">
        <ele>460</ele>
        <time>2019-05-22T22:58:06Z</time>
      </trkpt>
      <trkpt lat="44.18673" lon="3.20478">
        <ele>457</ele>
        <time>2019-05-22T22:58:10Z</time>
      </trkpt>
      <trkpt lat="44.18691" lon="3.20492">
        <ele>454</ele>
        <time>2019-05-22T22:58:13Z</time>
      </trkpt>
      <trkpt lat="44.18716" lon="3.20505">
        <ele>452</ele>
        <time>2019-05-22T22:58:18Z</time>
      </trkpt>
      <trkpt lat="44.18767" lon="3.20519">
        <ele>450</ele>
        <time>2019-05-22T22:58:27Z</time>
      </trkpt>
      <trkpt lat="44.18786" lon="3.20529">
        <ele>452</ele>
        <time>2019-05-22T22:58:31Z</time>
      </trkpt>
      <trkpt lat="44.18805" lon="3.20547">
        <ele>450</ele>
        <time>2019-05-22T22:58:35Z</time>
      </trkpt>
      <trkpt lat="44.18823" lon="3.20573">
        <ele>445</ele>
        <time>2019-05-22T22:58:40Z</time>
      </trkpt>
      <trkpt lat="44.18839" lon="3.20602">
        <ele>440</ele>
        <time>2019-05-22T22:58:44Z</time>
      </trkpt>
      <trkpt lat="44.18847" lon="3.20623">
        <ele>438</ele>
        <time>2019-05-22T22:58:47Z</time>
      </trkpt>
      <trkpt lat="44.18853" lon="3.20664">
        <ele>434</ele>
        <time>2019-05-22T22:58:53Z</time>
      </trkpt>
      <trkpt lat="44.18853" lon="3.20681">
        <ele>433</ele>
        <time>2019-05-22T22:58:55Z</time>
      </trkpt>
      <trkpt lat="44.18852" lon="3.20699">
        <ele>432</ele>
        <time>2019-05-22T22:58:57Z</time>
      </trkpt>
      <trkpt lat="44.18846" lon="3.20715">
        <ele>432</ele>
        <time>2019-05-22T22:58:59Z</time>
      </trkpt>
      <trkpt lat="44.18836" lon="3.20731">
        <ele>432</ele>
        <time>2019-05-22T22:59:02Z</time>
      </trkpt>
      <trkpt lat="44.18807" lon="3.20758">
        <ele>433</ele>
        <time>2019-05-22T22:59:08Z</time>
      </trkpt>
      <trkpt lat="44.18796" lon="3.20778">
        <ele>434</ele>
        <time>2019-05-22T22:59:12Z</time>
      </trkpt>
      <trkpt lat="44.18796" lon="3.2079">
        <ele>433</ele>
        <time>2019-05-22T22:59:13Z</time>
      </trkpt>
      <trkpt lat="44.18821" lon="3.20901">
        <ele>425</ele>
        <time>2019-05-22T22:59:28Z</time>
      </trkpt>
      <trkpt lat="44.18824" lon="3.20921">
        <ele>423</ele>
        <time>2019-05-22T22:59:31Z</time>
      </trkpt>
      <trkpt lat="44.18826" lon="3.20942">
        <ele>422</ele>
        <time>2019-05-22T22:59:33Z</time>
      </trkpt>
      <trkpt lat="44.18836" lon="3.20964">
        <ele>419</ele>
        <time>2019-05-22T22:59:37Z</time>
      </trkpt>
      <trkpt lat="44.18856" lon="3.20978">
        <ele>418</ele>
        <time>2019-05-22T22:59:41Z</time>
      </trkpt>
      <trkpt lat="44.1887" lon="3.20994">
        <ele>416</ele>
        <time>2019-05-22T22:59:44Z</time>
      </trkpt>
      <trkpt lat="44.18891" lon="3.21023">
        <ele>414</ele>
        <time>2019-05-22T22:59:49Z</time>
      </trkpt>
      <trkpt lat="44.18939" lon="3.21057">
        <ele>408</ele>
        <time>2019-05-22T22:59:59Z</time>
      </trkpt>
      <trkpt lat="44.18952" lon="3.2106">
        <ele>406</ele>
        <time>2019-05-22T23:00:01Z</time>
      </trkpt>
      <trkpt lat="44.18962" lon="3.21054">
        <ele>404</ele>
        <time>2019-05-22T23:00:03Z</time>
      </trkpt>
      <trkpt lat="44.18972" lon="3.21041">
        <ele>403</ele>
        <time>2019-05-22T23:00:05Z</time>
      </trkpt>
      <trkpt lat="44.18979" lon="3.21018">
        <ele>403</ele>
        <time>2019-05-22T23:00:09Z</time>
      </trkpt>
      <trkpt lat="44.18995" lon="3.20952">
        <ele>400</ele>
        <time>2019-05-22T23:00:17Z</time>
      </trkpt>
      <trkpt lat="44.19002" lon="3.20948">
        <ele>399</ele>
        <time>2019-05-22T23:00:19Z</time>
      </trkpt>
      <trkpt lat="44.19047" lon="3.20954">
        <ele>406</ele>
        <time>2019-05-22T23:00:27Z</time>
      </trkpt>
      <trkpt lat="44.19052" lon="3.20903">
        <ele>404</ele>
        <time>2019-05-22T23:00:33Z</time>
      </trkpt>
      <trkpt lat="44.19055" lon="3.20858">
        <ele>403</ele>
        <time>2019-05-22T23:00:39Z</time>
      </trkpt>
      <trkpt lat="44.19061" lon="3.20808">
        <ele>402</ele>
        <time>2019-05-22T23:00:46Z</time>
      </trkpt>
      <trkpt lat="44.19063" lon="3.20781">
        <ele>401</ele>
        <time>2019-05-22T23:00:49Z</time>
      </trkpt>
      <trkpt lat="44.19066" lon="3.20764">
        <ele>400</ele>
        <time>2019-05-22T23:00:51Z</time>
      </trkpt>
      <trkpt lat="44.19068" lon="3.2076">
        <ele>400</ele>
        <time>2019-05-22T23:00:52Z</time>
      </trkpt>
      <trkpt lat="44.19161" lon="3.20708">
        <ele>407</ele>
        <time>2019-05-22T23:01:10Z</time>
      </trkpt>
      <trkpt lat="44.19185" lon="3.20703">
        <ele>406</ele>
        <time>2019-05-22T23:01:14Z</time>
      </trkpt>
      <trkpt lat="44.19211" lon="3.20707">
        <ele>406</ele>
        <time>2019-05-22T23:01:19Z</time>
      </trkpt>
      <trkpt lat="44.19236" lon="3.20721">
        <ele>407</ele>
        <time>2019-05-22T23:01:24Z</time>
      </trkpt>
      <trkpt lat="44.19282" lon="3.20772">
        <ele>408</ele>
        <time>2019-05-22T23:01:34Z</time>
      </trkpt>
      <trkpt lat="44.19295" lon="3.20793">
        <ele>409</ele>
        <time>2019-05-22T23:01:38Z</time>
      </trkpt>
      <trkpt lat="44.1932" lon="3.20843">
        <ele>411</ele>
        <time>2019-05-22T23:01:45Z</time>
      </trkpt>
      <trkpt lat="44.19327" lon="3.20848">
        <ele>410</ele>
        <time>2019-05-22T23:01:47Z</time>
      </trkpt>
      <trkpt lat="44.19337" lon="3.20845">
        <ele>407</ele>
        <time>2019-05-22T23:01:49Z</time>
      </trkpt>
      <trkpt lat="44.19424" lon="3.20801">
        <ele>394</ele>
        <time>2019-05-22T23:02:05Z</time>
      </trkpt>
      <trkpt lat="44.19436" lon="3.208">
        <ele>396</ele>
        <time>2019-05-22T23:02:07Z</time>
      </trkpt>
      <trkpt lat="44.19462" lon="3.2081">
        <ele>400</ele>
        <time>2019-05-22T23:02:12Z</time>
      </trkpt>
      <trkpt lat="44.19449" lon="3.20704">
        <ele>399</ele>
        <time>2019-05-22T23:02:26Z</time>
      </trkpt>
      <trkpt lat="44.19451" lon="3.20673">
        <ele>398</ele>
        <time>2019-05-22T23:02:30Z</time>
      </trkpt>
      <trkpt lat="44.19456" lon="3.20636">
        <ele>398</ele>
        <time>2019-05-22T23:02:34Z</time>
      </trkpt>
      <trkpt lat="44.19457" lon="3.20594">
        <ele>397</ele>
        <time>2019-05-22T23:02:40Z</time>
      </trkpt>
      <trkpt lat="44.19446" lon="3.2049">
        <ele>395</ele>
        <time>2019-05-22T23:02:53Z</time>
      </trkpt>
      <trkpt lat="44.19451" lon="3.20468">
        <ele>396</ele>
        <time>2019-05-22T23:02:56Z</time>
      </trkpt>
      <trkpt lat="44.19469" lon="3.20426">
        <ele>398</ele>
        <time>2019-05-22T23:03:02Z</time>
      </trkpt>
      <trkpt lat="44.19485" lon="3.20368">
        <ele>399</ele>
        <time>2019-05-22T23:03:10Z</time>
      </trkpt>
      <trkpt lat="44.19508" lon="3.20229">
        <ele>399</ele>
        <time>2019-05-22T23:03:29Z</time>
      </trkpt>
      <trkpt lat="44.19531" lon="3.20146">
        <ele>400</ele>
        <time>2019-05-22T23:03:40Z</time>
      </trkpt>
      <trkpt lat="44.19547" lon="3.20065">
        <ele>398</ele>
        <time>2019-05-22T23:03:51Z</time>
      </trkpt>
      <trkpt lat="44.19559" lon="3.20029">
        <ele>396</ele>
        <time>2019-05-22T23:03:56Z</time>
      </trkpt>
      <trkpt lat="44.1969" lon="3.19808">
        <ele>399</ele>
        <time>2019-05-22T23:04:32Z</time>
      </trkpt>
      <trkpt lat="44.19707" lon="3.19773">
        <ele>398</ele>
        <time>2019-05-22T23:04:38Z</time>
      </trkpt>
      <trkpt lat="44.1972" lon="3.19732">
        <ele>397</ele>
        <time>2019-05-22T23:04:43Z</time>
      </trkpt>
      <trkpt lat="44.19759" lon="3.19577">
        <ele>399</ele>
        <time>2019-05-22T23:05:04Z</time>
      </trkpt>
      <trkpt lat="44.19769" lon="3.19545">
        <ele>400</ele>
        <time>2019-05-22T23:05:09Z</time>
      </trkpt>
      <trkpt lat="44.19859" lon="3.19315">
        <ele>399</ele>
        <time>2019-05-22T23:05:42Z</time>
      </trkpt>
      <trkpt lat="44.1987" lon="3.19261">
        <ele>397</ele>
        <time>2019-05-22T23:05:49Z</time>
      </trkpt>
      <trkpt lat="44.19875" lon="3.19228">
        <ele>397</ele>
        <time>2019-05-22T23:05:54Z</time>
      </trkpt>
      <trkpt lat="44.19879" lon="3.19155">
        <ele>396</ele>
        <time>2019-05-22T23:06:03Z</time>
      </trkpt>
      <trkpt lat="44.19877" lon="3.19115">
        <ele>397</ele>
        <time>2019-05-22T23:06:08Z</time>
      </trkpt>
      <trkpt lat="44.19866" lon="3.19079">
        <ele>397</ele>
        <time>2019-05-22T23:06:13Z</time>
      </trkpt>
      <trkpt lat="44.19792" lon="3.18933">
        <ele>394</ele>
        <time>2019-05-22T23:06:36Z</time>
      </trkpt>
      <trkpt lat="44.19774" lon="3.18907">
        <ele>395</ele>
        <time>2019-05-22T23:06:40Z</time>
      </trkpt>
      <trkpt lat="44.19763" lon="3.18897">
        <ele>395</ele>
        <time>2019-05-22T23:06:43Z</time>
      </trkpt>
      <trkpt lat="44.1974" lon="3.18882">
        <ele>396</ele>
        <time>2019-05-22T23:06:47Z</time>
      </trkpt>
      <trkpt lat="44.19686" lon="3.18857">
        <ele>395</ele>
        <time>2019-05-22T23:06:57Z</time>
      </trkpt>
      <trkpt lat="44.1967" lon="3.18843">
        <ele>395</ele>
        <time>2019-05-22T23:07:01Z</time>
      </trkpt>
      <trkpt lat="44.19656" lon="3.18822">
        <ele>396</ele>
        <time>2019-05-22T23:07:04Z</time>
      </trkpt>
      <trkpt lat="44.19644" lon="3.18792">
        <ele>397</ele>
        <time>2019-05-22T23:07:09Z</time>
      </trkpt>
      <trkpt lat="44.19639" lon="3.18769">
        <ele>398</ele>
        <time>2019-05-22T23:07:12Z</time>
      </trkpt>
      <trkpt lat="44.19637" lon="3.18735">
        <ele>399</ele>
        <time>2019-05-22T23:07:16Z</time>
      </trkpt>
      <trkpt lat="44.19638" lon="3.18706">
        <ele>398</ele>
        <time>2019-05-22T23:07:20Z</time>
      </trkpt>
      <trkpt lat="44.19642" lon="3.18686">
        <ele>399</ele>
        <time>2019-05-22T23:07:23Z</time>
      </trkpt>
      <trkpt lat="44.1965" lon="3.18657">
        <ele>399</ele>
        <time>2019-05-22T23:07:27Z</time>
      </trkpt>
      <trkpt lat="44.19669" lon="3.18618">
        <ele>398</ele>
        <time>2019-05-22T23:07:33Z</time>
      </trkpt>
      <trkpt lat="44.19679" lon="3.18603">
        <ele>397</ele>
        <time>2019-05-22T23:07:35Z</time>
      </trkpt>
      <trkpt lat="44.19697" lon="3.18584">
        <ele>397</ele>
        <time>2019-05-22T23:07:39Z</time>
      </trkpt>
      <trkpt lat="44.19873" lon="3.18464">
        <ele>403</ele>
        <time>2019-05-22T23:08:14Z</time>
      </trkpt>
      <trkpt lat="44.19908" lon="3.18424">
        <ele>403</ele>
        <time>2019-05-22T23:08:22Z</time>
      </trkpt>
      <trkpt lat="44.1993" lon="3.18387">
        <ele>403</ele>
        <time>2019-05-22T23:08:28Z</time>
      </trkpt>
      <trkpt lat="44.19947" lon="3.18348">
        <ele>402</ele>
        <time>2019-05-22T23:08:34Z</time>
      </trkpt>
      <trkpt lat="44.19963" lon="3.18309">
        <ele>403</ele>
        <time>2019-05-22T23:08:40Z</time>
      </trkpt>
      <trkpt lat="44.19972" lon="3.18274">
        <ele>403</ele>
        <time>2019-05-22T23:08:45Z</time>
      </trkpt>
      <trkpt lat="44.19977" lon="3.18241">
        <ele>403</ele>
        <time>2019-05-22T23:08:49Z</time>
      </trkpt>
      <trkpt lat="44.19978" lon="3.1821">
        <ele>402</ele>
        <time>2019-05-22T23:08:53Z</time>
      </trkpt>
      <trkpt lat="44.19973" lon="3.18146">
        <ele>399</ele>
        <time>2019-05-22T23:09:01Z</time>
      </trkpt>
      <trkpt lat="44.19973" lon="3.18109">
        <ele>398</ele>
        <time>2019-05-22T23:09:06Z</time>
      </trkpt>
      <trkpt lat="44.19975" lon="3.18077">
        <ele>398</ele>
        <time>2019-05-22T23:09:10Z</time>
      </trkpt>
      <trkpt lat="44.19982" lon="3.18037">
        <ele>397</ele>
        <time>2019-05-22T23:09:15Z</time>
      </trkpt>
      <trkpt lat="44.19995" lon="3.17993">
        <ele>397</ele>
        <time>2019-05-22T23:09:21Z</time>
      </trkpt>
      <trkpt lat="44.20029" lon="3.17897">
        <ele>397</ele>
        <time>2019-05-22T23:09:35Z</time>
      </trkpt>
      <trkpt lat="44.20068" lon="3.17807">
        <ele>397</ele>
        <time>2019-05-22T23:09:48Z</time>
      </trkpt>
      <trkpt lat="44.20081" lon="3.17766">
        <ele>395</ele>
        <time>2019-05-22T23:09:54Z</time>
      </trkpt>
      <trkpt lat="44.20098" lon="3.1766">
        <ele>395</ele>
        <time>2019-05-22T23:10:08Z</time>
      </trkpt>
      <trkpt lat="44.20104" lon="3.17611">
        <ele>395</ele>
        <time>2019-05-22T23:10:14Z</time>
      </trkpt>
      <trkpt lat="44.20105" lon="3.17559">
        <ele>393</ele>
        <time>2019-05-22T23:10:21Z</time>
      </trkpt>
      <trkpt lat="44.20108" lon="3.17527">
        <ele>392</ele>
        <time>2019-05-22T23:10:25Z</time>
      </trkpt>
      <trkpt lat="44.20123" lon="3.17462">
        <ele>392</ele>
        <time>2019-05-22T23:10:34Z</time>
      </trkpt>
      <trkpt lat="44.20135" lon="3.17426">
        <ele>392</ele>
        <time>2019-05-22T23:10:39Z</time>
      </trkpt>
      <trkpt lat="44.2015" lon="3.17392">
        <ele>391</ele>
        <time>2019-05-22T23:10:44Z</time>
      </trkpt>
      <trkpt lat="44.20167" lon="3.17365">
        <ele>390</ele>
        <time>2019-05-22T23:10:48Z</time>
      </trkpt>
      <trkpt lat="44.20173" lon="3.1735">
        <ele>390</ele>
        <time>2019-05-22T23:10:51Z</time>
      </trkpt>
      <trkpt lat="44.20178" lon="3.17327">
        <ele>388</ele>
        <time>2019-05-22T23:10:54Z</time>
      </trkpt>
      <trkpt lat="44.2018" lon="3.17308">
        <ele>388</ele>
        <time>2019-05-22T23:10:56Z</time>
      </trkpt>
      <trkpt lat="44.20181" lon="3.17246">
        <ele>389</ele>
        <time>2019-05-22T23:11:04Z</time>
      </trkpt>
      <trkpt lat="44.20179" lon="3.17203">
        <ele>392</ele>
        <time>2019-05-22T23:11:10Z</time>
      </trkpt>
      <trkpt lat="44.20161" lon="3.17098">
        <ele>392</ele>
        <time>2019-05-22T23:11:23Z</time>
      </trkpt>
      <trkpt lat="44.20156" lon="3.17032">
        <ele>395</ele>
        <time>2019-05-22T23:11:32Z</time>
      </trkpt>
      <trkpt lat="44.2014" lon="3.16934">
        <ele>398</ele>
        <time>2019-05-22T23:11:45Z</time>
      </trkpt>
      <trkpt lat="44.20124" lon="3.16791">
        <ele>395</ele>
        <time>2019-05-22T23:12:03Z</time>
      </trkpt>
      <trkpt lat="44.20121" lon="3.16727">
        <ele>396</ele>
        <time>2019-05-22T23:12:11Z</time>
      </trkpt>
      <trkpt lat="44.20124" lon="3.16627">
        <ele>400</ele>
        <time>2019-05-22T23:12:24Z</time>
      </trkpt>
      <trkpt lat="44.20124" lon="3.16576">
        <ele>401</ele>
        <time>2019-05-22T23:12:30Z</time>
      </trkpt>
      <trkpt lat="44.20109" lon="3.1645">
        <ele>397</ele>
        <time>2019-05-22T23:12:47Z</time>
      </trkpt>
      <trkpt lat="44.20105" lon="3.16359">
        <ele>397</ele>
        <time>2019-05-22T23:12:58Z</time>
      </trkpt>
      <trkpt lat="44.20102" lon="3.16228">
        <ele>404</ele>
        <time>2019-05-22T23:13:15Z</time>
      </trkpt>
      <trkpt lat="44.20096" lon="3.16144">
        <ele>399</ele>
        <time>2019-05-22T23:13:26Z</time>
      </trkpt>
      <trkpt lat="44.20096" lon="3.16117">
        <ele>396</ele>
        <time>2019-05-22T23:13:29Z</time>
      </trkpt>
      <trkpt lat="44.201" lon="3.16086">
        <ele>393</ele>
        <time>2019-05-22T23:13:33Z</time>
      </trkpt>
      <trkpt lat="44.20111" lon="3.16042">
        <ele>391</ele>
        <time>2019-05-22T23:13:39Z</time>
      </trkpt>
      <trkpt lat="44.20127" lon="3.16014">
        <ele>389</ele>
        <time>2019-05-22T23:13:44Z</time>
      </trkpt>
      <trkpt lat="44.20145" lon="3.16001">
        <ele>389</ele>
        <time>2019-05-22T23:13:47Z</time>
      </trkpt>
      <trkpt lat="44.20349" lon="3.15912">
        <ele>390</ele>
        <time>2019-05-22T23:14:25Z</time>
      </trkpt>
      <trkpt lat="44.20355" lon="3.15904">
        <ele>390</ele>
        <time>2019-05-22T23:14:27Z</time>
      </trkpt>
      <trkpt lat="44.20361" lon="3.15894">
        <ele>390</ele>
        <time>2019-05-22T23:14:29Z</time>
      </trkpt>
      <trkpt lat="44.20363" lon="3.15885">
        <ele>390</ele>
        <time>2019-05-22T23:14:30Z</time>
      </trkpt>
      <trkpt lat="44.20363" lon="3.15874">
        <ele>389</ele>
        <time>2019-05-22T23:14:31Z</time>
      </trkpt>
      <trkpt lat="44.20344" lon="3.15769">
        <ele>388</ele>
        <time>2019-05-22T23:14:45Z</time>
      </trkpt>
      <trkpt lat="44.20336" lon="3.15744">
        <ele>389</ele>
        <time>2019-05-22T23:14:49Z</time>
      </trkpt>
      <trkpt lat="44.20328" lon="3.15732">
        <ele>390</ele>
        <time>2019-05-22T23:14:51Z</time>
      </trkpt>
      <trkpt lat="44.20316" lon="3.1572">
        <ele>391</ele>
        <time>2019-05-22T23:14:53Z</time>
      </trkpt>
      <trkpt lat="44.20302" lon="3.15711">
        <ele>391</ele>
        <time>2019-05-22T23:14:56Z</time>
      </trkpt>
      <trkpt lat="44.2029" lon="3.15707">
        <ele>392</ele>
        <time>2019-05-22T23:14:58Z</time>
      </trkpt>
      <trkpt lat="44.20271" lon="3.15705">
        <ele>392</ele>
        <time>2019-05-22T23:15:02Z</time>
      </trkpt>
      <trkpt lat="44.20173" lon="3.15703">
        <ele>393</ele>
        <time>2019-05-22T23:15:19Z</time>
      </trkpt>
      <trkpt lat="44.20154" lon="3.15698">
        <ele>392</ele>
        <time>2019-05-22T23:15:22Z</time>
      </trkpt>
      <trkpt lat="44.2014" lon="3.15689">
        <ele>392</ele>
        <time>2019-05-22T23:15:25Z</time>
      </trkpt>
      <trkpt lat="44.2013" lon="3.15681">
        <ele>392</ele>
        <time>2019-05-22T23:15:27Z</time>
      </trkpt>
      <trkpt lat="44.20119" lon="3.15667">
        <ele>392</ele>
        <time>2019-05-22T23:15:30Z</time>
      </trkpt>
      <trkpt lat="44.20109" lon="3.15648">
        <ele>393</ele>
        <time>2019-05-22T23:15:33Z</time>
      </trkpt>
      <trkpt lat="44.20098" lon="3.15619">
        <ele>394</ele>
        <time>2019-05-22T23:15:37Z</time>
      </trkpt>
      <trkpt lat="44.20075" lon="3.15542">
        <ele>398</ele>
        <time>2019-05-22T23:15:48Z</time>
      </trkpt>
      <trkpt lat="44.20066" lon="3.15516">
        <ele>399</ele>
        <time>2019-05-22T23:15:51Z</time>
      </trkpt>
      <trkpt lat="44.20052" lon="3.15486">
        <ele>400</ele>
        <time>2019-05-22T23:15:56Z</time>
      </trkpt>
      <trkpt lat="44.20029" lon="3.15448">
        <ele>400</ele>
        <time>2019-05-22T23:16:02Z</time>
      </trkpt>
      <trkpt lat="44.20003" lon="3.15415">
        <ele>400</ele>
        <time>2019-05-22T23:16:09Z</time>
      </trkpt>
      <trkpt lat="44.19965" lon="3.15385">
        <ele>399</ele>
        <time>2019-05-22T23:16:16Z</time>
      </trkpt>
      <trkpt lat="44.19933" lon="3.15372">
        <ele>397</ele>
        <time>2019-05-22T23:16:22Z</time>
      </trkpt>
      <trkpt lat="44.19903" lon="3.15366">
        <ele>395</ele>
        <time>2019-05-22T23:16:28Z</time>
      </trkpt>
      <trkpt lat="44.19877" lon="3.15364">
        <ele>395</ele>
        <time>2019-05-22T23:16:32Z</time>
      </trkpt>
      <trkpt lat="44.19847" lon="3.15367">
        <ele>393</ele>
        <time>2019-05-22T23:16:38Z</time>
      </trkpt>
      <trkpt lat="44.19771" lon="3.15378">
        <ele>395</ele>
        <time>2019-05-22T23:16:51Z</time>
      </trkpt>
      <trkpt lat="44.19722" lon="3.15379">
        <ele>397</ele>
        <time>2019-05-22T23:17:00Z</time>
      </trkpt>
      <trkpt lat="44.19627" lon="3.15366">
        <ele>401</ele>
        <time>2019-05-22T23:17:17Z</time>
      </trkpt>
      <trkpt lat="44.19588" lon="3.15371">
        <ele>400</ele>
        <time>2019-05-22T23:17:24Z</time>
      </trkpt>
      <trkpt lat="44.19528" lon="3.1539">
        <ele>405</ele>
        <time>2019-05-22T23:17:35Z</time>
      </trkpt>
      <trkpt lat="44.19507" lon="3.15401">
        <ele>405</ele>
        <time>2019-05-22T23:17:39Z</time>
      </trkpt>
      <trkpt lat="44.19484" lon="3.15416">
        <ele>407</ele>
        <time>2019-05-22T23:17:43Z</time>
      </trkpt>
      <trkpt lat="44.19467" lon="3.15431">
        <ele>409</ele>
        <time>2019-05-22T23:17:47Z</time>
      </trkpt>
      <trkpt lat="44.19326" lon="3.15588">
        <ele>403</ele>
        <time>2019-05-22T23:18:19Z</time>
      </trkpt>
      <trkpt lat="44.19314" lon="3.15598">
        <ele>403</ele>
        <time>2019-05-22T23:18:22Z</time>
      </trkpt>
      <trkpt lat="44.19289" lon="3.15607">
        <ele>405</ele>
        <time>2019-05-22T23:18:26Z</time>
      </trkpt>
      <trkpt lat="44.19239" lon="3.15628">
        <ele>406</ele>
        <time>2019-05-22T23:18:35Z</time>
      </trkpt>
      <trkpt lat="44.19203" lon="3.15638">
        <ele>404</ele>
        <time>2019-05-22T23:18:42Z</time>
      </trkpt>
      <trkpt lat="44.19148" lon="3.15648">
        <ele>400</ele>
        <time>2019-05-22T23:18:52Z</time>
      </trkpt>
      <trkpt lat="44.19108" lon="3.15652">
        <ele>397</ele>
        <time>2019-05-22T23:18:59Z</time>
      </trkpt>
      <trkpt lat="44.1908" lon="3.15648">
        <ele>397</ele>
        <time>2019-05-22T23:19:04Z</time>
      </trkpt>
      <trkpt lat="44.19057" lon="3.15639">
        <ele>397</ele>
        <time>2019-05-22T23:19:08Z</time>
      </trkpt>
      <trkpt lat="44.19" lon="3.15596">
        <ele>394</ele>
        <time>2019-05-22T23:19:20Z</time>
      </trkpt>
    </trkseg>
  </trk>
</gpx>